<?xml version="1.0" encoding="UTF-8"?>
<gpx version="1.1" creator="RoadTrp.org" xmlns="http://www.topografix.com/GPX/1/1">
<trk><name>Council &amp; Blue Hole Trails — Red Clay State Historic Park — July 30, 2026</name>
<trkseg>
<trkpt lat="34.993363" lon="-84.948299"><ele>273.1</ele><time>2026-07-30T20:08:45Z</time></trkpt>
<trkpt lat="34.993384" lon="-84.948264"><ele>274.0</ele><time>2026-07-30T20:08:49Z</time></trkpt>
<trkpt lat="34.993385" lon="-84.948218"><ele>274.6</ele><time>2026-07-30T20:08:52Z</time></trkpt>
<trkpt lat="34.993381" lon="-84.948197"><ele>274.6</ele><time>2026-07-30T20:08:54Z</time></trkpt>
<trkpt lat="34.993382" lon="-84.948194"><ele>274.6</ele><time>2026-07-30T20:08:55Z</time></trkpt>
<trkpt lat="34.993389" lon="-84.948194"><ele>274.6</ele><time>2026-07-30T20:09:03Z</time></trkpt>
<trkpt lat="34.993386" lon="-84.948189"><ele>274.9</ele><time>2026-07-30T20:09:04Z</time></trkpt>
<trkpt lat="34.993355" lon="-84.948167"><ele>274.0</ele><time>2026-07-30T20:09:08Z</time></trkpt>
<trkpt lat="34.993321" lon="-84.948147"><ele>274.3</ele><time>2026-07-30T20:09:11Z</time></trkpt>
<trkpt lat="34.993301" lon="-84.948123"><ele>274.6</ele><time>2026-07-30T20:09:13Z</time></trkpt>
<trkpt lat="34.993284" lon="-84.948091"><ele>274.9</ele><time>2026-07-30T20:09:17Z</time></trkpt>
<trkpt lat="34.993249" lon="-84.948075"><ele>275.2</ele><time>2026-07-30T20:09:20Z</time></trkpt>
<trkpt lat="34.993221" lon="-84.948048"><ele>274.9</ele><time>2026-07-30T20:09:23Z</time></trkpt>
<trkpt lat="34.993186" lon="-84.948037"><ele>274.3</ele><time>2026-07-30T20:09:26Z</time></trkpt>
<trkpt lat="34.993152" lon="-84.948026"><ele>274.6</ele><time>2026-07-30T20:09:29Z</time></trkpt>
<trkpt lat="34.993117" lon="-84.948041"><ele>275.2</ele><time>2026-07-30T20:09:33Z</time></trkpt>
<trkpt lat="34.993082" lon="-84.94806"><ele>277.1</ele><time>2026-07-30T20:09:36Z</time></trkpt>
<trkpt lat="34.993052" lon="-84.948071"><ele>277.7</ele><time>2026-07-30T20:09:39Z</time></trkpt>
<trkpt lat="34.993021" lon="-84.948082"><ele>276.8</ele><time>2026-07-30T20:09:43Z</time></trkpt>
<trkpt lat="34.992987" lon="-84.948093"><ele>277.1</ele><time>2026-07-30T20:09:46Z</time></trkpt>
<trkpt lat="34.992954" lon="-84.94809"><ele>277.4</ele><time>2026-07-30T20:09:49Z</time></trkpt>
<trkpt lat="34.992915" lon="-84.948078"><ele>277.4</ele><time>2026-07-30T20:09:52Z</time></trkpt>
<trkpt lat="34.992876" lon="-84.948062"><ele>277.1</ele><time>2026-07-30T20:09:55Z</time></trkpt>
<trkpt lat="34.992841" lon="-84.948065"><ele>278.9</ele><time>2026-07-30T20:09:59Z</time></trkpt>
<trkpt lat="34.9928" lon="-84.948074"><ele>279.5</ele><time>2026-07-30T20:10:02Z</time></trkpt>
<trkpt lat="34.992762" lon="-84.948087"><ele>281.9</ele><time>2026-07-30T20:10:05Z</time></trkpt>
<trkpt lat="34.992737" lon="-84.948112"><ele>281.0</ele><time>2026-07-30T20:10:08Z</time></trkpt>
<trkpt lat="34.992713" lon="-84.948141"><ele>280.4</ele><time>2026-07-30T20:10:12Z</time></trkpt>
<trkpt lat="34.992701" lon="-84.948174"><ele>279.5</ele><time>2026-07-30T20:10:17Z</time></trkpt>
<trkpt lat="34.992685" lon="-84.948207"><ele>281.0</ele><time>2026-07-30T20:10:20Z</time></trkpt>
<trkpt lat="34.992662" lon="-84.948227"><ele>282.5</ele><time>2026-07-30T20:10:22Z</time></trkpt>
<trkpt lat="34.992635" lon="-84.948233"><ele>284.4</ele><time>2026-07-30T20:10:24Z</time></trkpt>
<trkpt lat="34.992603" lon="-84.948237"><ele>285.3</ele><time>2026-07-30T20:10:27Z</time></trkpt>
<trkpt lat="34.992635" lon="-84.948237"><ele>283.5</ele><time>2026-07-30T20:10:30Z</time></trkpt>
<trkpt lat="34.99267" lon="-84.948223"><ele>281.6</ele><time>2026-07-30T20:10:33Z</time></trkpt>
<trkpt lat="34.9927" lon="-84.948194"><ele>282.5</ele><time>2026-07-30T20:10:36Z</time></trkpt>
<trkpt lat="34.992723" lon="-84.948162"><ele>282.9</ele><time>2026-07-30T20:10:38Z</time></trkpt>
<trkpt lat="34.992739" lon="-84.94813"><ele>282.2</ele><time>2026-07-30T20:10:40Z</time></trkpt>
<trkpt lat="34.992767" lon="-84.948106"><ele>281.6</ele><time>2026-07-30T20:10:42Z</time></trkpt>
<trkpt lat="34.992796" lon="-84.948094"><ele>281.3</ele><time>2026-07-30T20:10:44Z</time></trkpt>
<trkpt lat="34.992828" lon="-84.948092"><ele>281.3</ele><time>2026-07-30T20:10:46Z</time></trkpt>
<trkpt lat="34.992867" lon="-84.948091"><ele>281.6</ele><time>2026-07-30T20:10:48Z</time></trkpt>
<trkpt lat="34.992912" lon="-84.948086"><ele>281.9</ele><time>2026-07-30T20:10:50Z</time></trkpt>
<trkpt lat="34.992951" lon="-84.948091"><ele>281.3</ele><time>2026-07-30T20:10:52Z</time></trkpt>
<trkpt lat="34.992995" lon="-84.948094"><ele>281.9</ele><time>2026-07-30T20:10:54Z</time></trkpt>
<trkpt lat="34.993034" lon="-84.948111"><ele>281.6</ele><time>2026-07-30T20:10:56Z</time></trkpt>
<trkpt lat="34.993067" lon="-84.948134"><ele>282.5</ele><time>2026-07-30T20:10:58Z</time></trkpt>
<trkpt lat="34.993091" lon="-84.94815"><ele>280.7</ele><time>2026-07-30T20:11:00Z</time></trkpt>
<trkpt lat="34.993115" lon="-84.94817"><ele>280.4</ele><time>2026-07-30T20:11:02Z</time></trkpt>
<trkpt lat="34.993111" lon="-84.948211"><ele>278.6</ele><time>2026-07-30T20:11:04Z</time></trkpt>
<trkpt lat="34.993112" lon="-84.948253"><ele>277.4</ele><time>2026-07-30T20:11:07Z</time></trkpt>
<trkpt lat="34.993117" lon="-84.948297"><ele>276.1</ele><time>2026-07-30T20:11:10Z</time></trkpt>
<trkpt lat="34.993122" lon="-84.948333"><ele>277.1</ele><time>2026-07-30T20:11:12Z</time></trkpt>
<trkpt lat="34.993103" lon="-84.948371"><ele>276.8</ele><time>2026-07-30T20:11:15Z</time></trkpt>
<trkpt lat="34.993083" lon="-84.948402"><ele>277.7</ele><time>2026-07-30T20:11:18Z</time></trkpt>
<trkpt lat="34.993069" lon="-84.94844"><ele>278.9</ele><time>2026-07-30T20:11:22Z</time></trkpt>
<trkpt lat="34.993052" lon="-84.948471"><ele>277.4</ele><time>2026-07-30T20:11:25Z</time></trkpt>
<trkpt lat="34.993052" lon="-84.948505"><ele>277.1</ele><time>2026-07-30T20:11:27Z</time></trkpt>
<trkpt lat="34.993056" lon="-84.948544"><ele>276.8</ele><time>2026-07-30T20:11:29Z</time></trkpt>
<trkpt lat="34.993056" lon="-84.948584"><ele>276.5</ele><time>2026-07-30T20:11:31Z</time></trkpt>
<trkpt lat="34.993061" lon="-84.948624"><ele>277.7</ele><time>2026-07-30T20:11:35Z</time></trkpt>
<trkpt lat="34.993068" lon="-84.94866"><ele>278.9</ele><time>2026-07-30T20:11:37Z</time></trkpt>
<trkpt lat="34.99305" lon="-84.94869"><ele>278.9</ele><time>2026-07-30T20:11:39Z</time></trkpt>
<trkpt lat="34.993024" lon="-84.948721"><ele>281.0</ele><time>2026-07-30T20:11:42Z</time></trkpt>
<trkpt lat="34.993006" lon="-84.948759"><ele>281.9</ele><time>2026-07-30T20:11:45Z</time></trkpt>
<trkpt lat="34.992999" lon="-84.948809"><ele>282.2</ele><time>2026-07-30T20:11:48Z</time></trkpt>
<trkpt lat="34.993011" lon="-84.94885"><ele>282.5</ele><time>2026-07-30T20:11:50Z</time></trkpt>
<trkpt lat="34.993019" lon="-84.948886"><ele>282.9</ele><time>2026-07-30T20:11:52Z</time></trkpt>
<trkpt lat="34.993018" lon="-84.948923"><ele>282.5</ele><time>2026-07-30T20:11:54Z</time></trkpt>
<trkpt lat="34.993005" lon="-84.948968"><ele>282.2</ele><time>2026-07-30T20:11:57Z</time></trkpt>
<trkpt lat="34.992977" lon="-84.949004"><ele>280.4</ele><time>2026-07-30T20:12:00Z</time></trkpt>
<trkpt lat="34.992955" lon="-84.949027"><ele>280.7</ele><time>2026-07-30T20:12:03Z</time></trkpt>
<trkpt lat="34.992935" lon="-84.949066"><ele>279.8</ele><time>2026-07-30T20:12:06Z</time></trkpt>
<trkpt lat="34.992912" lon="-84.949105"><ele>279.8</ele><time>2026-07-30T20:12:09Z</time></trkpt>
<trkpt lat="34.992906" lon="-84.949146"><ele>280.7</ele><time>2026-07-30T20:12:12Z</time></trkpt>
<trkpt lat="34.99292" lon="-84.949175"><ele>281.3</ele><time>2026-07-30T20:12:14Z</time></trkpt>
<trkpt lat="34.992938" lon="-84.949202"><ele>280.4</ele><time>2026-07-30T20:12:16Z</time></trkpt>
<trkpt lat="34.99297" lon="-84.949212"><ele>281.0</ele><time>2026-07-30T20:12:18Z</time></trkpt>
<trkpt lat="34.993002" lon="-84.949217"><ele>281.3</ele><time>2026-07-30T20:12:20Z</time></trkpt>
<trkpt lat="34.993042" lon="-84.949218"><ele>283.8</ele><time>2026-07-30T20:12:23Z</time></trkpt>
<trkpt lat="34.993071" lon="-84.949225"><ele>281.3</ele><time>2026-07-30T20:12:25Z</time></trkpt>
<trkpt lat="34.9931" lon="-84.949234"><ele>281.0</ele><time>2026-07-30T20:12:27Z</time></trkpt>
<trkpt lat="34.99314" lon="-84.949252"><ele>282.5</ele><time>2026-07-30T20:12:30Z</time></trkpt>
<trkpt lat="34.993178" lon="-84.949256"><ele>283.2</ele><time>2026-07-30T20:12:33Z</time></trkpt>
<trkpt lat="34.993207" lon="-84.949263"><ele>283.2</ele><time>2026-07-30T20:12:35Z</time></trkpt>
<trkpt lat="34.993236" lon="-84.94927"><ele>283.5</ele><time>2026-07-30T20:12:37Z</time></trkpt>
<trkpt lat="34.993264" lon="-84.949275"><ele>285.9</ele><time>2026-07-30T20:12:39Z</time></trkpt>
<trkpt lat="34.993295" lon="-84.949271"><ele>286.5</ele><time>2026-07-30T20:12:41Z</time></trkpt>
<trkpt lat="34.993327" lon="-84.949278"><ele>285.6</ele><time>2026-07-30T20:12:43Z</time></trkpt>
<trkpt lat="34.993355" lon="-84.94929"><ele>286.2</ele><time>2026-07-30T20:12:45Z</time></trkpt>
<trkpt lat="34.993383" lon="-84.949301"><ele>285.3</ele><time>2026-07-30T20:12:47Z</time></trkpt>
<trkpt lat="34.993424" lon="-84.949312"><ele>283.2</ele><time>2026-07-30T20:12:50Z</time></trkpt>
<trkpt lat="34.993453" lon="-84.949314"><ele>283.8</ele><time>2026-07-30T20:12:52Z</time></trkpt>
<trkpt lat="34.99348" lon="-84.949319"><ele>283.2</ele><time>2026-07-30T20:12:54Z</time></trkpt>
<trkpt lat="34.993509" lon="-84.949322"><ele>283.2</ele><time>2026-07-30T20:12:56Z</time></trkpt>
<trkpt lat="34.993537" lon="-84.949333"><ele>283.2</ele><time>2026-07-30T20:12:58Z</time></trkpt>
<trkpt lat="34.993564" lon="-84.949346"><ele>280.7</ele><time>2026-07-30T20:13:00Z</time></trkpt>
<trkpt lat="34.993592" lon="-84.949354"><ele>281.9</ele><time>2026-07-30T20:13:02Z</time></trkpt>
<trkpt lat="34.993621" lon="-84.949384"><ele>281.6</ele><time>2026-07-30T20:13:05Z</time></trkpt>
<trkpt lat="34.993646" lon="-84.949414"><ele>281.9</ele><time>2026-07-30T20:13:08Z</time></trkpt>
<trkpt lat="34.993665" lon="-84.949452"><ele>279.8</ele><time>2026-07-30T20:13:11Z</time></trkpt>
<trkpt lat="34.993694" lon="-84.949487"><ele>281.3</ele><time>2026-07-30T20:13:14Z</time></trkpt>
<trkpt lat="34.993711" lon="-84.949514"><ele>281.6</ele><time>2026-07-30T20:13:16Z</time></trkpt>
<trkpt lat="34.993724" lon="-84.949547"><ele>281.6</ele><time>2026-07-30T20:13:18Z</time></trkpt>
<trkpt lat="34.993729" lon="-84.949596"><ele>283.2</ele><time>2026-07-30T20:13:21Z</time></trkpt>
<trkpt lat="34.993734" lon="-84.949629"><ele>284.4</ele><time>2026-07-30T20:13:23Z</time></trkpt>
<trkpt lat="34.993726" lon="-84.949676"><ele>284.7</ele><time>2026-07-30T20:13:26Z</time></trkpt>
<trkpt lat="34.993719" lon="-84.949709"><ele>283.5</ele><time>2026-07-30T20:13:28Z</time></trkpt>
<trkpt lat="34.993707" lon="-84.94974"><ele>281.3</ele><time>2026-07-30T20:13:30Z</time></trkpt>
<trkpt lat="34.993688" lon="-84.949782"><ele>283.2</ele><time>2026-07-30T20:13:33Z</time></trkpt>
<trkpt lat="34.993673" lon="-84.949827"><ele>283.8</ele><time>2026-07-30T20:13:36Z</time></trkpt>
<trkpt lat="34.993659" lon="-84.949858"><ele>284.7</ele><time>2026-07-30T20:13:38Z</time></trkpt>
<trkpt lat="34.993649" lon="-84.949889"><ele>283.8</ele><time>2026-07-30T20:13:40Z</time></trkpt>
<trkpt lat="34.99364" lon="-84.949922"><ele>283.8</ele><time>2026-07-30T20:13:42Z</time></trkpt>
<trkpt lat="34.993622" lon="-84.949954"><ele>282.5</ele><time>2026-07-30T20:13:44Z</time></trkpt>
<trkpt lat="34.993609" lon="-84.949988"><ele>283.2</ele><time>2026-07-30T20:13:46Z</time></trkpt>
<trkpt lat="34.993586" lon="-84.950015"><ele>283.2</ele><time>2026-07-30T20:13:48Z</time></trkpt>
<trkpt lat="34.993558" lon="-84.950028"><ele>283.2</ele><time>2026-07-30T20:13:50Z</time></trkpt>
<trkpt lat="34.993533" lon="-84.950052"><ele>283.5</ele><time>2026-07-30T20:13:52Z</time></trkpt>
<trkpt lat="34.993509" lon="-84.950076"><ele>283.2</ele><time>2026-07-30T20:13:54Z</time></trkpt>
<trkpt lat="34.993491" lon="-84.950107"><ele>281.9</ele><time>2026-07-30T20:13:56Z</time></trkpt>
<trkpt lat="34.993469" lon="-84.950132"><ele>282.2</ele><time>2026-07-30T20:13:58Z</time></trkpt>
<trkpt lat="34.993449" lon="-84.950159"><ele>280.4</ele><time>2026-07-30T20:14:00Z</time></trkpt>
<trkpt lat="34.993432" lon="-84.950187"><ele>280.7</ele><time>2026-07-30T20:14:02Z</time></trkpt>
<trkpt lat="34.993412" lon="-84.95022"><ele>282.2</ele><time>2026-07-30T20:14:04Z</time></trkpt>
<trkpt lat="34.993391" lon="-84.950247"><ele>283.5</ele><time>2026-07-30T20:14:06Z</time></trkpt>
<trkpt lat="34.993374" lon="-84.950274"><ele>281.0</ele><time>2026-07-30T20:14:08Z</time></trkpt>
<trkpt lat="34.993353" lon="-84.950299"><ele>282.5</ele><time>2026-07-30T20:14:10Z</time></trkpt>
<trkpt lat="34.993327" lon="-84.950315"><ele>282.9</ele><time>2026-07-30T20:14:12Z</time></trkpt>
<trkpt lat="34.993296" lon="-84.95035"><ele>285.0</ele><time>2026-07-30T20:14:15Z</time></trkpt>
<trkpt lat="34.993276" lon="-84.950375"><ele>285.6</ele><time>2026-07-30T20:14:17Z</time></trkpt>
<trkpt lat="34.993245" lon="-84.950406"><ele>286.2</ele><time>2026-07-30T20:14:20Z</time></trkpt>
<trkpt lat="34.993221" lon="-84.950426"><ele>286.5</ele><time>2026-07-30T20:14:22Z</time></trkpt>
<trkpt lat="34.993198" lon="-84.95045"><ele>286.5</ele><time>2026-07-30T20:14:24Z</time></trkpt>
<trkpt lat="34.993181" lon="-84.950481"><ele>285.9</ele><time>2026-07-30T20:14:26Z</time></trkpt>
<trkpt lat="34.993173" lon="-84.950515"><ele>287.7</ele><time>2026-07-30T20:14:28Z</time></trkpt>
<trkpt lat="34.993164" lon="-84.950548"><ele>289.0</ele><time>2026-07-30T20:14:30Z</time></trkpt>
<trkpt lat="34.993155" lon="-84.95058"><ele>290.5</ele><time>2026-07-30T20:14:32Z</time></trkpt>
<trkpt lat="34.99314" lon="-84.950613"><ele>290.8</ele><time>2026-07-30T20:14:34Z</time></trkpt>
<trkpt lat="34.993121" lon="-84.950639"><ele>292.3</ele><time>2026-07-30T20:14:36Z</time></trkpt>
<trkpt lat="34.993096" lon="-84.950679"><ele>292.6</ele><time>2026-07-30T20:14:39Z</time></trkpt>
<trkpt lat="34.993076" lon="-84.950723"><ele>289.6</ele><time>2026-07-30T20:14:42Z</time></trkpt>
<trkpt lat="34.993059" lon="-84.950751"><ele>288.6</ele><time>2026-07-30T20:14:44Z</time></trkpt>
<trkpt lat="34.993038" lon="-84.950774"><ele>289.3</ele><time>2026-07-30T20:14:46Z</time></trkpt>
<trkpt lat="34.993019" lon="-84.9508"><ele>288.6</ele><time>2026-07-30T20:14:48Z</time></trkpt>
<trkpt lat="34.992997" lon="-84.950826"><ele>289.0</ele><time>2026-07-30T20:14:50Z</time></trkpt>
<trkpt lat="34.992979" lon="-84.950869"><ele>289.6</ele><time>2026-07-30T20:14:53Z</time></trkpt>
<trkpt lat="34.992965" lon="-84.950902"><ele>290.5</ele><time>2026-07-30T20:14:55Z</time></trkpt>
<trkpt lat="34.992952" lon="-84.950932"><ele>292.9</ele><time>2026-07-30T20:14:57Z</time></trkpt>
<trkpt lat="34.992938" lon="-84.950977"><ele>292.9</ele><time>2026-07-30T20:15:00Z</time></trkpt>
<trkpt lat="34.992929" lon="-84.951009"><ele>291.4</ele><time>2026-07-30T20:15:02Z</time></trkpt>
<trkpt lat="34.992932" lon="-84.951051"><ele>289.9</ele><time>2026-07-30T20:15:04Z</time></trkpt>
<trkpt lat="34.992941" lon="-84.951089"><ele>290.5</ele><time>2026-07-30T20:15:06Z</time></trkpt>
<trkpt lat="34.992948" lon="-84.951131"><ele>290.8</ele><time>2026-07-30T20:15:08Z</time></trkpt>
<trkpt lat="34.992944" lon="-84.951172"><ele>290.8</ele><time>2026-07-30T20:15:10Z</time></trkpt>
<trkpt lat="34.992944" lon="-84.951209"><ele>292.0</ele><time>2026-07-30T20:15:12Z</time></trkpt>
<trkpt lat="34.992941" lon="-84.951245"><ele>294.4</ele><time>2026-07-30T20:15:14Z</time></trkpt>
<trkpt lat="34.99293" lon="-84.951281"><ele>295.4</ele><time>2026-07-30T20:15:16Z</time></trkpt>
<trkpt lat="34.992937" lon="-84.951321"><ele>293.8</ele><time>2026-07-30T20:15:18Z</time></trkpt>
<trkpt lat="34.992945" lon="-84.951357"><ele>293.8</ele><time>2026-07-30T20:15:20Z</time></trkpt>
<trkpt lat="34.992942" lon="-84.951392"><ele>294.4</ele><time>2026-07-30T20:15:22Z</time></trkpt>
<trkpt lat="34.992937" lon="-84.951438"><ele>296.3</ele><time>2026-07-30T20:15:25Z</time></trkpt>
<trkpt lat="34.992942" lon="-84.951485"><ele>295.0</ele><time>2026-07-30T20:15:28Z</time></trkpt>
<trkpt lat="34.992933" lon="-84.951529"><ele>294.1</ele><time>2026-07-30T20:15:31Z</time></trkpt>
<trkpt lat="34.99291" lon="-84.951566"><ele>293.2</ele><time>2026-07-30T20:15:34Z</time></trkpt>
<trkpt lat="34.99288" lon="-84.951594"><ele>292.9</ele><time>2026-07-30T20:15:37Z</time></trkpt>
<trkpt lat="34.992854" lon="-84.951628"><ele>292.9</ele><time>2026-07-30T20:15:40Z</time></trkpt>
<trkpt lat="34.992843" lon="-84.951659"><ele>294.7</ele><time>2026-07-30T20:15:42Z</time></trkpt>
<trkpt lat="34.992841" lon="-84.951693"><ele>296.0</ele><time>2026-07-30T20:15:44Z</time></trkpt>
<trkpt lat="34.992837" lon="-84.951727"><ele>293.5</ele><time>2026-07-30T20:15:46Z</time></trkpt>
<trkpt lat="34.992836" lon="-84.951762"><ele>294.4</ele><time>2026-07-30T20:15:48Z</time></trkpt>
<trkpt lat="34.992841" lon="-84.951798"><ele>295.4</ele><time>2026-07-30T20:15:50Z</time></trkpt>
<trkpt lat="34.99284" lon="-84.951832"><ele>294.7</ele><time>2026-07-30T20:15:52Z</time></trkpt>
<trkpt lat="34.992838" lon="-84.951867"><ele>293.8</ele><time>2026-07-30T20:15:54Z</time></trkpt>
<trkpt lat="34.992846" lon="-84.951904"><ele>294.1</ele><time>2026-07-30T20:15:56Z</time></trkpt>
<trkpt lat="34.992849" lon="-84.951937"><ele>295.7</ele><time>2026-07-30T20:15:58Z</time></trkpt>
<trkpt lat="34.992845" lon="-84.951976"><ele>295.7</ele><time>2026-07-30T20:16:00Z</time></trkpt>
<trkpt lat="34.992848" lon="-84.952019"><ele>296.6</ele><time>2026-07-30T20:16:02Z</time></trkpt>
<trkpt lat="34.992852" lon="-84.952058"><ele>296.3</ele><time>2026-07-30T20:16:04Z</time></trkpt>
<trkpt lat="34.99285" lon="-84.952093"><ele>295.7</ele><time>2026-07-30T20:16:06Z</time></trkpt>
<trkpt lat="34.99285" lon="-84.952138"><ele>296.3</ele><time>2026-07-30T20:16:09Z</time></trkpt>
<trkpt lat="34.992848" lon="-84.952189"><ele>297.2</ele><time>2026-07-30T20:16:12Z</time></trkpt>
<trkpt lat="34.992855" lon="-84.952225"><ele>298.7</ele><time>2026-07-30T20:16:14Z</time></trkpt>
<trkpt lat="34.992866" lon="-84.952258"><ele>299.3</ele><time>2026-07-30T20:16:16Z</time></trkpt>
<trkpt lat="34.992882" lon="-84.952289"><ele>298.1</ele><time>2026-07-30T20:16:18Z</time></trkpt>
<trkpt lat="34.992909" lon="-84.952306"><ele>299.0</ele><time>2026-07-30T20:16:20Z</time></trkpt>
<trkpt lat="34.992938" lon="-84.952307"><ele>299.0</ele><time>2026-07-30T20:16:22Z</time></trkpt>
<trkpt lat="34.992968" lon="-84.952305"><ele>299.3</ele><time>2026-07-30T20:16:24Z</time></trkpt>
<trkpt lat="34.993007" lon="-84.952301"><ele>300.2</ele><time>2026-07-30T20:16:27Z</time></trkpt>
<trkpt lat="34.993043" lon="-84.952307"><ele>300.2</ele><time>2026-07-30T20:16:30Z</time></trkpt>
<trkpt lat="34.993068" lon="-84.95233"><ele>299.6</ele><time>2026-07-30T20:16:33Z</time></trkpt>
<trkpt lat="34.993093" lon="-84.952357"><ele>301.4</ele><time>2026-07-30T20:16:36Z</time></trkpt>
<trkpt lat="34.99312" lon="-84.952387"><ele>301.1</ele><time>2026-07-30T20:16:39Z</time></trkpt>
<trkpt lat="34.993141" lon="-84.952411"><ele>301.1</ele><time>2026-07-30T20:16:41Z</time></trkpt>
<trkpt lat="34.993174" lon="-84.952432"><ele>304.2</ele><time>2026-07-30T20:16:44Z</time></trkpt>
<trkpt lat="34.993199" lon="-84.952447"><ele>306.0</ele><time>2026-07-30T20:16:46Z</time></trkpt>
<trkpt lat="34.993231" lon="-84.95245"><ele>305.7</ele><time>2026-07-30T20:16:48Z</time></trkpt>
<trkpt lat="34.993271" lon="-84.952434"><ele>305.7</ele><time>2026-07-30T20:16:51Z</time></trkpt>
<trkpt lat="34.993299" lon="-84.952423"><ele>304.8</ele><time>2026-07-30T20:16:53Z</time></trkpt>
<trkpt lat="34.993328" lon="-84.952432"><ele>305.1</ele><time>2026-07-30T20:16:55Z</time></trkpt>
<trkpt lat="34.993353" lon="-84.952416"><ele>303.6</ele><time>2026-07-30T20:16:57Z</time></trkpt>
<trkpt lat="34.993382" lon="-84.952386"><ele>304.5</ele><time>2026-07-30T20:17:00Z</time></trkpt>
<trkpt lat="34.993407" lon="-84.952351"><ele>305.4</ele><time>2026-07-30T20:17:03Z</time></trkpt>
<trkpt lat="34.993436" lon="-84.952323"><ele>306.0</ele><time>2026-07-30T20:17:06Z</time></trkpt>
<trkpt lat="34.993468" lon="-84.952304"><ele>307.8</ele><time>2026-07-30T20:17:09Z</time></trkpt>
<trkpt lat="34.993503" lon="-84.952292"><ele>310.3</ele><time>2026-07-30T20:17:12Z</time></trkpt>
<trkpt lat="34.993541" lon="-84.952287"><ele>311.2</ele><time>2026-07-30T20:17:15Z</time></trkpt>
<trkpt lat="34.993572" lon="-84.952292"><ele>310.6</ele><time>2026-07-30T20:17:17Z</time></trkpt>
<trkpt lat="34.993599" lon="-84.952298"><ele>309.4</ele><time>2026-07-30T20:17:19Z</time></trkpt>
<trkpt lat="34.993639" lon="-84.952305"><ele>308.2</ele><time>2026-07-30T20:17:22Z</time></trkpt>
<trkpt lat="34.993666" lon="-84.952318"><ele>308.8</ele><time>2026-07-30T20:17:24Z</time></trkpt>
<trkpt lat="34.99369" lon="-84.952337"><ele>308.8</ele><time>2026-07-30T20:17:26Z</time></trkpt>
<trkpt lat="34.993722" lon="-84.952359"><ele>308.8</ele><time>2026-07-30T20:17:29Z</time></trkpt>
<trkpt lat="34.993751" lon="-84.952392"><ele>308.5</ele><time>2026-07-30T20:17:32Z</time></trkpt>
<trkpt lat="34.993769" lon="-84.952421"><ele>308.8</ele><time>2026-07-30T20:17:34Z</time></trkpt>
<trkpt lat="34.993791" lon="-84.952445"><ele>309.1</ele><time>2026-07-30T20:17:36Z</time></trkpt>
<trkpt lat="34.993823" lon="-84.952479"><ele>308.2</ele><time>2026-07-30T20:17:39Z</time></trkpt>
<trkpt lat="34.993846" lon="-84.952498"><ele>307.8</ele><time>2026-07-30T20:17:41Z</time></trkpt>
<trkpt lat="34.993872" lon="-84.952515"><ele>309.1</ele><time>2026-07-30T20:17:43Z</time></trkpt>
<trkpt lat="34.993896" lon="-84.952534"><ele>309.7</ele><time>2026-07-30T20:17:45Z</time></trkpt>
<trkpt lat="34.993918" lon="-84.952566"><ele>309.1</ele><time>2026-07-30T20:17:47Z</time></trkpt>
<trkpt lat="34.993929" lon="-84.952603"><ele>307.8</ele><time>2026-07-30T20:17:49Z</time></trkpt>
<trkpt lat="34.993931" lon="-84.952641"><ele>307.5</ele><time>2026-07-30T20:17:51Z</time></trkpt>
<trkpt lat="34.99393" lon="-84.95268"><ele>308.5</ele><time>2026-07-30T20:17:53Z</time></trkpt>
<trkpt lat="34.993924" lon="-84.952721"><ele>311.5</ele><time>2026-07-30T20:17:55Z</time></trkpt>
<trkpt lat="34.993922" lon="-84.952758"><ele>313.6</ele><time>2026-07-30T20:17:57Z</time></trkpt>
<trkpt lat="34.993925" lon="-84.952802"><ele>314.9</ele><time>2026-07-30T20:18:00Z</time></trkpt>
<trkpt lat="34.99393" lon="-84.952835"><ele>314.9</ele><time>2026-07-30T20:18:02Z</time></trkpt>
<trkpt lat="34.993935" lon="-84.952882"><ele>314.9</ele><time>2026-07-30T20:18:05Z</time></trkpt>
<trkpt lat="34.993934" lon="-84.952919"><ele>314.9</ele><time>2026-07-30T20:18:07Z</time></trkpt>
<trkpt lat="34.993929" lon="-84.952954"><ele>314.6</ele><time>2026-07-30T20:18:09Z</time></trkpt>
<trkpt lat="34.993928" lon="-84.952989"><ele>314.9</ele><time>2026-07-30T20:18:11Z</time></trkpt>
<trkpt lat="34.993919" lon="-84.953036"><ele>314.6</ele><time>2026-07-30T20:18:14Z</time></trkpt>
<trkpt lat="34.993896" lon="-84.953077"><ele>313.6</ele><time>2026-07-30T20:18:17Z</time></trkpt>
<trkpt lat="34.993865" lon="-84.9531"><ele>311.8</ele><time>2026-07-30T20:18:19Z</time></trkpt>
<trkpt lat="34.993841" lon="-84.953127"><ele>312.4</ele><time>2026-07-30T20:18:21Z</time></trkpt>
<trkpt lat="34.993824" lon="-84.953154"><ele>312.7</ele><time>2026-07-30T20:18:23Z</time></trkpt>
<trkpt lat="34.993806" lon="-84.953198"><ele>312.1</ele><time>2026-07-30T20:18:26Z</time></trkpt>
<trkpt lat="34.993801" lon="-84.953231"><ele>311.8</ele><time>2026-07-30T20:18:28Z</time></trkpt>
<trkpt lat="34.993795" lon="-84.953266"><ele>309.1</ele><time>2026-07-30T20:18:30Z</time></trkpt>
<trkpt lat="34.99378" lon="-84.953298"><ele>310.0</ele><time>2026-07-30T20:18:32Z</time></trkpt>
<trkpt lat="34.993766" lon="-84.953344"><ele>310.9</ele><time>2026-07-30T20:18:35Z</time></trkpt>
<trkpt lat="34.993749" lon="-84.953371"><ele>310.6</ele><time>2026-07-30T20:18:37Z</time></trkpt>
<trkpt lat="34.99373" lon="-84.953397"><ele>310.0</ele><time>2026-07-30T20:18:39Z</time></trkpt>
<trkpt lat="34.993713" lon="-84.953425"><ele>311.8</ele><time>2026-07-30T20:18:41Z</time></trkpt>
<trkpt lat="34.993699" lon="-84.953458"><ele>312.7</ele><time>2026-07-30T20:18:43Z</time></trkpt>
<trkpt lat="34.993687" lon="-84.953489"><ele>312.7</ele><time>2026-07-30T20:18:45Z</time></trkpt>
<trkpt lat="34.993674" lon="-84.95352"><ele>313.6</ele><time>2026-07-30T20:18:47Z</time></trkpt>
<trkpt lat="34.99366" lon="-84.953551"><ele>313.9</ele><time>2026-07-30T20:18:49Z</time></trkpt>
<trkpt lat="34.993646" lon="-84.95358"><ele>313.3</ele><time>2026-07-30T20:18:51Z</time></trkpt>
<trkpt lat="34.993633" lon="-84.953614"><ele>313.0</ele><time>2026-07-30T20:18:53Z</time></trkpt>
<trkpt lat="34.99362" lon="-84.953645"><ele>311.8</ele><time>2026-07-30T20:18:55Z</time></trkpt>
<trkpt lat="34.993605" lon="-84.953675"><ele>310.6</ele><time>2026-07-30T20:18:57Z</time></trkpt>
<trkpt lat="34.993589" lon="-84.953702"><ele>310.9</ele><time>2026-07-30T20:18:59Z</time></trkpt>
<trkpt lat="34.993574" lon="-84.953732"><ele>311.2</ele><time>2026-07-30T20:19:01Z</time></trkpt>
<trkpt lat="34.993561" lon="-84.953764"><ele>308.8</ele><time>2026-07-30T20:19:03Z</time></trkpt>
<trkpt lat="34.993546" lon="-84.953798"><ele>309.4</ele><time>2026-07-30T20:19:05Z</time></trkpt>
<trkpt lat="34.993532" lon="-84.953845"><ele>309.7</ele><time>2026-07-30T20:19:08Z</time></trkpt>
<trkpt lat="34.993512" lon="-84.95389"><ele>310.9</ele><time>2026-07-30T20:19:11Z</time></trkpt>
<trkpt lat="34.993494" lon="-84.95392"><ele>310.0</ele><time>2026-07-30T20:19:13Z</time></trkpt>
<trkpt lat="34.993473" lon="-84.953947"><ele>309.7</ele><time>2026-07-30T20:19:15Z</time></trkpt>
<trkpt lat="34.993454" lon="-84.953974"><ele>309.7</ele><time>2026-07-30T20:19:17Z</time></trkpt>
<trkpt lat="34.993437" lon="-84.954004"><ele>309.1</ele><time>2026-07-30T20:19:19Z</time></trkpt>
<trkpt lat="34.993415" lon="-84.954028"><ele>309.1</ele><time>2026-07-30T20:19:21Z</time></trkpt>
<trkpt lat="34.993388" lon="-84.954051"><ele>309.4</ele><time>2026-07-30T20:19:23Z</time></trkpt>
<trkpt lat="34.993365" lon="-84.954075"><ele>310.6</ele><time>2026-07-30T20:19:25Z</time></trkpt>
<trkpt lat="34.993341" lon="-84.954099"><ele>311.5</ele><time>2026-07-30T20:19:27Z</time></trkpt>
<trkpt lat="34.993312" lon="-84.954115"><ele>313.0</ele><time>2026-07-30T20:19:29Z</time></trkpt>
<trkpt lat="34.99328" lon="-84.954121"><ele>311.2</ele><time>2026-07-30T20:19:31Z</time></trkpt>
<trkpt lat="34.993251" lon="-84.954132"><ele>311.8</ele><time>2026-07-30T20:19:33Z</time></trkpt>
<trkpt lat="34.993221" lon="-84.954135"><ele>312.1</ele><time>2026-07-30T20:19:35Z</time></trkpt>
<trkpt lat="34.99318" lon="-84.954133"><ele>312.4</ele><time>2026-07-30T20:19:38Z</time></trkpt>
<trkpt lat="34.993152" lon="-84.954124"><ele>313.3</ele><time>2026-07-30T20:19:40Z</time></trkpt>
<trkpt lat="34.993124" lon="-84.954124"><ele>312.1</ele><time>2026-07-30T20:19:42Z</time></trkpt>
<trkpt lat="34.993094" lon="-84.954117"><ele>312.1</ele><time>2026-07-30T20:19:44Z</time></trkpt>
<trkpt lat="34.993066" lon="-84.954115"><ele>310.9</ele><time>2026-07-30T20:19:46Z</time></trkpt>
<trkpt lat="34.993037" lon="-84.954116"><ele>311.5</ele><time>2026-07-30T20:19:48Z</time></trkpt>
<trkpt lat="34.993007" lon="-84.954125"><ele>312.1</ele><time>2026-07-30T20:19:50Z</time></trkpt>
<trkpt lat="34.992977" lon="-84.954115"><ele>313.3</ele><time>2026-07-30T20:19:52Z</time></trkpt>
<trkpt lat="34.992948" lon="-84.954107"><ele>313.0</ele><time>2026-07-30T20:19:54Z</time></trkpt>
<trkpt lat="34.992921" lon="-84.954107"><ele>314.2</ele><time>2026-07-30T20:19:56Z</time></trkpt>
<trkpt lat="34.99289" lon="-84.954096"><ele>312.4</ele><time>2026-07-30T20:19:58Z</time></trkpt>
<trkpt lat="34.992858" lon="-84.954095"><ele>312.7</ele><time>2026-07-30T20:20:00Z</time></trkpt>
<trkpt lat="34.992829" lon="-84.954088"><ele>312.7</ele><time>2026-07-30T20:20:02Z</time></trkpt>
<trkpt lat="34.992797" lon="-84.954083"><ele>312.1</ele><time>2026-07-30T20:20:04Z</time></trkpt>
<trkpt lat="34.992767" lon="-84.954083"><ele>311.2</ele><time>2026-07-30T20:20:06Z</time></trkpt>
<trkpt lat="34.992736" lon="-84.954084"><ele>311.5</ele><time>2026-07-30T20:20:08Z</time></trkpt>
<trkpt lat="34.992704" lon="-84.954081"><ele>312.4</ele><time>2026-07-30T20:20:10Z</time></trkpt>
<trkpt lat="34.992673" lon="-84.954081"><ele>311.8</ele><time>2026-07-30T20:20:12Z</time></trkpt>
<trkpt lat="34.992643" lon="-84.954079"><ele>312.7</ele><time>2026-07-30T20:20:14Z</time></trkpt>
<trkpt lat="34.992602" lon="-84.954081"><ele>312.4</ele><time>2026-07-30T20:20:17Z</time></trkpt>
<trkpt lat="34.992562" lon="-84.954078"><ele>312.7</ele><time>2026-07-30T20:20:20Z</time></trkpt>
<trkpt lat="34.992535" lon="-84.954078"><ele>313.3</ele><time>2026-07-30T20:20:22Z</time></trkpt>
<trkpt lat="34.9925" lon="-84.954075"><ele>314.2</ele><time>2026-07-30T20:20:24Z</time></trkpt>
<trkpt lat="34.992471" lon="-84.954069"><ele>313.6</ele><time>2026-07-30T20:20:26Z</time></trkpt>
<trkpt lat="34.992441" lon="-84.95406"><ele>313.3</ele><time>2026-07-30T20:20:28Z</time></trkpt>
<trkpt lat="34.992414" lon="-84.95405"><ele>313.3</ele><time>2026-07-30T20:20:30Z</time></trkpt>
<trkpt lat="34.992376" lon="-84.954038"><ele>313.9</ele><time>2026-07-30T20:20:33Z</time></trkpt>
<trkpt lat="34.992343" lon="-84.954027"><ele>314.6</ele><time>2026-07-30T20:20:35Z</time></trkpt>
<trkpt lat="34.992314" lon="-84.954029"><ele>315.2</ele><time>2026-07-30T20:20:37Z</time></trkpt>
<trkpt lat="34.992285" lon="-84.954024"><ele>314.9</ele><time>2026-07-30T20:20:39Z</time></trkpt>
<trkpt lat="34.992254" lon="-84.954023"><ele>314.6</ele><time>2026-07-30T20:20:41Z</time></trkpt>
<trkpt lat="34.992219" lon="-84.953998"><ele>313.6</ele><time>2026-07-30T20:20:43Z</time></trkpt>
<trkpt lat="34.992186" lon="-84.954005"><ele>313.0</ele><time>2026-07-30T20:20:45Z</time></trkpt>
<trkpt lat="34.992159" lon="-84.954017"><ele>313.6</ele><time>2026-07-30T20:20:47Z</time></trkpt>
<trkpt lat="34.99213" lon="-84.954017"><ele>312.7</ele><time>2026-07-30T20:20:49Z</time></trkpt>
<trkpt lat="34.992098" lon="-84.954024"><ele>313.6</ele><time>2026-07-30T20:20:51Z</time></trkpt>
<trkpt lat="34.992063" lon="-84.954033"><ele>312.7</ele><time>2026-07-30T20:20:53Z</time></trkpt>
<trkpt lat="34.992035" lon="-84.954043"><ele>313.6</ele><time>2026-07-30T20:20:55Z</time></trkpt>
<trkpt lat="34.992008" lon="-84.954048"><ele>312.7</ele><time>2026-07-30T20:20:57Z</time></trkpt>
<trkpt lat="34.99198" lon="-84.954055"><ele>313.3</ele><time>2026-07-30T20:20:59Z</time></trkpt>
<trkpt lat="34.991953" lon="-84.954047"><ele>314.6</ele><time>2026-07-30T20:21:01Z</time></trkpt>
<trkpt lat="34.991924" lon="-84.954037"><ele>314.6</ele><time>2026-07-30T20:21:03Z</time></trkpt>
<trkpt lat="34.991892" lon="-84.954035"><ele>314.9</ele><time>2026-07-30T20:21:05Z</time></trkpt>
<trkpt lat="34.991862" lon="-84.954033"><ele>314.2</ele><time>2026-07-30T20:21:07Z</time></trkpt>
<trkpt lat="34.991822" lon="-84.954032"><ele>313.9</ele><time>2026-07-30T20:21:10Z</time></trkpt>
<trkpt lat="34.991794" lon="-84.954026"><ele>313.0</ele><time>2026-07-30T20:21:12Z</time></trkpt>
<trkpt lat="34.991765" lon="-84.95402"><ele>311.8</ele><time>2026-07-30T20:21:14Z</time></trkpt>
<trkpt lat="34.991735" lon="-84.954028"><ele>310.9</ele><time>2026-07-30T20:21:16Z</time></trkpt>
<trkpt lat="34.991703" lon="-84.954041"><ele>311.2</ele><time>2026-07-30T20:21:18Z</time></trkpt>
<trkpt lat="34.991675" lon="-84.954056"><ele>310.6</ele><time>2026-07-30T20:21:20Z</time></trkpt>
<trkpt lat="34.991641" lon="-84.954052"><ele>310.0</ele><time>2026-07-30T20:21:22Z</time></trkpt>
<trkpt lat="34.991611" lon="-84.954045"><ele>310.0</ele><time>2026-07-30T20:21:24Z</time></trkpt>
<trkpt lat="34.991583" lon="-84.954045"><ele>310.9</ele><time>2026-07-30T20:21:26Z</time></trkpt>
<trkpt lat="34.991542" lon="-84.954037"><ele>313.0</ele><time>2026-07-30T20:21:29Z</time></trkpt>
<trkpt lat="34.991501" lon="-84.954028"><ele>313.3</ele><time>2026-07-30T20:21:32Z</time></trkpt>
<trkpt lat="34.991474" lon="-84.954008"><ele>313.6</ele><time>2026-07-30T20:21:34Z</time></trkpt>
<trkpt lat="34.991448" lon="-84.953993"><ele>314.9</ele><time>2026-07-30T20:21:36Z</time></trkpt>
<trkpt lat="34.99141" lon="-84.953986"><ele>313.6</ele><time>2026-07-30T20:21:39Z</time></trkpt>
<trkpt lat="34.991377" lon="-84.953963"><ele>312.4</ele><time>2026-07-30T20:21:42Z</time></trkpt>
<trkpt lat="34.991355" lon="-84.95394"><ele>313.9</ele><time>2026-07-30T20:21:44Z</time></trkpt>
<trkpt lat="34.991326" lon="-84.95393"><ele>312.7</ele><time>2026-07-30T20:21:46Z</time></trkpt>
<trkpt lat="34.991298" lon="-84.953915"><ele>314.2</ele><time>2026-07-30T20:21:48Z</time></trkpt>
<trkpt lat="34.991267" lon="-84.953905"><ele>314.6</ele><time>2026-07-30T20:21:50Z</time></trkpt>
<trkpt lat="34.991235" lon="-84.953904"><ele>316.1</ele><time>2026-07-30T20:21:52Z</time></trkpt>
<trkpt lat="34.991204" lon="-84.953898"><ele>316.1</ele><time>2026-07-30T20:21:54Z</time></trkpt>
<trkpt lat="34.991174" lon="-84.953891"><ele>316.7</ele><time>2026-07-30T20:21:56Z</time></trkpt>
<trkpt lat="34.991141" lon="-84.953885"><ele>317.6</ele><time>2026-07-30T20:21:58Z</time></trkpt>
<trkpt lat="34.991113" lon="-84.953884"><ele>317.0</ele><time>2026-07-30T20:22:00Z</time></trkpt>
<trkpt lat="34.991071" lon="-84.953886"><ele>320.0</ele><time>2026-07-30T20:22:03Z</time></trkpt>
<trkpt lat="34.991041" lon="-84.95389"><ele>319.4</ele><time>2026-07-30T20:22:05Z</time></trkpt>
<trkpt lat="34.991003" lon="-84.953884"><ele>317.3</ele><time>2026-07-30T20:22:08Z</time></trkpt>
<trkpt lat="34.990963" lon="-84.953876"><ele>316.4</ele><time>2026-07-30T20:22:11Z</time></trkpt>
<trkpt lat="34.990935" lon="-84.953863"><ele>315.5</ele><time>2026-07-30T20:22:13Z</time></trkpt>
<trkpt lat="34.990907" lon="-84.953868"><ele>316.1</ele><time>2026-07-30T20:22:15Z</time></trkpt>
<trkpt lat="34.990876" lon="-84.953872"><ele>317.6</ele><time>2026-07-30T20:22:17Z</time></trkpt>
<trkpt lat="34.990839" lon="-84.953866"><ele>315.5</ele><time>2026-07-30T20:22:20Z</time></trkpt>
<trkpt lat="34.990808" lon="-84.95387"><ele>313.0</ele><time>2026-07-30T20:22:23Z</time></trkpt>
<trkpt lat="34.990771" lon="-84.953856"><ele>311.5</ele><time>2026-07-30T20:22:27Z</time></trkpt>
<trkpt lat="34.990734" lon="-84.95385"><ele>311.2</ele><time>2026-07-30T20:22:30Z</time></trkpt>
<trkpt lat="34.99069" lon="-84.953843"><ele>312.1</ele><time>2026-07-30T20:22:33Z</time></trkpt>
<trkpt lat="34.990662" lon="-84.953841"><ele>313.3</ele><time>2026-07-30T20:22:35Z</time></trkpt>
<trkpt lat="34.990637" lon="-84.953823"><ele>313.9</ele><time>2026-07-30T20:22:37Z</time></trkpt>
<trkpt lat="34.990612" lon="-84.953808"><ele>314.6</ele><time>2026-07-30T20:22:39Z</time></trkpt>
<trkpt lat="34.99059" lon="-84.953782"><ele>314.2</ele><time>2026-07-30T20:22:41Z</time></trkpt>
<trkpt lat="34.99056" lon="-84.953763"><ele>314.2</ele><time>2026-07-30T20:22:43Z</time></trkpt>
<trkpt lat="34.990532" lon="-84.95376"><ele>315.2</ele><time>2026-07-30T20:22:45Z</time></trkpt>
<trkpt lat="34.990502" lon="-84.953761"><ele>316.4</ele><time>2026-07-30T20:22:47Z</time></trkpt>
<trkpt lat="34.990468" lon="-84.953766"><ele>316.4</ele><time>2026-07-30T20:22:49Z</time></trkpt>
<trkpt lat="34.990437" lon="-84.953766"><ele>316.4</ele><time>2026-07-30T20:22:51Z</time></trkpt>
<trkpt lat="34.99041" lon="-84.953762"><ele>317.0</ele><time>2026-07-30T20:22:53Z</time></trkpt>
<trkpt lat="34.990382" lon="-84.953758"><ele>317.3</ele><time>2026-07-30T20:22:55Z</time></trkpt>
<trkpt lat="34.990352" lon="-84.953763"><ele>318.8</ele><time>2026-07-30T20:22:57Z</time></trkpt>
<trkpt lat="34.990322" lon="-84.953764"><ele>319.1</ele><time>2026-07-30T20:22:59Z</time></trkpt>
<trkpt lat="34.990292" lon="-84.953768"><ele>317.3</ele><time>2026-07-30T20:23:01Z</time></trkpt>
<trkpt lat="34.990269" lon="-84.95373"><ele>318.2</ele><time>2026-07-30T20:23:04Z</time></trkpt>
<trkpt lat="34.990297" lon="-84.95372"><ele>319.7</ele><time>2026-07-30T20:23:05Z</time></trkpt>
<trkpt lat="34.990328" lon="-84.953722"><ele>322.2</ele><time>2026-07-30T20:23:07Z</time></trkpt>
<trkpt lat="34.990295" lon="-84.9537"><ele>318.8</ele><time>2026-07-30T20:23:09Z</time></trkpt>
<trkpt lat="34.990268" lon="-84.953684"><ele>318.2</ele><time>2026-07-30T20:23:10Z</time></trkpt>
<trkpt lat="34.990243" lon="-84.953667"><ele>318.8</ele><time>2026-07-30T20:23:12Z</time></trkpt>
<trkpt lat="34.990238" lon="-84.953633"><ele>318.8</ele><time>2026-07-30T20:23:16Z</time></trkpt>
<trkpt lat="34.990224" lon="-84.953601"><ele>314.9</ele><time>2026-07-30T20:23:21Z</time></trkpt>
<trkpt lat="34.99021" lon="-84.953566"><ele>309.7</ele><time>2026-07-30T20:23:28Z</time></trkpt>
<trkpt lat="34.990205" lon="-84.953533"><ele>311.5</ele><time>2026-07-30T20:23:33Z</time></trkpt>
<trkpt lat="34.990189" lon="-84.953505"><ele>312.7</ele><time>2026-07-30T20:23:40Z</time></trkpt>
<trkpt lat="34.990194" lon="-84.953469"><ele>307.8</ele><time>2026-07-30T20:23:46Z</time></trkpt>
<trkpt lat="34.990227" lon="-84.953446"><ele>306.6</ele><time>2026-07-30T20:23:49Z</time></trkpt>
<trkpt lat="34.990258" lon="-84.953447"><ele>298.1</ele><time>2026-07-30T20:23:51Z</time></trkpt>
<trkpt lat="34.990306" lon="-84.953465"><ele>297.8</ele><time>2026-07-30T20:23:53Z</time></trkpt>
<trkpt lat="34.990332" lon="-84.953483"><ele>296.3</ele><time>2026-07-30T20:23:54Z</time></trkpt>
<trkpt lat="34.990357" lon="-84.9535"><ele>295.7</ele><time>2026-07-30T20:23:55Z</time></trkpt>
<trkpt lat="34.990408" lon="-84.95351"><ele>295.0</ele><time>2026-07-30T20:23:57Z</time></trkpt>
<trkpt lat="34.990456" lon="-84.953528"><ele>296.0</ele><time>2026-07-30T20:23:59Z</time></trkpt>
<trkpt lat="34.990487" lon="-84.953538"><ele>296.6</ele><time>2026-07-30T20:24:00Z</time></trkpt>
<trkpt lat="34.990516" lon="-84.953544"><ele>296.3</ele><time>2026-07-30T20:24:01Z</time></trkpt>
<trkpt lat="34.990565" lon="-84.953566"><ele>292.3</ele><time>2026-07-30T20:24:03Z</time></trkpt>
<trkpt lat="34.990589" lon="-84.953584"><ele>291.1</ele><time>2026-07-30T20:24:04Z</time></trkpt>
<trkpt lat="34.990636" lon="-84.95361"><ele>292.0</ele><time>2026-07-30T20:24:06Z</time></trkpt>
<trkpt lat="34.990682" lon="-84.95364"><ele>295.0</ele><time>2026-07-30T20:24:08Z</time></trkpt>
<trkpt lat="34.990731" lon="-84.953666"><ele>294.1</ele><time>2026-07-30T20:24:10Z</time></trkpt>
<trkpt lat="34.990759" lon="-84.95368"><ele>295.7</ele><time>2026-07-30T20:24:11Z</time></trkpt>
<trkpt lat="34.990788" lon="-84.953698"><ele>293.8</ele><time>2026-07-30T20:24:12Z</time></trkpt>
<trkpt lat="34.990819" lon="-84.953714"><ele>293.8</ele><time>2026-07-30T20:24:13Z</time></trkpt>
<trkpt lat="34.990849" lon="-84.953726"><ele>294.1</ele><time>2026-07-30T20:24:14Z</time></trkpt>
<trkpt lat="34.990879" lon="-84.953736"><ele>294.7</ele><time>2026-07-30T20:24:15Z</time></trkpt>
<trkpt lat="34.990909" lon="-84.953748"><ele>296.0</ele><time>2026-07-30T20:24:16Z</time></trkpt>
<trkpt lat="34.99094" lon="-84.953761"><ele>296.9</ele><time>2026-07-30T20:24:17Z</time></trkpt>
<trkpt lat="34.990979" lon="-84.953775"><ele>297.8</ele><time>2026-07-30T20:24:18Z</time></trkpt>
<trkpt lat="34.991021" lon="-84.953793"><ele>297.8</ele><time>2026-07-30T20:24:19Z</time></trkpt>
<trkpt lat="34.991061" lon="-84.953812"><ele>299.3</ele><time>2026-07-30T20:24:20Z</time></trkpt>
<trkpt lat="34.991105" lon="-84.953842"><ele>297.2</ele><time>2026-07-30T20:24:21Z</time></trkpt>
<trkpt lat="34.991149" lon="-84.953868"><ele>299.0</ele><time>2026-07-30T20:24:22Z</time></trkpt>
<trkpt lat="34.991196" lon="-84.953888"><ele>300.2</ele><time>2026-07-30T20:24:23Z</time></trkpt>
<trkpt lat="34.991237" lon="-84.95391"><ele>301.4</ele><time>2026-07-30T20:24:24Z</time></trkpt>
<trkpt lat="34.991289" lon="-84.953928"><ele>302.1</ele><time>2026-07-30T20:24:25Z</time></trkpt>
<trkpt lat="34.991334" lon="-84.953936"><ele>308.8</ele><time>2026-07-30T20:24:26Z</time></trkpt>
<trkpt lat="34.991388" lon="-84.953965"><ele>306.3</ele><time>2026-07-30T20:24:27Z</time></trkpt>
<trkpt lat="34.991432" lon="-84.953988"><ele>309.1</ele><time>2026-07-30T20:24:28Z</time></trkpt>
<trkpt lat="34.991469" lon="-84.954018"><ele>310.6</ele><time>2026-07-30T20:24:29Z</time></trkpt>
<trkpt lat="34.991505" lon="-84.954035"><ele>308.8</ele><time>2026-07-30T20:24:30Z</time></trkpt>
<trkpt lat="34.99154" lon="-84.954046"><ele>309.1</ele><time>2026-07-30T20:24:31Z</time></trkpt>
<trkpt lat="34.991574" lon="-84.954058"><ele>309.7</ele><time>2026-07-30T20:24:32Z</time></trkpt>
<trkpt lat="34.991603" lon="-84.954064"><ele>310.6</ele><time>2026-07-30T20:24:33Z</time></trkpt>
<trkpt lat="34.991633" lon="-84.954069"><ele>310.0</ele><time>2026-07-30T20:24:34Z</time></trkpt>
<trkpt lat="34.991663" lon="-84.954066"><ele>310.0</ele><time>2026-07-30T20:24:35Z</time></trkpt>
<trkpt lat="34.991706" lon="-84.95406"><ele>312.1</ele><time>2026-07-30T20:24:37Z</time></trkpt>
<trkpt lat="34.991747" lon="-84.954053"><ele>312.7</ele><time>2026-07-30T20:24:39Z</time></trkpt>
<trkpt lat="34.991786" lon="-84.954059"><ele>312.1</ele><time>2026-07-30T20:24:41Z</time></trkpt>
<trkpt lat="34.991834" lon="-84.954069"><ele>310.9</ele><time>2026-07-30T20:24:43Z</time></trkpt>
<trkpt lat="34.991877" lon="-84.954076"><ele>310.3</ele><time>2026-07-30T20:24:45Z</time></trkpt>
<trkpt lat="34.991905" lon="-84.954088"><ele>308.8</ele><time>2026-07-30T20:24:47Z</time></trkpt>
<trkpt lat="34.99194" lon="-84.954101"><ele>307.8</ele><time>2026-07-30T20:24:49Z</time></trkpt>
<trkpt lat="34.991977" lon="-84.954088"><ele>308.8</ele><time>2026-07-30T20:24:52Z</time></trkpt>
<trkpt lat="34.992014" lon="-84.954088"><ele>308.2</ele><time>2026-07-30T20:24:55Z</time></trkpt>
<trkpt lat="34.992048" lon="-84.954097"><ele>309.7</ele><time>2026-07-30T20:24:57Z</time></trkpt>
<trkpt lat="34.992082" lon="-84.954085"><ele>310.9</ele><time>2026-07-30T20:24:59Z</time></trkpt>
<trkpt lat="34.992111" lon="-84.954076"><ele>312.4</ele><time>2026-07-30T20:25:01Z</time></trkpt>
<trkpt lat="34.992145" lon="-84.954066"><ele>312.4</ele><time>2026-07-30T20:25:03Z</time></trkpt>
<trkpt lat="34.992176" lon="-84.954064"><ele>313.0</ele><time>2026-07-30T20:25:05Z</time></trkpt>
<trkpt lat="34.992211" lon="-84.95406"><ele>312.1</ele><time>2026-07-30T20:25:07Z</time></trkpt>
<trkpt lat="34.992246" lon="-84.954057"><ele>312.4</ele><time>2026-07-30T20:25:09Z</time></trkpt>
<trkpt lat="34.992278" lon="-84.954055"><ele>313.6</ele><time>2026-07-30T20:25:11Z</time></trkpt>
<trkpt lat="34.99231" lon="-84.954054"><ele>315.5</ele><time>2026-07-30T20:25:13Z</time></trkpt>
<trkpt lat="34.992343" lon="-84.954057"><ele>315.8</ele><time>2026-07-30T20:25:15Z</time></trkpt>
<trkpt lat="34.99238" lon="-84.954054"><ele>315.2</ele><time>2026-07-30T20:25:17Z</time></trkpt>
<trkpt lat="34.992417" lon="-84.954056"><ele>316.1</ele><time>2026-07-30T20:25:19Z</time></trkpt>
<trkpt lat="34.99245" lon="-84.954059"><ele>315.2</ele><time>2026-07-30T20:25:21Z</time></trkpt>
<trkpt lat="34.992479" lon="-84.954066"><ele>313.9</ele><time>2026-07-30T20:25:23Z</time></trkpt>
<trkpt lat="34.992511" lon="-84.954079"><ele>315.2</ele><time>2026-07-30T20:25:25Z</time></trkpt>
<trkpt lat="34.992544" lon="-84.954092"><ele>313.9</ele><time>2026-07-30T20:25:27Z</time></trkpt>
<trkpt lat="34.992579" lon="-84.954101"><ele>314.6</ele><time>2026-07-30T20:25:29Z</time></trkpt>
<trkpt lat="34.992621" lon="-84.954107"><ele>315.8</ele><time>2026-07-30T20:25:32Z</time></trkpt>
<trkpt lat="34.992663" lon="-84.954105"><ele>316.4</ele><time>2026-07-30T20:25:35Z</time></trkpt>
<trkpt lat="34.992693" lon="-84.954105"><ele>317.0</ele><time>2026-07-30T20:25:37Z</time></trkpt>
<trkpt lat="34.992724" lon="-84.954108"><ele>318.5</ele><time>2026-07-30T20:25:39Z</time></trkpt>
<trkpt lat="34.992758" lon="-84.954102"><ele>318.5</ele><time>2026-07-30T20:25:41Z</time></trkpt>
<trkpt lat="34.992799" lon="-84.954096"><ele>319.4</ele><time>2026-07-30T20:25:44Z</time></trkpt>
<trkpt lat="34.992831" lon="-84.95409"><ele>317.9</ele><time>2026-07-30T20:25:47Z</time></trkpt>
<trkpt lat="34.99286" lon="-84.954088"><ele>316.4</ele><time>2026-07-30T20:25:49Z</time></trkpt>
<trkpt lat="34.99289" lon="-84.954092"><ele>316.1</ele><time>2026-07-30T20:25:51Z</time></trkpt>
<trkpt lat="34.992931" lon="-84.954106"><ele>316.1</ele><time>2026-07-30T20:25:54Z</time></trkpt>
<trkpt lat="34.992961" lon="-84.954101"><ele>316.1</ele><time>2026-07-30T20:25:56Z</time></trkpt>
<trkpt lat="34.992991" lon="-84.9541"><ele>315.2</ele><time>2026-07-30T20:25:58Z</time></trkpt>
<trkpt lat="34.99302" lon="-84.954116"><ele>313.0</ele><time>2026-07-30T20:26:00Z</time></trkpt>
<trkpt lat="34.993048" lon="-84.95413"><ele>313.3</ele><time>2026-07-30T20:26:02Z</time></trkpt>
<trkpt lat="34.993075" lon="-84.954138"><ele>312.1</ele><time>2026-07-30T20:26:04Z</time></trkpt>
<trkpt lat="34.993116" lon="-84.954133"><ele>313.3</ele><time>2026-07-30T20:26:07Z</time></trkpt>
<trkpt lat="34.993148" lon="-84.954131"><ele>313.0</ele><time>2026-07-30T20:26:09Z</time></trkpt>
<trkpt lat="34.993178" lon="-84.954138"><ele>311.8</ele><time>2026-07-30T20:26:11Z</time></trkpt>
<trkpt lat="34.993212" lon="-84.954136"><ele>311.5</ele><time>2026-07-30T20:26:13Z</time></trkpt>
<trkpt lat="34.993246" lon="-84.954144"><ele>313.0</ele><time>2026-07-30T20:26:15Z</time></trkpt>
<trkpt lat="34.993275" lon="-84.954141"><ele>313.0</ele><time>2026-07-30T20:26:17Z</time></trkpt>
<trkpt lat="34.993305" lon="-84.95414"><ele>313.3</ele><time>2026-07-30T20:26:20Z</time></trkpt>
<trkpt lat="34.993344" lon="-84.954124"><ele>314.2</ele><time>2026-07-30T20:26:23Z</time></trkpt>
<trkpt lat="34.993372" lon="-84.954118"><ele>314.6</ele><time>2026-07-30T20:26:25Z</time></trkpt>
<trkpt lat="34.993405" lon="-84.954087"><ele>315.5</ele><time>2026-07-30T20:26:28Z</time></trkpt>
<trkpt lat="34.993423" lon="-84.954061"><ele>316.1</ele><time>2026-07-30T20:26:30Z</time></trkpt>
<trkpt lat="34.993449" lon="-84.954029"><ele>317.3</ele><time>2026-07-30T20:26:33Z</time></trkpt>
<trkpt lat="34.993473" lon="-84.954008"><ele>316.7</ele><time>2026-07-30T20:26:35Z</time></trkpt>
<trkpt lat="34.993496" lon="-84.95399"><ele>316.1</ele><time>2026-07-30T20:26:37Z</time></trkpt>
<trkpt lat="34.99352" lon="-84.953963"><ele>315.2</ele><time>2026-07-30T20:26:39Z</time></trkpt>
<trkpt lat="34.993538" lon="-84.953929"><ele>315.5</ele><time>2026-07-30T20:26:41Z</time></trkpt>
<trkpt lat="34.993559" lon="-84.953902"><ele>314.9</ele><time>2026-07-30T20:26:43Z</time></trkpt>
<trkpt lat="34.993574" lon="-84.953865"><ele>314.2</ele><time>2026-07-30T20:26:45Z</time></trkpt>
<trkpt lat="34.993584" lon="-84.953828"><ele>314.6</ele><time>2026-07-30T20:26:47Z</time></trkpt>
<trkpt lat="34.993594" lon="-84.953789"><ele>314.9</ele><time>2026-07-30T20:26:49Z</time></trkpt>
<trkpt lat="34.99361" lon="-84.953757"><ele>314.9</ele><time>2026-07-30T20:26:51Z</time></trkpt>
<trkpt lat="34.993624" lon="-84.953722"><ele>315.2</ele><time>2026-07-30T20:26:53Z</time></trkpt>
<trkpt lat="34.99364" lon="-84.953681"><ele>313.9</ele><time>2026-07-30T20:26:55Z</time></trkpt>
<trkpt lat="34.993661" lon="-84.953645"><ele>314.6</ele><time>2026-07-30T20:26:57Z</time></trkpt>
<trkpt lat="34.993678" lon="-84.953609"><ele>313.9</ele><time>2026-07-30T20:26:59Z</time></trkpt>
<trkpt lat="34.993691" lon="-84.953566"><ele>316.4</ele><time>2026-07-30T20:27:02Z</time></trkpt>
<trkpt lat="34.993708" lon="-84.953538"><ele>317.3</ele><time>2026-07-30T20:27:04Z</time></trkpt>
<trkpt lat="34.993727" lon="-84.953508"><ele>318.2</ele><time>2026-07-30T20:27:06Z</time></trkpt>
<trkpt lat="34.993748" lon="-84.953475"><ele>318.2</ele><time>2026-07-30T20:27:08Z</time></trkpt>
<trkpt lat="34.993758" lon="-84.953436"><ele>317.0</ele><time>2026-07-30T20:27:10Z</time></trkpt>
<trkpt lat="34.993773" lon="-84.953407"><ele>316.1</ele><time>2026-07-30T20:27:12Z</time></trkpt>
<trkpt lat="34.993797" lon="-84.953381"><ele>315.5</ele><time>2026-07-30T20:27:14Z</time></trkpt>
<trkpt lat="34.993815" lon="-84.95335"><ele>315.8</ele><time>2026-07-30T20:27:16Z</time></trkpt>
<trkpt lat="34.99383" lon="-84.953312"><ele>316.1</ele><time>2026-07-30T20:27:18Z</time></trkpt>
<trkpt lat="34.99384" lon="-84.953271"><ele>316.7</ele><time>2026-07-30T20:27:20Z</time></trkpt>
<trkpt lat="34.993852" lon="-84.953235"><ele>317.6</ele><time>2026-07-30T20:27:22Z</time></trkpt>
<trkpt lat="34.993863" lon="-84.9532"><ele>317.9</ele><time>2026-07-30T20:27:24Z</time></trkpt>
<trkpt lat="34.993876" lon="-84.953166"><ele>316.7</ele><time>2026-07-30T20:27:26Z</time></trkpt>
<trkpt lat="34.993892" lon="-84.953132"><ele>315.8</ele><time>2026-07-30T20:27:28Z</time></trkpt>
<trkpt lat="34.993911" lon="-84.953103"><ele>313.9</ele><time>2026-07-30T20:27:30Z</time></trkpt>
<trkpt lat="34.993934" lon="-84.953062"><ele>314.6</ele><time>2026-07-30T20:27:33Z</time></trkpt>
<trkpt lat="34.993952" lon="-84.953034"><ele>314.6</ele><time>2026-07-30T20:27:35Z</time></trkpt>
<trkpt lat="34.993973" lon="-84.953"><ele>313.9</ele><time>2026-07-30T20:27:37Z</time></trkpt>
<trkpt lat="34.993978" lon="-84.952962"><ele>313.3</ele><time>2026-07-30T20:27:39Z</time></trkpt>
<trkpt lat="34.993984" lon="-84.952928"><ele>315.5</ele><time>2026-07-30T20:27:41Z</time></trkpt>
<trkpt lat="34.993989" lon="-84.95289"><ele>313.6</ele><time>2026-07-30T20:27:43Z</time></trkpt>
<trkpt lat="34.993994" lon="-84.952852"><ele>312.1</ele><time>2026-07-30T20:27:45Z</time></trkpt>
<trkpt lat="34.99398" lon="-84.952815"><ele>312.1</ele><time>2026-07-30T20:27:47Z</time></trkpt>
<trkpt lat="34.993969" lon="-84.952779"><ele>311.5</ele><time>2026-07-30T20:27:49Z</time></trkpt>
<trkpt lat="34.993956" lon="-84.952742"><ele>313.0</ele><time>2026-07-30T20:27:51Z</time></trkpt>
<trkpt lat="34.993944" lon="-84.952706"><ele>313.0</ele><time>2026-07-30T20:27:53Z</time></trkpt>
<trkpt lat="34.993939" lon="-84.952664"><ele>312.4</ele><time>2026-07-30T20:27:55Z</time></trkpt>
<trkpt lat="34.993936" lon="-84.952622"><ele>311.5</ele><time>2026-07-30T20:27:57Z</time></trkpt>
<trkpt lat="34.993936" lon="-84.952584"><ele>312.1</ele><time>2026-07-30T20:27:59Z</time></trkpt>
<trkpt lat="34.993924" lon="-84.952546"><ele>312.7</ele><time>2026-07-30T20:28:01Z</time></trkpt>
<trkpt lat="34.993908" lon="-84.952514"><ele>312.4</ele><time>2026-07-30T20:28:03Z</time></trkpt>
<trkpt lat="34.993884" lon="-84.952487"><ele>311.5</ele><time>2026-07-30T20:28:05Z</time></trkpt>
<trkpt lat="34.993852" lon="-84.952466"><ele>313.6</ele><time>2026-07-30T20:28:07Z</time></trkpt>
<trkpt lat="34.993825" lon="-84.952439"><ele>313.3</ele><time>2026-07-30T20:28:09Z</time></trkpt>
<trkpt lat="34.99379" lon="-84.952424"><ele>313.0</ele><time>2026-07-30T20:28:11Z</time></trkpt>
<trkpt lat="34.993766" lon="-84.952397"><ele>310.0</ele><time>2026-07-30T20:28:13Z</time></trkpt>
<trkpt lat="34.993744" lon="-84.952377"><ele>310.9</ele><time>2026-07-30T20:28:15Z</time></trkpt>
<trkpt lat="34.993715" lon="-84.952363"><ele>310.3</ele><time>2026-07-30T20:28:17Z</time></trkpt>
<trkpt lat="34.993695" lon="-84.952339"><ele>312.7</ele><time>2026-07-30T20:28:19Z</time></trkpt>
<trkpt lat="34.993669" lon="-84.952319"><ele>313.0</ele><time>2026-07-30T20:28:21Z</time></trkpt>
<trkpt lat="34.993648" lon="-84.952295"><ele>313.3</ele><time>2026-07-30T20:28:23Z</time></trkpt>
<trkpt lat="34.993623" lon="-84.952279"><ele>313.6</ele><time>2026-07-30T20:28:25Z</time></trkpt>
<trkpt lat="34.99359" lon="-84.952279"><ele>313.0</ele><time>2026-07-30T20:28:27Z</time></trkpt>
<trkpt lat="34.993557" lon="-84.952279"><ele>313.3</ele><time>2026-07-30T20:28:29Z</time></trkpt>
<trkpt lat="34.993525" lon="-84.95228"><ele>312.1</ele><time>2026-07-30T20:28:31Z</time></trkpt>
<trkpt lat="34.993494" lon="-84.952279"><ele>312.4</ele><time>2026-07-30T20:28:33Z</time></trkpt>
<trkpt lat="34.993464" lon="-84.952288"><ele>310.6</ele><time>2026-07-30T20:28:35Z</time></trkpt>
<trkpt lat="34.993436" lon="-84.952307"><ele>308.8</ele><time>2026-07-30T20:28:37Z</time></trkpt>
<trkpt lat="34.993406" lon="-84.952327"><ele>309.4</ele><time>2026-07-30T20:28:39Z</time></trkpt>
<trkpt lat="34.993377" lon="-84.952348"><ele>309.4</ele><time>2026-07-30T20:28:41Z</time></trkpt>
<trkpt lat="34.993351" lon="-84.952361"><ele>310.3</ele><time>2026-07-30T20:28:43Z</time></trkpt>
<trkpt lat="34.993317" lon="-84.952389"><ele>311.8</ele><time>2026-07-30T20:28:46Z</time></trkpt>
<trkpt lat="34.993288" lon="-84.952416"><ele>311.8</ele><time>2026-07-30T20:28:48Z</time></trkpt>
<trkpt lat="34.993251" lon="-84.952423"><ele>312.4</ele><time>2026-07-30T20:28:50Z</time></trkpt>
<trkpt lat="34.993213" lon="-84.952425"><ele>313.3</ele><time>2026-07-30T20:28:52Z</time></trkpt>
<trkpt lat="34.993177" lon="-84.952427"><ele>312.7</ele><time>2026-07-30T20:28:54Z</time></trkpt>
<trkpt lat="34.99315" lon="-84.952435"><ele>312.1</ele><time>2026-07-30T20:28:56Z</time></trkpt>
<trkpt lat="34.993115" lon="-84.952415"><ele>310.0</ele><time>2026-07-30T20:28:59Z</time></trkpt>
<trkpt lat="34.993088" lon="-84.952399"><ele>308.2</ele><time>2026-07-30T20:29:01Z</time></trkpt>
<trkpt lat="34.993063" lon="-84.952379"><ele>308.2</ele><time>2026-07-30T20:29:03Z</time></trkpt>
<trkpt lat="34.993042" lon="-84.952354"><ele>307.5</ele><time>2026-07-30T20:29:05Z</time></trkpt>
<trkpt lat="34.993016" lon="-84.952336"><ele>307.8</ele><time>2026-07-30T20:29:07Z</time></trkpt>
<trkpt lat="34.992988" lon="-84.952325"><ele>307.5</ele><time>2026-07-30T20:29:09Z</time></trkpt>
<trkpt lat="34.99296" lon="-84.952312"><ele>307.8</ele><time>2026-07-30T20:29:11Z</time></trkpt>
<trkpt lat="34.992927" lon="-84.952304"><ele>307.8</ele><time>2026-07-30T20:29:13Z</time></trkpt>
<trkpt lat="34.992891" lon="-84.952294"><ele>307.5</ele><time>2026-07-30T20:29:15Z</time></trkpt>
<trkpt lat="34.992848" lon="-84.952298"><ele>306.6</ele><time>2026-07-30T20:29:17Z</time></trkpt>
<trkpt lat="34.992814" lon="-84.952275"><ele>308.5</ele><time>2026-07-30T20:29:19Z</time></trkpt>
<trkpt lat="34.992806" lon="-84.952234"><ele>306.3</ele><time>2026-07-30T20:29:21Z</time></trkpt>
<trkpt lat="34.992808" lon="-84.952193"><ele>306.3</ele><time>2026-07-30T20:29:23Z</time></trkpt>
<trkpt lat="34.992814" lon="-84.952148"><ele>307.5</ele><time>2026-07-30T20:29:25Z</time></trkpt>
<trkpt lat="34.99282" lon="-84.952107"><ele>306.0</ele><time>2026-07-30T20:29:27Z</time></trkpt>
<trkpt lat="34.992822" lon="-84.952062"><ele>307.2</ele><time>2026-07-30T20:29:30Z</time></trkpt>
<trkpt lat="34.992831" lon="-84.952018"><ele>305.4</ele><time>2026-07-30T20:29:33Z</time></trkpt>
<trkpt lat="34.992839" lon="-84.951985"><ele>304.2</ele><time>2026-07-30T20:29:35Z</time></trkpt>
<trkpt lat="34.992832" lon="-84.951949"><ele>305.1</ele><time>2026-07-30T20:29:37Z</time></trkpt>
<trkpt lat="34.992839" lon="-84.951912"><ele>304.8</ele><time>2026-07-30T20:29:39Z</time></trkpt>
<trkpt lat="34.992839" lon="-84.95187"><ele>302.7</ele><time>2026-07-30T20:29:41Z</time></trkpt>
<trkpt lat="34.992843" lon="-84.951831"><ele>302.4</ele><time>2026-07-30T20:29:43Z</time></trkpt>
<trkpt lat="34.992857" lon="-84.951797"><ele>302.4</ele><time>2026-07-30T20:29:45Z</time></trkpt>
<trkpt lat="34.992865" lon="-84.951762"><ele>303.0</ele><time>2026-07-30T20:29:47Z</time></trkpt>
<trkpt lat="34.992874" lon="-84.951726"><ele>302.7</ele><time>2026-07-30T20:29:49Z</time></trkpt>
<trkpt lat="34.992881" lon="-84.951686"><ele>301.8</ele><time>2026-07-30T20:29:51Z</time></trkpt>
<trkpt lat="34.992891" lon="-84.951649"><ele>301.1</ele><time>2026-07-30T20:29:53Z</time></trkpt>
<trkpt lat="34.992903" lon="-84.951615"><ele>301.8</ele><time>2026-07-30T20:29:55Z</time></trkpt>
<trkpt lat="34.992909" lon="-84.95158"><ele>302.7</ele><time>2026-07-30T20:29:57Z</time></trkpt>
<trkpt lat="34.992932" lon="-84.95155"><ele>301.8</ele><time>2026-07-30T20:29:59Z</time></trkpt>
<trkpt lat="34.992963" lon="-84.951525"><ele>299.6</ele><time>2026-07-30T20:30:01Z</time></trkpt>
<trkpt lat="34.992985" lon="-84.951496"><ele>298.4</ele><time>2026-07-30T20:30:03Z</time></trkpt>
<trkpt lat="34.992999" lon="-84.951463"><ele>297.8</ele><time>2026-07-30T20:30:05Z</time></trkpt>
<trkpt lat="34.992999" lon="-84.951428"><ele>297.5</ele><time>2026-07-30T20:30:07Z</time></trkpt>
<trkpt lat="34.992983" lon="-84.951384"><ele>296.3</ele><time>2026-07-30T20:30:10Z</time></trkpt>
<trkpt lat="34.992985" lon="-84.951344"><ele>294.7</ele><time>2026-07-30T20:30:12Z</time></trkpt>
<trkpt lat="34.992987" lon="-84.951305"><ele>293.8</ele><time>2026-07-30T20:30:14Z</time></trkpt>
<trkpt lat="34.992979" lon="-84.951266"><ele>292.9</ele><time>2026-07-30T20:30:16Z</time></trkpt>
<trkpt lat="34.992974" lon="-84.951231"><ele>292.3</ele><time>2026-07-30T20:30:18Z</time></trkpt>
<trkpt lat="34.992983" lon="-84.951186"><ele>289.9</ele><time>2026-07-30T20:30:21Z</time></trkpt>
<trkpt lat="34.992986" lon="-84.95115"><ele>289.0</ele><time>2026-07-30T20:30:23Z</time></trkpt>
<trkpt lat="34.992988" lon="-84.951099"><ele>290.8</ele><time>2026-07-30T20:30:26Z</time></trkpt>
<trkpt lat="34.992993" lon="-84.951058"><ele>290.5</ele><time>2026-07-30T20:30:28Z</time></trkpt>
<trkpt lat="34.992995" lon="-84.951014"><ele>290.5</ele><time>2026-07-30T20:30:30Z</time></trkpt>
<trkpt lat="34.99301" lon="-84.950985"><ele>290.5</ele><time>2026-07-30T20:30:32Z</time></trkpt>
<trkpt lat="34.993022" lon="-84.950953"><ele>291.1</ele><time>2026-07-30T20:30:34Z</time></trkpt>
<trkpt lat="34.993036" lon="-84.95092"><ele>290.8</ele><time>2026-07-30T20:30:36Z</time></trkpt>
<trkpt lat="34.993053" lon="-84.950891"><ele>291.1</ele><time>2026-07-30T20:30:38Z</time></trkpt>
<trkpt lat="34.993069" lon="-84.950854"><ele>292.3</ele><time>2026-07-30T20:30:41Z</time></trkpt>
<trkpt lat="34.993087" lon="-84.950829"><ele>292.0</ele><time>2026-07-30T20:30:43Z</time></trkpt>
<trkpt lat="34.993102" lon="-84.950795"><ele>292.3</ele><time>2026-07-30T20:30:45Z</time></trkpt>
<trkpt lat="34.993122" lon="-84.950769"><ele>292.9</ele><time>2026-07-30T20:30:47Z</time></trkpt>
<trkpt lat="34.993145" lon="-84.95074"><ele>292.9</ele><time>2026-07-30T20:30:49Z</time></trkpt>
<trkpt lat="34.993157" lon="-84.950703"><ele>292.6</ele><time>2026-07-30T20:30:51Z</time></trkpt>
<trkpt lat="34.993168" lon="-84.950664"><ele>292.0</ele><time>2026-07-30T20:30:53Z</time></trkpt>
<trkpt lat="34.993184" lon="-84.950631"><ele>291.4</ele><time>2026-07-30T20:30:55Z</time></trkpt>
<trkpt lat="34.993201" lon="-84.950595"><ele>293.8</ele><time>2026-07-30T20:30:57Z</time></trkpt>
<trkpt lat="34.993215" lon="-84.95056"><ele>295.4</ele><time>2026-07-30T20:30:59Z</time></trkpt>
<trkpt lat="34.993227" lon="-84.950518"><ele>293.8</ele><time>2026-07-30T20:31:01Z</time></trkpt>
<trkpt lat="34.993231" lon="-84.95048"><ele>294.7</ele><time>2026-07-30T20:31:03Z</time></trkpt>
<trkpt lat="34.99325" lon="-84.950455"><ele>294.4</ele><time>2026-07-30T20:31:05Z</time></trkpt>
<trkpt lat="34.993285" lon="-84.950433"><ele>292.9</ele><time>2026-07-30T20:31:08Z</time></trkpt>
<trkpt lat="34.993317" lon="-84.950407"><ele>292.3</ele><time>2026-07-30T20:31:11Z</time></trkpt>
<trkpt lat="34.993337" lon="-84.950383"><ele>292.0</ele><time>2026-07-30T20:31:13Z</time></trkpt>
<trkpt lat="34.993354" lon="-84.950352"><ele>291.4</ele><time>2026-07-30T20:31:15Z</time></trkpt>
<trkpt lat="34.993381" lon="-84.950316"><ele>290.2</ele><time>2026-07-30T20:31:18Z</time></trkpt>
<trkpt lat="34.993405" lon="-84.950295"><ele>289.6</ele><time>2026-07-30T20:31:20Z</time></trkpt>
<trkpt lat="34.993419" lon="-84.95026"><ele>288.6</ele><time>2026-07-30T20:31:22Z</time></trkpt>
<trkpt lat="34.993437" lon="-84.950225"><ele>287.4</ele><time>2026-07-30T20:31:24Z</time></trkpt>
<trkpt lat="34.993458" lon="-84.950193"><ele>287.1</ele><time>2026-07-30T20:31:26Z</time></trkpt>
<trkpt lat="34.993482" lon="-84.950166"><ele>286.8</ele><time>2026-07-30T20:31:28Z</time></trkpt>
<trkpt lat="34.993504" lon="-84.950137"><ele>286.5</ele><time>2026-07-30T20:31:30Z</time></trkpt>
<trkpt lat="34.993535" lon="-84.950115"><ele>286.5</ele><time>2026-07-30T20:31:32Z</time></trkpt>
<trkpt lat="34.993565" lon="-84.950089"><ele>287.1</ele><time>2026-07-30T20:31:34Z</time></trkpt>
<trkpt lat="34.993595" lon="-84.950069"><ele>286.8</ele><time>2026-07-30T20:31:36Z</time></trkpt>
<trkpt lat="34.993628" lon="-84.950052"><ele>287.4</ele><time>2026-07-30T20:31:38Z</time></trkpt>
<trkpt lat="34.993651" lon="-84.950021"><ele>286.2</ele><time>2026-07-30T20:31:40Z</time></trkpt>
<trkpt lat="34.993677" lon="-84.949993"><ele>285.3</ele><time>2026-07-30T20:31:42Z</time></trkpt>
<trkpt lat="34.993694" lon="-84.949958"><ele>284.7</ele><time>2026-07-30T20:31:44Z</time></trkpt>
<trkpt lat="34.993708" lon="-84.94992"><ele>284.1</ele><time>2026-07-30T20:31:46Z</time></trkpt>
<trkpt lat="34.993719" lon="-84.949881"><ele>284.1</ele><time>2026-07-30T20:31:48Z</time></trkpt>
<trkpt lat="34.993727" lon="-84.949849"><ele>284.1</ele><time>2026-07-30T20:31:50Z</time></trkpt>
<trkpt lat="34.993736" lon="-84.949815"><ele>284.1</ele><time>2026-07-30T20:31:52Z</time></trkpt>
<trkpt lat="34.993747" lon="-84.949782"><ele>283.8</ele><time>2026-07-30T20:31:54Z</time></trkpt>
<trkpt lat="34.993764" lon="-84.949751"><ele>283.5</ele><time>2026-07-30T20:31:56Z</time></trkpt>
<trkpt lat="34.993774" lon="-84.949717"><ele>283.8</ele><time>2026-07-30T20:31:58Z</time></trkpt>
<trkpt lat="34.993789" lon="-84.949685"><ele>284.4</ele><time>2026-07-30T20:32:00Z</time></trkpt>
<trkpt lat="34.993799" lon="-84.949649"><ele>283.8</ele><time>2026-07-30T20:32:02Z</time></trkpt>
<trkpt lat="34.993798" lon="-84.949609"><ele>284.1</ele><time>2026-07-30T20:32:04Z</time></trkpt>
<trkpt lat="34.99379" lon="-84.949566"><ele>283.8</ele><time>2026-07-30T20:32:06Z</time></trkpt>
<trkpt lat="34.993774" lon="-84.949526"><ele>282.5</ele><time>2026-07-30T20:32:08Z</time></trkpt>
<trkpt lat="34.993762" lon="-84.949488"><ele>283.5</ele><time>2026-07-30T20:32:10Z</time></trkpt>
<trkpt lat="34.993742" lon="-84.949455"><ele>282.9</ele><time>2026-07-30T20:32:12Z</time></trkpt>
<trkpt lat="34.99372" lon="-84.949418"><ele>283.2</ele><time>2026-07-30T20:32:14Z</time></trkpt>
<trkpt lat="34.993696" lon="-84.949389"><ele>283.8</ele><time>2026-07-30T20:32:16Z</time></trkpt>
<trkpt lat="34.99367" lon="-84.94936"><ele>284.4</ele><time>2026-07-30T20:32:18Z</time></trkpt>
<trkpt lat="34.993641" lon="-84.949338"><ele>284.1</ele><time>2026-07-30T20:32:20Z</time></trkpt>
<trkpt lat="34.99361" lon="-84.949315"><ele>283.5</ele><time>2026-07-30T20:32:22Z</time></trkpt>
<trkpt lat="34.993581" lon="-84.949301"><ele>284.1</ele><time>2026-07-30T20:32:24Z</time></trkpt>
<trkpt lat="34.993549" lon="-84.949287"><ele>283.5</ele><time>2026-07-30T20:32:26Z</time></trkpt>
<trkpt lat="34.993518" lon="-84.949281"><ele>282.2</ele><time>2026-07-30T20:32:28Z</time></trkpt>
<trkpt lat="34.993486" lon="-84.949277"><ele>284.1</ele><time>2026-07-30T20:32:30Z</time></trkpt>
<trkpt lat="34.993452" lon="-84.949278"><ele>283.2</ele><time>2026-07-30T20:32:32Z</time></trkpt>
<trkpt lat="34.99342" lon="-84.949278"><ele>282.9</ele><time>2026-07-30T20:32:34Z</time></trkpt>
<trkpt lat="34.993386" lon="-84.949275"><ele>284.1</ele><time>2026-07-30T20:32:36Z</time></trkpt>
<trkpt lat="34.993355" lon="-84.949261"><ele>284.7</ele><time>2026-07-30T20:32:38Z</time></trkpt>
<trkpt lat="34.993326" lon="-84.949248"><ele>285.0</ele><time>2026-07-30T20:32:40Z</time></trkpt>
<trkpt lat="34.993295" lon="-84.949243"><ele>286.5</ele><time>2026-07-30T20:32:42Z</time></trkpt>
<trkpt lat="34.993264" lon="-84.949241"><ele>285.0</ele><time>2026-07-30T20:32:44Z</time></trkpt>
<trkpt lat="34.99323" lon="-84.949248"><ele>283.5</ele><time>2026-07-30T20:32:46Z</time></trkpt>
<trkpt lat="34.993197" lon="-84.949247"><ele>283.8</ele><time>2026-07-30T20:32:48Z</time></trkpt>
<trkpt lat="34.993166" lon="-84.94925"><ele>283.5</ele><time>2026-07-30T20:32:50Z</time></trkpt>
<trkpt lat="34.993137" lon="-84.949255"><ele>281.3</ele><time>2026-07-30T20:32:52Z</time></trkpt>
<trkpt lat="34.993105" lon="-84.94925"><ele>281.0</ele><time>2026-07-30T20:32:54Z</time></trkpt>
<trkpt lat="34.993074" lon="-84.949238"><ele>279.2</ele><time>2026-07-30T20:32:56Z</time></trkpt>
<trkpt lat="34.993045" lon="-84.949225"><ele>280.1</ele><time>2026-07-30T20:32:58Z</time></trkpt>
<trkpt lat="34.993012" lon="-84.949216"><ele>279.5</ele><time>2026-07-30T20:33:00Z</time></trkpt>
<trkpt lat="34.992979" lon="-84.949213"><ele>278.6</ele><time>2026-07-30T20:33:02Z</time></trkpt>
<trkpt lat="34.99295" lon="-84.949214"><ele>278.0</ele><time>2026-07-30T20:33:04Z</time></trkpt>
<trkpt lat="34.992925" lon="-84.949195"><ele>278.3</ele><time>2026-07-30T20:33:06Z</time></trkpt>
<trkpt lat="34.992914" lon="-84.94915"><ele>279.2</ele><time>2026-07-30T20:33:08Z</time></trkpt>
<trkpt lat="34.992922" lon="-84.949109"><ele>281.3</ele><time>2026-07-30T20:33:10Z</time></trkpt>
<trkpt lat="34.992936" lon="-84.949074"><ele>281.3</ele><time>2026-07-30T20:33:12Z</time></trkpt>
<trkpt lat="34.992953" lon="-84.949043"><ele>284.1</ele><time>2026-07-30T20:33:14Z</time></trkpt>
<trkpt lat="34.992976" lon="-84.949016"><ele>286.8</ele><time>2026-07-30T20:33:16Z</time></trkpt>
<trkpt lat="34.992994" lon="-84.948989"><ele>285.0</ele><time>2026-07-30T20:33:18Z</time></trkpt>
<trkpt lat="34.993022" lon="-84.948965"><ele>285.3</ele><time>2026-07-30T20:33:20Z</time></trkpt>
<trkpt lat="34.993038" lon="-84.948936"><ele>285.3</ele><time>2026-07-30T20:33:22Z</time></trkpt>
<trkpt lat="34.993049" lon="-84.948892"><ele>284.1</ele><time>2026-07-30T20:33:25Z</time></trkpt>
<trkpt lat="34.993038" lon="-84.948856"><ele>283.5</ele><time>2026-07-30T20:33:27Z</time></trkpt>
<trkpt lat="34.993033" lon="-84.948814"><ele>281.9</ele><time>2026-07-30T20:33:29Z</time></trkpt>
<trkpt lat="34.993029" lon="-84.948778"><ele>280.7</ele><time>2026-07-30T20:33:31Z</time></trkpt>
<trkpt lat="34.993047" lon="-84.948747"><ele>276.8</ele><time>2026-07-30T20:33:34Z</time></trkpt>
<trkpt lat="34.993071" lon="-84.948714"><ele>277.7</ele><time>2026-07-30T20:33:36Z</time></trkpt>
<trkpt lat="34.993085" lon="-84.948675"><ele>277.1</ele><time>2026-07-30T20:33:39Z</time></trkpt>
<trkpt lat="34.993085" lon="-84.948639"><ele>277.1</ele><time>2026-07-30T20:33:41Z</time></trkpt>
<trkpt lat="34.993079" lon="-84.948605"><ele>277.1</ele><time>2026-07-30T20:33:43Z</time></trkpt>
<trkpt lat="34.993076" lon="-84.948569"><ele>277.4</ele><time>2026-07-30T20:33:45Z</time></trkpt>
<trkpt lat="34.993069" lon="-84.948535"><ele>277.7</ele><time>2026-07-30T20:33:47Z</time></trkpt>
<trkpt lat="34.993064" lon="-84.948501"><ele>277.7</ele><time>2026-07-30T20:33:49Z</time></trkpt>
<trkpt lat="34.993065" lon="-84.948468"><ele>277.4</ele><time>2026-07-30T20:33:51Z</time></trkpt>
<trkpt lat="34.993071" lon="-84.948435"><ele>276.8</ele><time>2026-07-30T20:33:53Z</time></trkpt>
<trkpt lat="34.993081" lon="-84.948403"><ele>274.9</ele><time>2026-07-30T20:33:55Z</time></trkpt>
<trkpt lat="34.993092" lon="-84.948369"><ele>274.6</ele><time>2026-07-30T20:33:57Z</time></trkpt>
<trkpt lat="34.993113" lon="-84.948338"><ele>274.6</ele><time>2026-07-30T20:33:59Z</time></trkpt>
<trkpt lat="34.993141" lon="-84.948313"><ele>275.5</ele><time>2026-07-30T20:34:01Z</time></trkpt>
<trkpt lat="34.993167" lon="-84.948296"><ele>275.8</ele><time>2026-07-30T20:34:03Z</time></trkpt>
<trkpt lat="34.993198" lon="-84.948272"><ele>274.9</ele><time>2026-07-30T20:34:06Z</time></trkpt>
<trkpt lat="34.993224" lon="-84.948254"><ele>273.7</ele><time>2026-07-30T20:34:08Z</time></trkpt>
<trkpt lat="34.993254" lon="-84.948244"><ele>273.1</ele><time>2026-07-30T20:34:10Z</time></trkpt>
<trkpt lat="34.993283" lon="-84.948237"><ele>273.4</ele><time>2026-07-30T20:34:12Z</time></trkpt>
<trkpt lat="34.993321" lon="-84.948235"><ele>273.1</ele><time>2026-07-30T20:34:15Z</time></trkpt>
<trkpt lat="34.99335" lon="-84.948235"><ele>272.5</ele><time>2026-07-30T20:34:17Z</time></trkpt>
<trkpt lat="34.993377" lon="-84.948272"><ele>270.4</ele><time>2026-07-30T20:34:20Z</time></trkpt>
<trkpt lat="34.993391" lon="-84.948315"><ele>271.6</ele><time>2026-07-30T20:34:23Z</time></trkpt>
<trkpt lat="34.993406" lon="-84.948346"><ele>271.0</ele><time>2026-07-30T20:34:27Z</time></trkpt>
<trkpt lat="34.993373" lon="-84.948366"><ele>270.4</ele><time>2026-07-30T20:34:29Z</time></trkpt>
<trkpt lat="34.993381" lon="-84.948372"><ele>266.4</ele><time>2026-07-30T20:34:30Z</time></trkpt>
</trkseg>
<trkseg>
<trkpt lat="34.993367" lon="-84.948078"><ele>271.0</ele><time>2026-07-30T20:47:07Z</time></trkpt>
<trkpt lat="34.99334" lon="-84.948087"><ele>271.3</ele><time>2026-07-30T20:47:11Z</time></trkpt>
<trkpt lat="34.993333" lon="-84.948123"><ele>271.3</ele><time>2026-07-30T20:47:13Z</time></trkpt>
<trkpt lat="34.993336" lon="-84.948171"><ele>271.3</ele><time>2026-07-30T20:47:16Z</time></trkpt>
<trkpt lat="34.993326" lon="-84.948209"><ele>271.9</ele><time>2026-07-30T20:47:19Z</time></trkpt>
<trkpt lat="34.993289" lon="-84.948212"><ele>271.0</ele><time>2026-07-30T20:47:22Z</time></trkpt>
<trkpt lat="34.993251" lon="-84.948208"><ele>271.0</ele><time>2026-07-30T20:47:25Z</time></trkpt>
<trkpt lat="34.993217" lon="-84.948217"><ele>272.2</ele><time>2026-07-30T20:47:28Z</time></trkpt>
<trkpt lat="34.993194" lon="-84.94824"><ele>271.6</ele><time>2026-07-30T20:47:32Z</time></trkpt>
<trkpt lat="34.99317" lon="-84.948264"><ele>271.9</ele><time>2026-07-30T20:47:35Z</time></trkpt>
<trkpt lat="34.993142" lon="-84.948275"><ele>273.4</ele><time>2026-07-30T20:47:37Z</time></trkpt>
<trkpt lat="34.993113" lon="-84.948283"><ele>273.1</ele><time>2026-07-30T20:47:40Z</time></trkpt>
<trkpt lat="34.993087" lon="-84.94826"><ele>271.6</ele><time>2026-07-30T20:47:44Z</time></trkpt>
<trkpt lat="34.993091" lon="-84.948246"><ele>273.7</ele><time>2026-07-30T20:47:48Z</time></trkpt>
<trkpt lat="34.9931" lon="-84.948262"><ele>273.7</ele><time>2026-07-30T20:47:49Z</time></trkpt>
<trkpt lat="34.993107" lon="-84.94827"><ele>273.7</ele><time>2026-07-30T20:47:53Z</time></trkpt>
<trkpt lat="34.993106" lon="-84.948271"><ele>273.7</ele><time>2026-07-30T20:47:54Z</time></trkpt>
<trkpt lat="34.993105" lon="-84.948273"><ele>273.1</ele><time>2026-07-30T20:47:55Z</time></trkpt>
<trkpt lat="34.993101" lon="-84.948276"><ele>272.8</ele><time>2026-07-30T20:47:56Z</time></trkpt>
<trkpt lat="34.99307" lon="-84.948281"><ele>273.1</ele><time>2026-07-30T20:47:58Z</time></trkpt>
<trkpt lat="34.993045" lon="-84.948298"><ele>273.7</ele><time>2026-07-30T20:48:01Z</time></trkpt>
<trkpt lat="34.993041" lon="-84.948333"><ele>274.6</ele><time>2026-07-30T20:48:04Z</time></trkpt>
<trkpt lat="34.993046" lon="-84.948382"><ele>275.2</ele><time>2026-07-30T20:48:07Z</time></trkpt>
<trkpt lat="34.993046" lon="-84.948418"><ele>276.1</ele><time>2026-07-30T20:48:09Z</time></trkpt>
<trkpt lat="34.993048" lon="-84.948456"><ele>276.8</ele><time>2026-07-30T20:48:12Z</time></trkpt>
<trkpt lat="34.993041" lon="-84.948492"><ele>276.8</ele><time>2026-07-30T20:48:16Z</time></trkpt>
<trkpt lat="34.993043" lon="-84.94853"><ele>275.8</ele><time>2026-07-30T20:48:19Z</time></trkpt>
<trkpt lat="34.993039" lon="-84.948575"><ele>276.1</ele><time>2026-07-30T20:48:22Z</time></trkpt>
<trkpt lat="34.993039" lon="-84.94861"><ele>277.4</ele><time>2026-07-30T20:48:24Z</time></trkpt>
<trkpt lat="34.993042" lon="-84.948644"><ele>277.7</ele><time>2026-07-30T20:48:26Z</time></trkpt>
<trkpt lat="34.993042" lon="-84.948679"><ele>278.3</ele><time>2026-07-30T20:48:28Z</time></trkpt>
<trkpt lat="34.993018" lon="-84.948709"><ele>279.5</ele><time>2026-07-30T20:48:30Z</time></trkpt>
<trkpt lat="34.992998" lon="-84.948739"><ele>281.9</ele><time>2026-07-30T20:48:32Z</time></trkpt>
<trkpt lat="34.992983" lon="-84.948767"><ele>282.9</ele><time>2026-07-30T20:48:34Z</time></trkpt>
<trkpt lat="34.992985" lon="-84.948811"><ele>283.8</ele><time>2026-07-30T20:48:37Z</time></trkpt>
<trkpt lat="34.992993" lon="-84.948844"><ele>283.5</ele><time>2026-07-30T20:48:39Z</time></trkpt>
<trkpt lat="34.993003" lon="-84.948888"><ele>283.5</ele><time>2026-07-30T20:48:41Z</time></trkpt>
<trkpt lat="34.993014" lon="-84.948923"><ele>284.1</ele><time>2026-07-30T20:48:43Z</time></trkpt>
<trkpt lat="34.993012" lon="-84.948969"><ele>283.5</ele><time>2026-07-30T20:48:46Z</time></trkpt>
<trkpt lat="34.992996" lon="-84.948999"><ele>283.8</ele><time>2026-07-30T20:48:48Z</time></trkpt>
<trkpt lat="34.992974" lon="-84.949025"><ele>285.0</ele><time>2026-07-30T20:48:50Z</time></trkpt>
<trkpt lat="34.992954" lon="-84.949048"><ele>283.8</ele><time>2026-07-30T20:48:52Z</time></trkpt>
<trkpt lat="34.99293" lon="-84.949078"><ele>281.0</ele><time>2026-07-30T20:48:55Z</time></trkpt>
<trkpt lat="34.992912" lon="-84.949112"><ele>280.1</ele><time>2026-07-30T20:48:58Z</time></trkpt>
<trkpt lat="34.992912" lon="-84.949167"><ele>278.6</ele><time>2026-07-30T20:49:01Z</time></trkpt>
<trkpt lat="34.992938" lon="-84.949197"><ele>279.8</ele><time>2026-07-30T20:49:03Z</time></trkpt>
<trkpt lat="34.992989" lon="-84.949204"><ele>282.2</ele><time>2026-07-30T20:49:05Z</time></trkpt>
<trkpt lat="34.99302" lon="-84.949207"><ele>282.9</ele><time>2026-07-30T20:49:06Z</time></trkpt>
<trkpt lat="34.993055" lon="-84.949211"><ele>282.9</ele><time>2026-07-30T20:49:07Z</time></trkpt>
<trkpt lat="34.993097" lon="-84.949224"><ele>282.2</ele><time>2026-07-30T20:49:08Z</time></trkpt>
<trkpt lat="34.993147" lon="-84.949247"><ele>282.2</ele><time>2026-07-30T20:49:10Z</time></trkpt>
<trkpt lat="34.993173" lon="-84.949258"><ele>282.5</ele><time>2026-07-30T20:49:11Z</time></trkpt>
<trkpt lat="34.993201" lon="-84.949263"><ele>282.5</ele><time>2026-07-30T20:49:12Z</time></trkpt>
<trkpt lat="34.993247" lon="-84.949276"><ele>280.1</ele><time>2026-07-30T20:49:14Z</time></trkpt>
<trkpt lat="34.993292" lon="-84.949271"><ele>281.0</ele><time>2026-07-30T20:49:16Z</time></trkpt>
<trkpt lat="34.993334" lon="-84.949279"><ele>280.7</ele><time>2026-07-30T20:49:18Z</time></trkpt>
<trkpt lat="34.993382" lon="-84.949295"><ele>281.0</ele><time>2026-07-30T20:49:20Z</time></trkpt>
<trkpt lat="34.993426" lon="-84.949318"><ele>281.3</ele><time>2026-07-30T20:49:22Z</time></trkpt>
<trkpt lat="34.993471" lon="-84.94932"><ele>281.3</ele><time>2026-07-30T20:49:24Z</time></trkpt>
<trkpt lat="34.993505" lon="-84.94932"><ele>281.3</ele><time>2026-07-30T20:49:26Z</time></trkpt>
<trkpt lat="34.993547" lon="-84.949299"><ele>282.5</ele><time>2026-07-30T20:49:28Z</time></trkpt>
<trkpt lat="34.993595" lon="-84.949311"><ele>283.5</ele><time>2026-07-30T20:49:30Z</time></trkpt>
<trkpt lat="34.993632" lon="-84.949364"><ele>284.4</ele><time>2026-07-30T20:49:32Z</time></trkpt>
<trkpt lat="34.993656" lon="-84.949398"><ele>286.5</ele><time>2026-07-30T20:49:34Z</time></trkpt>
<trkpt lat="34.993677" lon="-84.949423"><ele>283.5</ele><time>2026-07-30T20:49:38Z</time></trkpt>
<trkpt lat="34.993697" lon="-84.949451"><ele>281.0</ele><time>2026-07-30T20:49:41Z</time></trkpt>
<trkpt lat="34.993719" lon="-84.949484"><ele>280.4</ele><time>2026-07-30T20:49:44Z</time></trkpt>
<trkpt lat="34.993737" lon="-84.949531"><ele>278.0</ele><time>2026-07-30T20:49:47Z</time></trkpt>
<trkpt lat="34.993741" lon="-84.949588"><ele>277.7</ele><time>2026-07-30T20:49:49Z</time></trkpt>
<trkpt lat="34.993738" lon="-84.949654"><ele>278.0</ele><time>2026-07-30T20:49:51Z</time></trkpt>
<trkpt lat="34.993733" lon="-84.949717"><ele>278.0</ele><time>2026-07-30T20:49:53Z</time></trkpt>
<trkpt lat="34.993721" lon="-84.949774"><ele>279.5</ele><time>2026-07-30T20:49:55Z</time></trkpt>
<trkpt lat="34.993695" lon="-84.949842"><ele>278.9</ele><time>2026-07-30T20:49:57Z</time></trkpt>
<trkpt lat="34.993662" lon="-84.949876"><ele>278.9</ele><time>2026-07-30T20:49:59Z</time></trkpt>
<trkpt lat="34.993622" lon="-84.949884"><ele>277.7</ele><time>2026-07-30T20:50:01Z</time></trkpt>
<trkpt lat="34.99359" lon="-84.949909"><ele>278.3</ele><time>2026-07-30T20:50:03Z</time></trkpt>
<trkpt lat="34.993567" lon="-84.949955"><ele>277.7</ele><time>2026-07-30T20:50:05Z</time></trkpt>
<trkpt lat="34.993534" lon="-84.95"><ele>278.3</ele><time>2026-07-30T20:50:07Z</time></trkpt>
<trkpt lat="34.993501" lon="-84.950043"><ele>278.6</ele><time>2026-07-30T20:50:09Z</time></trkpt>
<trkpt lat="34.99347" lon="-84.950095"><ele>278.9</ele><time>2026-07-30T20:50:11Z</time></trkpt>
<trkpt lat="34.993438" lon="-84.950138"><ele>281.3</ele><time>2026-07-30T20:50:13Z</time></trkpt>
<trkpt lat="34.993423" lon="-84.950167"><ele>282.5</ele><time>2026-07-30T20:50:14Z</time></trkpt>
<trkpt lat="34.993412" lon="-84.950198"><ele>282.9</ele><time>2026-07-30T20:50:15Z</time></trkpt>
<trkpt lat="34.993381" lon="-84.950248"><ele>286.2</ele><time>2026-07-30T20:50:17Z</time></trkpt>
<trkpt lat="34.993366" lon="-84.950282"><ele>286.5</ele><time>2026-07-30T20:50:18Z</time></trkpt>
<trkpt lat="34.993351" lon="-84.950315"><ele>285.9</ele><time>2026-07-30T20:50:19Z</time></trkpt>
<trkpt lat="34.993332" lon="-84.950348"><ele>287.1</ele><time>2026-07-30T20:50:21Z</time></trkpt>
<trkpt lat="34.993309" lon="-84.950408"><ele>285.3</ele><time>2026-07-30T20:50:23Z</time></trkpt>
<trkpt lat="34.993285" lon="-84.950465"><ele>287.1</ele><time>2026-07-30T20:50:26Z</time></trkpt>
<trkpt lat="34.993272" lon="-84.950512"><ele>288.0</ele><time>2026-07-30T20:50:28Z</time></trkpt>
<trkpt lat="34.993267" lon="-84.950561"><ele>288.6</ele><time>2026-07-30T20:50:30Z</time></trkpt>
<trkpt lat="34.993272" lon="-84.950605"><ele>291.7</ele><time>2026-07-30T20:50:33Z</time></trkpt>
<trkpt lat="34.993246" lon="-84.950639"><ele>291.1</ele><time>2026-07-30T20:50:35Z</time></trkpt>
<trkpt lat="34.993217" lon="-84.950655"><ele>290.8</ele><time>2026-07-30T20:50:36Z</time></trkpt>
<trkpt lat="34.993182" lon="-84.950672"><ele>292.3</ele><time>2026-07-30T20:50:38Z</time></trkpt>
<trkpt lat="34.993152" lon="-84.95069"><ele>291.4</ele><time>2026-07-30T20:50:40Z</time></trkpt>
<trkpt lat="34.993119" lon="-84.950718"><ele>289.9</ele><time>2026-07-30T20:50:43Z</time></trkpt>
<trkpt lat="34.993106" lon="-84.950754"><ele>290.8</ele><time>2026-07-30T20:50:45Z</time></trkpt>
<trkpt lat="34.993085" lon="-84.95079"><ele>289.9</ele><time>2026-07-30T20:50:47Z</time></trkpt>
<trkpt lat="34.993057" lon="-84.95082"><ele>289.0</ele><time>2026-07-30T20:50:49Z</time></trkpt>
<trkpt lat="34.993026" lon="-84.950856"><ele>290.2</ele><time>2026-07-30T20:50:51Z</time></trkpt>
<trkpt lat="34.992999" lon="-84.950885"><ele>288.6</ele><time>2026-07-30T20:50:53Z</time></trkpt>
<trkpt lat="34.992991" lon="-84.950921"><ele>288.3</ele><time>2026-07-30T20:50:55Z</time></trkpt>
<trkpt lat="34.992989" lon="-84.95096"><ele>286.2</ele><time>2026-07-30T20:50:57Z</time></trkpt>
<trkpt lat="34.992969" lon="-84.951002"><ele>287.4</ele><time>2026-07-30T20:51:00Z</time></trkpt>
<trkpt lat="34.992966" lon="-84.951046"><ele>288.0</ele><time>2026-07-30T20:51:03Z</time></trkpt>
<trkpt lat="34.992961" lon="-84.951082"><ele>286.8</ele><time>2026-07-30T20:51:05Z</time></trkpt>
<trkpt lat="34.992961" lon="-84.951119"><ele>286.8</ele><time>2026-07-30T20:51:07Z</time></trkpt>
<trkpt lat="34.992972" lon="-84.951156"><ele>287.1</ele><time>2026-07-30T20:51:09Z</time></trkpt>
<trkpt lat="34.992981" lon="-84.951194"><ele>288.3</ele><time>2026-07-30T20:51:11Z</time></trkpt>
<trkpt lat="34.992975" lon="-84.951231"><ele>288.6</ele><time>2026-07-30T20:51:13Z</time></trkpt>
<trkpt lat="34.992963" lon="-84.951268"><ele>287.7</ele><time>2026-07-30T20:51:15Z</time></trkpt>
<trkpt lat="34.992977" lon="-84.951321"><ele>285.9</ele><time>2026-07-30T20:51:17Z</time></trkpt>
<trkpt lat="34.992992" lon="-84.951352"><ele>285.9</ele><time>2026-07-30T20:51:18Z</time></trkpt>
<trkpt lat="34.993005" lon="-84.951386"><ele>286.8</ele><time>2026-07-30T20:51:19Z</time></trkpt>
<trkpt lat="34.993014" lon="-84.951439"><ele>287.7</ele><time>2026-07-30T20:51:21Z</time></trkpt>
<trkpt lat="34.992992" lon="-84.95148"><ele>288.6</ele><time>2026-07-30T20:51:23Z</time></trkpt>
<trkpt lat="34.992965" lon="-84.951517"><ele>289.3</ele><time>2026-07-30T20:51:25Z</time></trkpt>
<trkpt lat="34.992929" lon="-84.951554"><ele>289.9</ele><time>2026-07-30T20:51:27Z</time></trkpt>
<trkpt lat="34.992896" lon="-84.951601"><ele>289.6</ele><time>2026-07-30T20:51:29Z</time></trkpt>
<trkpt lat="34.992872" lon="-84.951654"><ele>290.8</ele><time>2026-07-30T20:51:31Z</time></trkpt>
<trkpt lat="34.99287" lon="-84.951711"><ele>290.8</ele><time>2026-07-30T20:51:33Z</time></trkpt>
<trkpt lat="34.992877" lon="-84.951767"><ele>292.6</ele><time>2026-07-30T20:51:35Z</time></trkpt>
<trkpt lat="34.992878" lon="-84.951806"><ele>292.9</ele><time>2026-07-30T20:51:36Z</time></trkpt>
<trkpt lat="34.992876" lon="-84.951841"><ele>294.1</ele><time>2026-07-30T20:51:37Z</time></trkpt>
<trkpt lat="34.992856" lon="-84.95187"><ele>292.9</ele><time>2026-07-30T20:51:39Z</time></trkpt>
<trkpt lat="34.992845" lon="-84.951902"><ele>293.2</ele><time>2026-07-30T20:51:42Z</time></trkpt>
<trkpt lat="34.992855" lon="-84.951947"><ele>292.3</ele><time>2026-07-30T20:51:45Z</time></trkpt>
<trkpt lat="34.992857" lon="-84.951997"><ele>292.0</ele><time>2026-07-30T20:51:48Z</time></trkpt>
<trkpt lat="34.992857" lon="-84.952034"><ele>292.0</ele><time>2026-07-30T20:51:50Z</time></trkpt>
<trkpt lat="34.992851" lon="-84.952075"><ele>292.9</ele><time>2026-07-30T20:51:52Z</time></trkpt>
<trkpt lat="34.992844" lon="-84.952115"><ele>292.3</ele><time>2026-07-30T20:51:54Z</time></trkpt>
<trkpt lat="34.992843" lon="-84.952152"><ele>292.3</ele><time>2026-07-30T20:51:56Z</time></trkpt>
<trkpt lat="34.992839" lon="-84.952193"><ele>290.2</ele><time>2026-07-30T20:51:58Z</time></trkpt>
<trkpt lat="34.992842" lon="-84.952235"><ele>290.8</ele><time>2026-07-30T20:52:00Z</time></trkpt>
<trkpt lat="34.992851" lon="-84.952268"><ele>291.1</ele><time>2026-07-30T20:52:02Z</time></trkpt>
<trkpt lat="34.992869" lon="-84.952309"><ele>290.5</ele><time>2026-07-30T20:52:05Z</time></trkpt>
<trkpt lat="34.992908" lon="-84.952315"><ele>291.1</ele><time>2026-07-30T20:52:07Z</time></trkpt>
<trkpt lat="34.992951" lon="-84.952294"><ele>291.1</ele><time>2026-07-30T20:52:09Z</time></trkpt>
<trkpt lat="34.992995" lon="-84.95227"><ele>289.9</ele><time>2026-07-30T20:52:11Z</time></trkpt>
<trkpt lat="34.993035" lon="-84.95226"><ele>290.2</ele><time>2026-07-30T20:52:13Z</time></trkpt>
<trkpt lat="34.993063" lon="-84.95226"><ele>293.5</ele><time>2026-07-30T20:52:15Z</time></trkpt>
<trkpt lat="34.993095" lon="-84.952286"><ele>296.3</ele><time>2026-07-30T20:52:18Z</time></trkpt>
<trkpt lat="34.993113" lon="-84.952326"><ele>297.5</ele><time>2026-07-30T20:52:20Z</time></trkpt>
<trkpt lat="34.99313" lon="-84.952368"><ele>296.6</ele><time>2026-07-30T20:52:22Z</time></trkpt>
<trkpt lat="34.993151" lon="-84.952399"><ele>296.9</ele><time>2026-07-30T20:52:24Z</time></trkpt>
<trkpt lat="34.993169" lon="-84.952428"><ele>297.2</ele><time>2026-07-30T20:52:26Z</time></trkpt>
<trkpt lat="34.993194" lon="-84.952446"><ele>297.8</ele><time>2026-07-30T20:52:28Z</time></trkpt>
<trkpt lat="34.993227" lon="-84.952446"><ele>298.7</ele><time>2026-07-30T20:52:30Z</time></trkpt>
<trkpt lat="34.993265" lon="-84.952437"><ele>299.6</ele><time>2026-07-30T20:52:33Z</time></trkpt>
<trkpt lat="34.993298" lon="-84.952419"><ele>301.1</ele><time>2026-07-30T20:52:36Z</time></trkpt>
<trkpt lat="34.993327" lon="-84.952415"><ele>303.9</ele><time>2026-07-30T20:52:39Z</time></trkpt>
<trkpt lat="34.993358" lon="-84.952413"><ele>305.4</ele><time>2026-07-30T20:52:42Z</time></trkpt>
<trkpt lat="34.99339" lon="-84.952394"><ele>306.6</ele><time>2026-07-30T20:52:45Z</time></trkpt>
<trkpt lat="34.993422" lon="-84.952365"><ele>306.3</ele><time>2026-07-30T20:52:48Z</time></trkpt>
<trkpt lat="34.993455" lon="-84.952342"><ele>305.1</ele><time>2026-07-30T20:52:51Z</time></trkpt>
<trkpt lat="34.993491" lon="-84.952321"><ele>307.5</ele><time>2026-07-30T20:52:54Z</time></trkpt>
<trkpt lat="34.993528" lon="-84.952304"><ele>307.5</ele><time>2026-07-30T20:52:57Z</time></trkpt>
<trkpt lat="34.993558" lon="-84.952306"><ele>308.8</ele><time>2026-07-30T20:52:59Z</time></trkpt>
<trkpt lat="34.993598" lon="-84.952305"><ele>308.8</ele><time>2026-07-30T20:53:02Z</time></trkpt>
<trkpt lat="34.993637" lon="-84.95231"><ele>309.4</ele><time>2026-07-30T20:53:05Z</time></trkpt>
<trkpt lat="34.993674" lon="-84.95232"><ele>309.7</ele><time>2026-07-30T20:53:08Z</time></trkpt>
<trkpt lat="34.993707" lon="-84.952343"><ele>311.5</ele><time>2026-07-30T20:53:11Z</time></trkpt>
<trkpt lat="34.993726" lon="-84.952369"><ele>308.8</ele><time>2026-07-30T20:53:13Z</time></trkpt>
<trkpt lat="34.993748" lon="-84.952402"><ele>306.0</ele><time>2026-07-30T20:53:15Z</time></trkpt>
<trkpt lat="34.993768" lon="-84.95244"><ele>307.5</ele><time>2026-07-30T20:53:17Z</time></trkpt>
<trkpt lat="34.993794" lon="-84.95246"><ele>307.2</ele><time>2026-07-30T20:53:19Z</time></trkpt>
<trkpt lat="34.993825" lon="-84.952465"><ele>308.2</ele><time>2026-07-30T20:53:21Z</time></trkpt>
<trkpt lat="34.993853" lon="-84.952479"><ele>308.2</ele><time>2026-07-30T20:53:23Z</time></trkpt>
<trkpt lat="34.993883" lon="-84.952513"><ele>309.1</ele><time>2026-07-30T20:53:26Z</time></trkpt>
<trkpt lat="34.99391" lon="-84.95255"><ele>311.8</ele><time>2026-07-30T20:53:29Z</time></trkpt>
<trkpt lat="34.993932" lon="-84.952574"><ele>308.8</ele><time>2026-07-30T20:53:31Z</time></trkpt>
<trkpt lat="34.993944" lon="-84.952611"><ele>308.8</ele><time>2026-07-30T20:53:33Z</time></trkpt>
<trkpt lat="34.993942" lon="-84.95265"><ele>309.1</ele><time>2026-07-30T20:53:35Z</time></trkpt>
<trkpt lat="34.993935" lon="-84.952703"><ele>308.5</ele><time>2026-07-30T20:53:37Z</time></trkpt>
<trkpt lat="34.993929" lon="-84.952748"><ele>307.2</ele><time>2026-07-30T20:53:39Z</time></trkpt>
<trkpt lat="34.993931" lon="-84.952789"><ele>307.2</ele><time>2026-07-30T20:53:41Z</time></trkpt>
<trkpt lat="34.99394" lon="-84.952836"><ele>306.3</ele><time>2026-07-30T20:53:43Z</time></trkpt>
<trkpt lat="34.993937" lon="-84.95287"><ele>306.0</ele><time>2026-07-30T20:53:45Z</time></trkpt>
<trkpt lat="34.993921" lon="-84.952916"><ele>305.1</ele><time>2026-07-30T20:53:47Z</time></trkpt>
<trkpt lat="34.993909" lon="-84.952965"><ele>306.0</ele><time>2026-07-30T20:53:49Z</time></trkpt>
<trkpt lat="34.993875" lon="-84.953026"><ele>308.2</ele><time>2026-07-30T20:53:51Z</time></trkpt>
<trkpt lat="34.993857" lon="-84.953052"><ele>308.8</ele><time>2026-07-30T20:53:52Z</time></trkpt>
<trkpt lat="34.993844" lon="-84.95309"><ele>309.4</ele><time>2026-07-30T20:53:54Z</time></trkpt>
<trkpt lat="34.993835" lon="-84.953126"><ele>311.5</ele><time>2026-07-30T20:53:56Z</time></trkpt>
<trkpt lat="34.993816" lon="-84.95316"><ele>311.2</ele><time>2026-07-30T20:53:58Z</time></trkpt>
<trkpt lat="34.993812" lon="-84.95321"><ele>308.2</ele><time>2026-07-30T20:54:00Z</time></trkpt>
<trkpt lat="34.993811" lon="-84.953249"><ele>309.1</ele><time>2026-07-30T20:54:02Z</time></trkpt>
<trkpt lat="34.993812" lon="-84.953286"><ele>309.1</ele><time>2026-07-30T20:54:04Z</time></trkpt>
<trkpt lat="34.993805" lon="-84.953325"><ele>308.5</ele><time>2026-07-30T20:54:06Z</time></trkpt>
<trkpt lat="34.993792" lon="-84.953357"><ele>311.5</ele><time>2026-07-30T20:54:08Z</time></trkpt>
<trkpt lat="34.99378" lon="-84.953389"><ele>313.3</ele><time>2026-07-30T20:54:10Z</time></trkpt>
<trkpt lat="34.993757" lon="-84.95343"><ele>312.4</ele><time>2026-07-30T20:54:13Z</time></trkpt>
<trkpt lat="34.993737" lon="-84.953455"><ele>313.3</ele><time>2026-07-30T20:54:15Z</time></trkpt>
<trkpt lat="34.993716" lon="-84.953496"><ele>314.6</ele><time>2026-07-30T20:54:18Z</time></trkpt>
<trkpt lat="34.993701" lon="-84.95353"><ele>315.8</ele><time>2026-07-30T20:54:20Z</time></trkpt>
<trkpt lat="34.993681" lon="-84.953561"><ele>315.5</ele><time>2026-07-30T20:54:22Z</time></trkpt>
<trkpt lat="34.993668" lon="-84.953594"><ele>314.9</ele><time>2026-07-30T20:54:24Z</time></trkpt>
<trkpt lat="34.993653" lon="-84.953625"><ele>314.2</ele><time>2026-07-30T20:54:26Z</time></trkpt>
<trkpt lat="34.993638" lon="-84.953655"><ele>313.6</ele><time>2026-07-30T20:54:28Z</time></trkpt>
<trkpt lat="34.993619" lon="-84.953699"><ele>313.0</ele><time>2026-07-30T20:54:31Z</time></trkpt>
<trkpt lat="34.99361" lon="-84.953737"><ele>311.8</ele><time>2026-07-30T20:54:33Z</time></trkpt>
<trkpt lat="34.993595" lon="-84.95377"><ele>312.1</ele><time>2026-07-30T20:54:35Z</time></trkpt>
<trkpt lat="34.993579" lon="-84.9538"><ele>310.9</ele><time>2026-07-30T20:54:37Z</time></trkpt>
<trkpt lat="34.993563" lon="-84.953837"><ele>308.8</ele><time>2026-07-30T20:54:39Z</time></trkpt>
<trkpt lat="34.99355" lon="-84.953871"><ele>309.4</ele><time>2026-07-30T20:54:41Z</time></trkpt>
<trkpt lat="34.993541" lon="-84.953907"><ele>311.5</ele><time>2026-07-30T20:54:43Z</time></trkpt>
<trkpt lat="34.993529" lon="-84.95394"><ele>311.8</ele><time>2026-07-30T20:54:45Z</time></trkpt>
<trkpt lat="34.993516" lon="-84.953977"><ele>311.5</ele><time>2026-07-30T20:54:47Z</time></trkpt>
<trkpt lat="34.993501" lon="-84.954007"><ele>311.2</ele><time>2026-07-30T20:54:49Z</time></trkpt>
<trkpt lat="34.993477" lon="-84.954029"><ele>311.5</ele><time>2026-07-30T20:54:51Z</time></trkpt>
<trkpt lat="34.993453" lon="-84.954053"><ele>312.7</ele><time>2026-07-30T20:54:53Z</time></trkpt>
<trkpt lat="34.993421" lon="-84.954067"><ele>311.2</ele><time>2026-07-30T20:54:55Z</time></trkpt>
<trkpt lat="34.993394" lon="-84.954095"><ele>311.2</ele><time>2026-07-30T20:54:57Z</time></trkpt>
<trkpt lat="34.993369" lon="-84.954124"><ele>310.0</ele><time>2026-07-30T20:54:59Z</time></trkpt>
<trkpt lat="34.993343" lon="-84.954145"><ele>309.4</ele><time>2026-07-30T20:55:01Z</time></trkpt>
<trkpt lat="34.993313" lon="-84.954154"><ele>310.9</ele><time>2026-07-30T20:55:03Z</time></trkpt>
<trkpt lat="34.993283" lon="-84.954169"><ele>311.8</ele><time>2026-07-30T20:55:05Z</time></trkpt>
<trkpt lat="34.993254" lon="-84.954182"><ele>313.0</ele><time>2026-07-30T20:55:07Z</time></trkpt>
<trkpt lat="34.993225" lon="-84.954191"><ele>313.6</ele><time>2026-07-30T20:55:09Z</time></trkpt>
<trkpt lat="34.993195" lon="-84.954195"><ele>313.9</ele><time>2026-07-30T20:55:11Z</time></trkpt>
<trkpt lat="34.993163" lon="-84.954198"><ele>315.2</ele><time>2026-07-30T20:55:13Z</time></trkpt>
<trkpt lat="34.993128" lon="-84.954195"><ele>315.8</ele><time>2026-07-30T20:55:15Z</time></trkpt>
<trkpt lat="34.99309" lon="-84.95419"><ele>314.2</ele><time>2026-07-30T20:55:17Z</time></trkpt>
<trkpt lat="34.993055" lon="-84.954192"><ele>313.6</ele><time>2026-07-30T20:55:19Z</time></trkpt>
<trkpt lat="34.993023" lon="-84.954195"><ele>313.3</ele><time>2026-07-30T20:55:21Z</time></trkpt>
<trkpt lat="34.992994" lon="-84.954197"><ele>313.0</ele><time>2026-07-30T20:55:23Z</time></trkpt>
<trkpt lat="34.992964" lon="-84.954195"><ele>313.9</ele><time>2026-07-30T20:55:25Z</time></trkpt>
<trkpt lat="34.992932" lon="-84.954189"><ele>311.8</ele><time>2026-07-30T20:55:27Z</time></trkpt>
<trkpt lat="34.992899" lon="-84.954178"><ele>311.2</ele><time>2026-07-30T20:55:29Z</time></trkpt>
<trkpt lat="34.992868" lon="-84.954172"><ele>312.1</ele><time>2026-07-30T20:55:31Z</time></trkpt>
<trkpt lat="34.992839" lon="-84.954162"><ele>311.5</ele><time>2026-07-30T20:55:33Z</time></trkpt>
<trkpt lat="34.992809" lon="-84.954156"><ele>311.2</ele><time>2026-07-30T20:55:35Z</time></trkpt>
<trkpt lat="34.992778" lon="-84.954153"><ele>311.2</ele><time>2026-07-30T20:55:37Z</time></trkpt>
<trkpt lat="34.992749" lon="-84.954157"><ele>313.6</ele><time>2026-07-30T20:55:39Z</time></trkpt>
<trkpt lat="34.992718" lon="-84.954164"><ele>315.8</ele><time>2026-07-30T20:55:41Z</time></trkpt>
<trkpt lat="34.992684" lon="-84.954169"><ele>315.8</ele><time>2026-07-30T20:55:43Z</time></trkpt>
<trkpt lat="34.992651" lon="-84.954167"><ele>314.9</ele><time>2026-07-30T20:55:45Z</time></trkpt>
<trkpt lat="34.992617" lon="-84.954158"><ele>314.2</ele><time>2026-07-30T20:55:47Z</time></trkpt>
<trkpt lat="34.992586" lon="-84.954145"><ele>313.3</ele><time>2026-07-30T20:55:49Z</time></trkpt>
<trkpt lat="34.992553" lon="-84.954132"><ele>311.2</ele><time>2026-07-30T20:55:51Z</time></trkpt>
<trkpt lat="34.992524" lon="-84.954129"><ele>311.5</ele><time>2026-07-30T20:55:53Z</time></trkpt>
<trkpt lat="34.992491" lon="-84.954125"><ele>310.9</ele><time>2026-07-30T20:55:55Z</time></trkpt>
<trkpt lat="34.992458" lon="-84.954119"><ele>311.5</ele><time>2026-07-30T20:55:57Z</time></trkpt>
<trkpt lat="34.992428" lon="-84.954112"><ele>311.8</ele><time>2026-07-30T20:55:59Z</time></trkpt>
<trkpt lat="34.992396" lon="-84.954105"><ele>312.1</ele><time>2026-07-30T20:56:01Z</time></trkpt>
<trkpt lat="34.992365" lon="-84.954095"><ele>311.2</ele><time>2026-07-30T20:56:03Z</time></trkpt>
<trkpt lat="34.992332" lon="-84.954098"><ele>310.9</ele><time>2026-07-30T20:56:05Z</time></trkpt>
<trkpt lat="34.9923" lon="-84.954101"><ele>314.2</ele><time>2026-07-30T20:56:07Z</time></trkpt>
<trkpt lat="34.992269" lon="-84.954103"><ele>315.2</ele><time>2026-07-30T20:56:09Z</time></trkpt>
<trkpt lat="34.992238" lon="-84.954109"><ele>314.9</ele><time>2026-07-30T20:56:11Z</time></trkpt>
<trkpt lat="34.992206" lon="-84.954111"><ele>314.2</ele><time>2026-07-30T20:56:13Z</time></trkpt>
<trkpt lat="34.992175" lon="-84.954114"><ele>313.6</ele><time>2026-07-30T20:56:15Z</time></trkpt>
<trkpt lat="34.992144" lon="-84.954118"><ele>312.7</ele><time>2026-07-30T20:56:17Z</time></trkpt>
<trkpt lat="34.992113" lon="-84.954125"><ele>312.1</ele><time>2026-07-30T20:56:19Z</time></trkpt>
<trkpt lat="34.99208" lon="-84.954134"><ele>312.1</ele><time>2026-07-30T20:56:21Z</time></trkpt>
<trkpt lat="34.992047" lon="-84.954136"><ele>312.7</ele><time>2026-07-30T20:56:23Z</time></trkpt>
<trkpt lat="34.992016" lon="-84.954145"><ele>313.9</ele><time>2026-07-30T20:56:25Z</time></trkpt>
<trkpt lat="34.991984" lon="-84.954144"><ele>313.0</ele><time>2026-07-30T20:56:27Z</time></trkpt>
<trkpt lat="34.991954" lon="-84.954134"><ele>313.6</ele><time>2026-07-30T20:56:29Z</time></trkpt>
<trkpt lat="34.991924" lon="-84.954115"><ele>313.6</ele><time>2026-07-30T20:56:31Z</time></trkpt>
<trkpt lat="34.991892" lon="-84.954104"><ele>316.1</ele><time>2026-07-30T20:56:33Z</time></trkpt>
<trkpt lat="34.991856" lon="-84.954092"><ele>314.2</ele><time>2026-07-30T20:56:35Z</time></trkpt>
<trkpt lat="34.991824" lon="-84.954077"><ele>314.6</ele><time>2026-07-30T20:56:37Z</time></trkpt>
<trkpt lat="34.991789" lon="-84.954067"><ele>316.1</ele><time>2026-07-30T20:56:39Z</time></trkpt>
<trkpt lat="34.991753" lon="-84.95407"><ele>319.4</ele><time>2026-07-30T20:56:41Z</time></trkpt>
<trkpt lat="34.99172" lon="-84.954076"><ele>319.1</ele><time>2026-07-30T20:56:43Z</time></trkpt>
<trkpt lat="34.99169" lon="-84.954088"><ele>316.7</ele><time>2026-07-30T20:56:45Z</time></trkpt>
<trkpt lat="34.991659" lon="-84.954095"><ele>317.0</ele><time>2026-07-30T20:56:47Z</time></trkpt>
<trkpt lat="34.991625" lon="-84.954083"><ele>314.6</ele><time>2026-07-30T20:56:49Z</time></trkpt>
<trkpt lat="34.991596" lon="-84.954094"><ele>314.6</ele><time>2026-07-30T20:56:51Z</time></trkpt>
<trkpt lat="34.991565" lon="-84.954095"><ele>314.6</ele><time>2026-07-30T20:56:53Z</time></trkpt>
<trkpt lat="34.991536" lon="-84.954081"><ele>314.9</ele><time>2026-07-30T20:56:55Z</time></trkpt>
<trkpt lat="34.991505" lon="-84.954075"><ele>315.8</ele><time>2026-07-30T20:56:57Z</time></trkpt>
<trkpt lat="34.991475" lon="-84.954064"><ele>313.9</ele><time>2026-07-30T20:56:59Z</time></trkpt>
<trkpt lat="34.991446" lon="-84.954056"><ele>313.9</ele><time>2026-07-30T20:57:01Z</time></trkpt>
<trkpt lat="34.991418" lon="-84.954043"><ele>315.5</ele><time>2026-07-30T20:57:03Z</time></trkpt>
<trkpt lat="34.991391" lon="-84.954021"><ele>316.7</ele><time>2026-07-30T20:57:05Z</time></trkpt>
<trkpt lat="34.991364" lon="-84.954004"><ele>316.1</ele><time>2026-07-30T20:57:07Z</time></trkpt>
<trkpt lat="34.991332" lon="-84.953986"><ele>314.9</ele><time>2026-07-30T20:57:09Z</time></trkpt>
<trkpt lat="34.991301" lon="-84.953964"><ele>313.9</ele><time>2026-07-30T20:57:11Z</time></trkpt>
<trkpt lat="34.991269" lon="-84.953954"><ele>314.6</ele><time>2026-07-30T20:57:13Z</time></trkpt>
<trkpt lat="34.991236" lon="-84.953951"><ele>315.2</ele><time>2026-07-30T20:57:15Z</time></trkpt>
<trkpt lat="34.991205" lon="-84.953944"><ele>315.5</ele><time>2026-07-30T20:57:17Z</time></trkpt>
<trkpt lat="34.991171" lon="-84.953928"><ele>315.8</ele><time>2026-07-30T20:57:19Z</time></trkpt>
<trkpt lat="34.991139" lon="-84.953913"><ele>316.1</ele><time>2026-07-30T20:57:21Z</time></trkpt>
<trkpt lat="34.99111" lon="-84.95391"><ele>316.7</ele><time>2026-07-30T20:57:23Z</time></trkpt>
<trkpt lat="34.991081" lon="-84.953914"><ele>317.3</ele><time>2026-07-30T20:57:25Z</time></trkpt>
<trkpt lat="34.991043" lon="-84.953926"><ele>315.8</ele><time>2026-07-30T20:57:28Z</time></trkpt>
<trkpt lat="34.991002" lon="-84.953921"><ele>316.4</ele><time>2026-07-30T20:57:31Z</time></trkpt>
<trkpt lat="34.990962" lon="-84.953924"><ele>317.9</ele><time>2026-07-30T20:57:34Z</time></trkpt>
<trkpt lat="34.990933" lon="-84.953924"><ele>318.5</ele><time>2026-07-30T20:57:36Z</time></trkpt>
<trkpt lat="34.990894" lon="-84.953922"><ele>319.7</ele><time>2026-07-30T20:57:39Z</time></trkpt>
<trkpt lat="34.990857" lon="-84.953917"><ele>318.8</ele><time>2026-07-30T20:57:42Z</time></trkpt>
<trkpt lat="34.990819" lon="-84.953911"><ele>317.6</ele><time>2026-07-30T20:57:45Z</time></trkpt>
<trkpt lat="34.99079" lon="-84.953897"><ele>315.2</ele><time>2026-07-30T20:57:47Z</time></trkpt>
<trkpt lat="34.99076" lon="-84.953897"><ele>314.6</ele><time>2026-07-30T20:57:49Z</time></trkpt>
<trkpt lat="34.990729" lon="-84.953904"><ele>315.8</ele><time>2026-07-30T20:57:51Z</time></trkpt>
<trkpt lat="34.9907" lon="-84.953914"><ele>316.4</ele><time>2026-07-30T20:57:53Z</time></trkpt>
<trkpt lat="34.990672" lon="-84.95391"><ele>314.9</ele><time>2026-07-30T20:57:55Z</time></trkpt>
<trkpt lat="34.99064" lon="-84.953896"><ele>314.9</ele><time>2026-07-30T20:57:57Z</time></trkpt>
<trkpt lat="34.990608" lon="-84.953876"><ele>313.9</ele><time>2026-07-30T20:57:59Z</time></trkpt>
<trkpt lat="34.990578" lon="-84.953853"><ele>313.3</ele><time>2026-07-30T20:58:01Z</time></trkpt>
<trkpt lat="34.990555" lon="-84.95383"><ele>314.6</ele><time>2026-07-30T20:58:03Z</time></trkpt>
<trkpt lat="34.990525" lon="-84.953809"><ele>314.9</ele><time>2026-07-30T20:58:05Z</time></trkpt>
<trkpt lat="34.990496" lon="-84.953792"><ele>314.9</ele><time>2026-07-30T20:58:07Z</time></trkpt>
<trkpt lat="34.990468" lon="-84.953777"><ele>315.8</ele><time>2026-07-30T20:58:09Z</time></trkpt>
<trkpt lat="34.990442" lon="-84.953764"><ele>315.2</ele><time>2026-07-30T20:58:11Z</time></trkpt>
<trkpt lat="34.990414" lon="-84.953766"><ele>315.5</ele><time>2026-07-30T20:58:13Z</time></trkpt>
<trkpt lat="34.990385" lon="-84.953764"><ele>316.1</ele><time>2026-07-30T20:58:15Z</time></trkpt>
<trkpt lat="34.990347" lon="-84.953752"><ele>317.6</ele><time>2026-07-30T20:58:18Z</time></trkpt>
<trkpt lat="34.990317" lon="-84.953747"><ele>318.2</ele><time>2026-07-30T20:58:20Z</time></trkpt>
<trkpt lat="34.990288" lon="-84.953748"><ele>319.4</ele><time>2026-07-30T20:58:22Z</time></trkpt>
<trkpt lat="34.990251" lon="-84.953735"><ele>320.6</ele><time>2026-07-30T20:58:25Z</time></trkpt>
<trkpt lat="34.99022" lon="-84.953706"><ele>321.6</ele><time>2026-07-30T20:58:28Z</time></trkpt>
<trkpt lat="34.990198" lon="-84.953676"><ele>320.6</ele><time>2026-07-30T20:58:31Z</time></trkpt>
<trkpt lat="34.990178" lon="-84.953638"><ele>321.3</ele><time>2026-07-30T20:58:34Z</time></trkpt>
<trkpt lat="34.990151" lon="-84.953609"><ele>323.1</ele><time>2026-07-30T20:58:37Z</time></trkpt>
<trkpt lat="34.990138" lon="-84.953566"><ele>325.2</ele><time>2026-07-30T20:58:40Z</time></trkpt>
<trkpt lat="34.990142" lon="-84.953522"><ele>326.1</ele><time>2026-07-30T20:58:43Z</time></trkpt>
<trkpt lat="34.990157" lon="-84.953489"><ele>324.3</ele><time>2026-07-30T20:58:46Z</time></trkpt>
<trkpt lat="34.990172" lon="-84.953457"><ele>324.0</ele><time>2026-07-30T20:58:49Z</time></trkpt>
<trkpt lat="34.990189" lon="-84.953427"><ele>322.2</ele><time>2026-07-30T20:58:52Z</time></trkpt>
<trkpt lat="34.990186" lon="-84.953383"><ele>321.9</ele><time>2026-07-30T20:58:55Z</time></trkpt>
<trkpt lat="34.990184" lon="-84.953338"><ele>322.8</ele><time>2026-07-30T20:58:58Z</time></trkpt>
<trkpt lat="34.990187" lon="-84.953297"><ele>322.8</ele><time>2026-07-30T20:59:01Z</time></trkpt>
<trkpt lat="34.990184" lon="-84.953249"><ele>324.3</ele><time>2026-07-30T20:59:04Z</time></trkpt>
<trkpt lat="34.990169" lon="-84.953203"><ele>324.0</ele><time>2026-07-30T20:59:07Z</time></trkpt>
<trkpt lat="34.99016" lon="-84.953171"><ele>325.2</ele><time>2026-07-30T20:59:09Z</time></trkpt>
<trkpt lat="34.990137" lon="-84.953129"><ele>326.1</ele><time>2026-07-30T20:59:12Z</time></trkpt>
<trkpt lat="34.990115" lon="-84.953088"><ele>326.4</ele><time>2026-07-30T20:59:15Z</time></trkpt>
<trkpt lat="34.990092" lon="-84.953047"><ele>328.3</ele><time>2026-07-30T20:59:18Z</time></trkpt>
<trkpt lat="34.990079" lon="-84.953017"><ele>328.9</ele><time>2026-07-30T20:59:20Z</time></trkpt>
<trkpt lat="34.990068" lon="-84.952984"><ele>328.6</ele><time>2026-07-30T20:59:22Z</time></trkpt>
<trkpt lat="34.990058" lon="-84.952952"><ele>328.3</ele><time>2026-07-30T20:59:24Z</time></trkpt>
<trkpt lat="34.990047" lon="-84.95292"><ele>328.6</ele><time>2026-07-30T20:59:26Z</time></trkpt>
<trkpt lat="34.990032" lon="-84.952874"><ele>328.3</ele><time>2026-07-30T20:59:29Z</time></trkpt>
<trkpt lat="34.990019" lon="-84.952844"><ele>328.0</ele><time>2026-07-30T20:59:31Z</time></trkpt>
<trkpt lat="34.99" lon="-84.952803"><ele>327.4</ele><time>2026-07-30T20:59:34Z</time></trkpt>
<trkpt lat="34.989995" lon="-84.95277"><ele>327.1</ele><time>2026-07-30T20:59:36Z</time></trkpt>
<trkpt lat="34.989998" lon="-84.952735"><ele>326.4</ele><time>2026-07-30T20:59:38Z</time></trkpt>
<trkpt lat="34.990011" lon="-84.952692"><ele>326.4</ele><time>2026-07-30T20:59:41Z</time></trkpt>
<trkpt lat="34.990021" lon="-84.952661"><ele>325.8</ele><time>2026-07-30T20:59:43Z</time></trkpt>
<trkpt lat="34.99004" lon="-84.952621"><ele>324.3</ele><time>2026-07-30T20:59:46Z</time></trkpt>
<trkpt lat="34.990052" lon="-84.952588"><ele>323.4</ele><time>2026-07-30T20:59:48Z</time></trkpt>
<trkpt lat="34.990057" lon="-84.952554"><ele>323.1</ele><time>2026-07-30T20:59:50Z</time></trkpt>
<trkpt lat="34.990062" lon="-84.952519"><ele>323.7</ele><time>2026-07-30T20:59:52Z</time></trkpt>
<trkpt lat="34.990066" lon="-84.952483"><ele>323.1</ele><time>2026-07-30T20:59:54Z</time></trkpt>
<trkpt lat="34.990067" lon="-84.952447"><ele>323.4</ele><time>2026-07-30T20:59:56Z</time></trkpt>
<trkpt lat="34.990071" lon="-84.952414"><ele>322.5</ele><time>2026-07-30T20:59:58Z</time></trkpt>
<trkpt lat="34.990069" lon="-84.952378"><ele>321.9</ele><time>2026-07-30T21:00:00Z</time></trkpt>
<trkpt lat="34.990068" lon="-84.952343"><ele>321.9</ele><time>2026-07-30T21:00:02Z</time></trkpt>
<trkpt lat="34.990067" lon="-84.952305"><ele>321.3</ele><time>2026-07-30T21:00:04Z</time></trkpt>
<trkpt lat="34.990066" lon="-84.952268"><ele>321.0</ele><time>2026-07-30T21:00:06Z</time></trkpt>
<trkpt lat="34.990061" lon="-84.952231"><ele>320.3</ele><time>2026-07-30T21:00:08Z</time></trkpt>
<trkpt lat="34.990062" lon="-84.952193"><ele>321.3</ele><time>2026-07-30T21:00:10Z</time></trkpt>
<trkpt lat="34.990063" lon="-84.952156"><ele>321.6</ele><time>2026-07-30T21:00:12Z</time></trkpt>
<trkpt lat="34.990065" lon="-84.95212"><ele>321.6</ele><time>2026-07-30T21:00:14Z</time></trkpt>
<trkpt lat="34.990062" lon="-84.952086"><ele>320.6</ele><time>2026-07-30T21:00:16Z</time></trkpt>
<trkpt lat="34.990068" lon="-84.952051"><ele>320.6</ele><time>2026-07-30T21:00:18Z</time></trkpt>
<trkpt lat="34.990074" lon="-84.952016"><ele>320.3</ele><time>2026-07-30T21:00:20Z</time></trkpt>
<trkpt lat="34.990074" lon="-84.951982"><ele>321.6</ele><time>2026-07-30T21:00:22Z</time></trkpt>
<trkpt lat="34.990084" lon="-84.951937"><ele>320.6</ele><time>2026-07-30T21:00:25Z</time></trkpt>
<trkpt lat="34.99009" lon="-84.951903"><ele>320.3</ele><time>2026-07-30T21:00:27Z</time></trkpt>
<trkpt lat="34.990093" lon="-84.951867"><ele>321.0</ele><time>2026-07-30T21:00:29Z</time></trkpt>
<trkpt lat="34.990094" lon="-84.951829"><ele>321.6</ele><time>2026-07-30T21:00:31Z</time></trkpt>
<trkpt lat="34.990091" lon="-84.95179"><ele>320.0</ele><time>2026-07-30T21:00:33Z</time></trkpt>
<trkpt lat="34.99009" lon="-84.951752"><ele>320.3</ele><time>2026-07-30T21:00:35Z</time></trkpt>
<trkpt lat="34.990087" lon="-84.951713"><ele>319.1</ele><time>2026-07-30T21:00:37Z</time></trkpt>
<trkpt lat="34.99008" lon="-84.951675"><ele>319.4</ele><time>2026-07-30T21:00:39Z</time></trkpt>
<trkpt lat="34.990066" lon="-84.951641"><ele>319.7</ele><time>2026-07-30T21:00:41Z</time></trkpt>
<trkpt lat="34.990044" lon="-84.951613"><ele>319.7</ele><time>2026-07-30T21:00:43Z</time></trkpt>
<trkpt lat="34.99003" lon="-84.951583"><ele>319.4</ele><time>2026-07-30T21:00:45Z</time></trkpt>
<trkpt lat="34.990014" lon="-84.951554"><ele>319.1</ele><time>2026-07-30T21:00:47Z</time></trkpt>
<trkpt lat="34.98999" lon="-84.951525"><ele>318.8</ele><time>2026-07-30T21:00:49Z</time></trkpt>
<trkpt lat="34.989968" lon="-84.951498"><ele>318.8</ele><time>2026-07-30T21:00:51Z</time></trkpt>
<trkpt lat="34.989948" lon="-84.951471"><ele>318.2</ele><time>2026-07-30T21:00:53Z</time></trkpt>
<trkpt lat="34.98993" lon="-84.951437"><ele>317.9</ele><time>2026-07-30T21:00:55Z</time></trkpt>
<trkpt lat="34.989902" lon="-84.951418"><ele>318.2</ele><time>2026-07-30T21:00:57Z</time></trkpt>
<trkpt lat="34.989878" lon="-84.951395"><ele>319.1</ele><time>2026-07-30T21:00:59Z</time></trkpt>
<trkpt lat="34.989855" lon="-84.951373"><ele>317.6</ele><time>2026-07-30T21:01:01Z</time></trkpt>
<trkpt lat="34.98983" lon="-84.951349"><ele>318.5</ele><time>2026-07-30T21:01:03Z</time></trkpt>
<trkpt lat="34.989803" lon="-84.951321"><ele>318.8</ele><time>2026-07-30T21:01:05Z</time></trkpt>
<trkpt lat="34.989781" lon="-84.951288"><ele>318.8</ele><time>2026-07-30T21:01:07Z</time></trkpt>
<trkpt lat="34.989769" lon="-84.951252"><ele>319.1</ele><time>2026-07-30T21:01:09Z</time></trkpt>
<trkpt lat="34.989751" lon="-84.951223"><ele>320.6</ele><time>2026-07-30T21:01:11Z</time></trkpt>
<trkpt lat="34.989736" lon="-84.951192"><ele>321.0</ele><time>2026-07-30T21:01:13Z</time></trkpt>
<trkpt lat="34.989725" lon="-84.951156"><ele>321.3</ele><time>2026-07-30T21:01:15Z</time></trkpt>
<trkpt lat="34.98971" lon="-84.951125"><ele>321.3</ele><time>2026-07-30T21:01:17Z</time></trkpt>
<trkpt lat="34.98969" lon="-84.951095"><ele>321.0</ele><time>2026-07-30T21:01:19Z</time></trkpt>
<trkpt lat="34.989667" lon="-84.951068"><ele>320.3</ele><time>2026-07-30T21:01:21Z</time></trkpt>
<trkpt lat="34.989643" lon="-84.95104"><ele>320.3</ele><time>2026-07-30T21:01:23Z</time></trkpt>
<trkpt lat="34.989617" lon="-84.951011"><ele>319.7</ele><time>2026-07-30T21:01:25Z</time></trkpt>
<trkpt lat="34.989591" lon="-84.950987"><ele>320.3</ele><time>2026-07-30T21:01:27Z</time></trkpt>
<trkpt lat="34.989562" lon="-84.950967"><ele>319.4</ele><time>2026-07-30T21:01:29Z</time></trkpt>
<trkpt lat="34.989529" lon="-84.95095"><ele>318.8</ele><time>2026-07-30T21:01:31Z</time></trkpt>
<trkpt lat="34.989497" lon="-84.950939"><ele>318.5</ele><time>2026-07-30T21:01:33Z</time></trkpt>
<trkpt lat="34.989466" lon="-84.950937"><ele>317.6</ele><time>2026-07-30T21:01:35Z</time></trkpt>
<trkpt lat="34.989434" lon="-84.950932"><ele>317.3</ele><time>2026-07-30T21:01:37Z</time></trkpt>
<trkpt lat="34.989399" lon="-84.95094"><ele>316.7</ele><time>2026-07-30T21:01:39Z</time></trkpt>
<trkpt lat="34.989367" lon="-84.950952"><ele>316.1</ele><time>2026-07-30T21:01:41Z</time></trkpt>
<trkpt lat="34.989338" lon="-84.950969"><ele>316.7</ele><time>2026-07-30T21:01:43Z</time></trkpt>
<trkpt lat="34.989309" lon="-84.950974"><ele>316.7</ele><time>2026-07-30T21:01:45Z</time></trkpt>
<trkpt lat="34.989267" lon="-84.950975"><ele>316.1</ele><time>2026-07-30T21:01:48Z</time></trkpt>
<trkpt lat="34.989237" lon="-84.950971"><ele>316.1</ele><time>2026-07-30T21:01:50Z</time></trkpt>
<trkpt lat="34.989197" lon="-84.950976"><ele>314.2</ele><time>2026-07-30T21:01:53Z</time></trkpt>
<trkpt lat="34.989158" lon="-84.950982"><ele>315.5</ele><time>2026-07-30T21:01:56Z</time></trkpt>
<trkpt lat="34.989117" lon="-84.950996"><ele>313.9</ele><time>2026-07-30T21:01:59Z</time></trkpt>
<trkpt lat="34.989078" lon="-84.951005"><ele>313.3</ele><time>2026-07-30T21:02:02Z</time></trkpt>
<trkpt lat="34.989042" lon="-84.951004"><ele>314.2</ele><time>2026-07-30T21:02:05Z</time></trkpt>
<trkpt lat="34.989011" lon="-84.950987"><ele>316.1</ele><time>2026-07-30T21:02:07Z</time></trkpt>
<trkpt lat="34.988972" lon="-84.951014"><ele>316.7</ele><time>2026-07-30T21:02:09Z</time></trkpt>
<trkpt lat="34.988943" lon="-84.95105"><ele>318.5</ele><time>2026-07-30T21:02:15Z</time></trkpt>
<trkpt lat="34.988967" lon="-84.951088"><ele>317.6</ele><time>2026-07-30T21:02:17Z</time></trkpt>
<trkpt lat="34.989006" lon="-84.951088"><ele>319.4</ele><time>2026-07-30T21:02:19Z</time></trkpt>
<trkpt lat="34.989022" lon="-84.951059"><ele>319.7</ele><time>2026-07-30T21:02:20Z</time></trkpt>
<trkpt lat="34.98903" lon="-84.951021"><ele>319.1</ele><time>2026-07-30T21:02:22Z</time></trkpt>
<trkpt lat="34.989067" lon="-84.951016"><ele>318.2</ele><time>2026-07-30T21:02:25Z</time></trkpt>
<trkpt lat="34.989096" lon="-84.951019"><ele>316.1</ele><time>2026-07-30T21:02:29Z</time></trkpt>
<trkpt lat="34.989108" lon="-84.951021"><ele>315.5</ele><time>2026-07-30T21:02:31Z</time></trkpt>
<trkpt lat="34.989109" lon="-84.951022"><ele>315.8</ele><time>2026-07-30T21:02:32Z</time></trkpt>
<trkpt lat="34.989108" lon="-84.95102"><ele>315.5</ele><time>2026-07-30T21:02:35Z</time></trkpt>
<trkpt lat="34.989114" lon="-84.951015"><ele>315.5</ele><time>2026-07-30T21:02:36Z</time></trkpt>
<trkpt lat="34.989081" lon="-84.951024"><ele>318.2</ele><time>2026-07-30T21:02:40Z</time></trkpt>
<trkpt lat="34.989047" lon="-84.95101"><ele>319.4</ele><time>2026-07-30T21:02:43Z</time></trkpt>
<trkpt lat="34.989037" lon="-84.950976"><ele>321.3</ele><time>2026-07-30T21:02:46Z</time></trkpt>
<trkpt lat="34.989005" lon="-84.950982"><ele>319.7</ele><time>2026-07-30T21:02:50Z</time></trkpt>
<trkpt lat="34.988993" lon="-84.950985"><ele>320.0</ele><time>2026-07-30T21:02:51Z</time></trkpt>
<trkpt lat="34.988992" lon="-84.950992"><ele>319.7</ele><time>2026-07-30T21:02:52Z</time></trkpt>
<trkpt lat="34.988982" lon="-84.950992"><ele>320.6</ele><time>2026-07-30T21:02:53Z</time></trkpt>
<trkpt lat="34.988978" lon="-84.950989"><ele>320.6</ele><time>2026-07-30T21:02:54Z</time></trkpt>
<trkpt lat="34.98898" lon="-84.950988"><ele>320.6</ele><time>2026-07-30T21:02:55Z</time></trkpt>
<trkpt lat="34.988975" lon="-84.950976"><ele>321.0</ele><time>2026-07-30T21:02:56Z</time></trkpt>
<trkpt lat="34.988973" lon="-84.95102"><ele>320.6</ele><time>2026-07-30T21:02:59Z</time></trkpt>
<trkpt lat="34.988996" lon="-84.951044"><ele>320.6</ele><time>2026-07-30T21:03:01Z</time></trkpt>
<trkpt lat="34.989021" lon="-84.951022"><ele>320.3</ele><time>2026-07-30T21:03:04Z</time></trkpt>
<trkpt lat="34.989047" lon="-84.950987"><ele>320.0</ele><time>2026-07-30T21:03:07Z</time></trkpt>
<trkpt lat="34.989048" lon="-84.950997"><ele>318.2</ele><time>2026-07-30T21:03:08Z</time></trkpt>
<trkpt lat="34.98905" lon="-84.951002"><ele>319.1</ele><time>2026-07-30T21:03:09Z</time></trkpt>
<trkpt lat="34.989081" lon="-84.951025"><ele>319.1</ele><time>2026-07-30T21:03:14Z</time></trkpt>
<trkpt lat="34.989106" lon="-84.95104"><ele>319.4</ele><time>2026-07-30T21:03:16Z</time></trkpt>
<trkpt lat="34.98912" lon="-84.951082"><ele>319.1</ele><time>2026-07-30T21:03:19Z</time></trkpt>
<trkpt lat="34.989134" lon="-84.951122"><ele>319.4</ele><time>2026-07-30T21:03:22Z</time></trkpt>
<trkpt lat="34.989141" lon="-84.951154"><ele>318.8</ele><time>2026-07-30T21:03:24Z</time></trkpt>
<trkpt lat="34.989147" lon="-84.951194"><ele>318.5</ele><time>2026-07-30T21:03:27Z</time></trkpt>
<trkpt lat="34.989169" lon="-84.951184"><ele>316.7</ele><time>2026-07-30T21:03:28Z</time></trkpt>
<trkpt lat="34.989149" lon="-84.95115"><ele>317.6</ele><time>2026-07-30T21:03:29Z</time></trkpt>
<trkpt lat="34.989154" lon="-84.951183"><ele>317.0</ele><time>2026-07-30T21:03:30Z</time></trkpt>
<trkpt lat="34.989155" lon="-84.951217"><ele>317.3</ele><time>2026-07-30T21:03:32Z</time></trkpt>
<trkpt lat="34.989151" lon="-84.951264"><ele>314.6</ele><time>2026-07-30T21:03:35Z</time></trkpt>
<trkpt lat="34.989164" lon="-84.951302"><ele>312.4</ele><time>2026-07-30T21:03:38Z</time></trkpt>
<trkpt lat="34.989188" lon="-84.951336"><ele>311.2</ele><time>2026-07-30T21:03:41Z</time></trkpt>
<trkpt lat="34.989208" lon="-84.951364"><ele>312.1</ele><time>2026-07-30T21:03:43Z</time></trkpt>
<trkpt lat="34.989238" lon="-84.951393"><ele>311.8</ele><time>2026-07-30T21:03:46Z</time></trkpt>
<trkpt lat="34.989269" lon="-84.951425"><ele>310.0</ele><time>2026-07-30T21:03:49Z</time></trkpt>
<trkpt lat="34.98929" lon="-84.951448"><ele>309.7</ele><time>2026-07-30T21:03:51Z</time></trkpt>
<trkpt lat="34.989301" lon="-84.951483"><ele>310.3</ele><time>2026-07-30T21:03:53Z</time></trkpt>
<trkpt lat="34.989308" lon="-84.951519"><ele>310.6</ele><time>2026-07-30T21:03:55Z</time></trkpt>
<trkpt lat="34.989323" lon="-84.951547"><ele>310.0</ele><time>2026-07-30T21:03:57Z</time></trkpt>
<trkpt lat="34.989336" lon="-84.951594"><ele>310.3</ele><time>2026-07-30T21:04:00Z</time></trkpt>
<trkpt lat="34.989315" lon="-84.951627"><ele>310.3</ele><time>2026-07-30T21:04:02Z</time></trkpt>
<trkpt lat="34.98929" lon="-84.951647"><ele>309.7</ele><time>2026-07-30T21:04:04Z</time></trkpt>
<trkpt lat="34.989261" lon="-84.951643"><ele>309.4</ele><time>2026-07-30T21:04:06Z</time></trkpt>
<trkpt lat="34.989232" lon="-84.95163"><ele>309.1</ele><time>2026-07-30T21:04:08Z</time></trkpt>
<trkpt lat="34.989207" lon="-84.951613"><ele>309.1</ele><time>2026-07-30T21:04:10Z</time></trkpt>
<trkpt lat="34.989181" lon="-84.951595"><ele>308.8</ele><time>2026-07-30T21:04:12Z</time></trkpt>
<trkpt lat="34.989142" lon="-84.951587"><ele>308.2</ele><time>2026-07-30T21:04:15Z</time></trkpt>
<trkpt lat="34.989104" lon="-84.951591"><ele>306.9</ele><time>2026-07-30T21:04:18Z</time></trkpt>
<trkpt lat="34.989074" lon="-84.951599"><ele>306.6</ele><time>2026-07-30T21:04:20Z</time></trkpt>
<trkpt lat="34.989044" lon="-84.951604"><ele>305.7</ele><time>2026-07-30T21:04:22Z</time></trkpt>
<trkpt lat="34.989015" lon="-84.951607"><ele>304.8</ele><time>2026-07-30T21:04:24Z</time></trkpt>
<trkpt lat="34.988975" lon="-84.951593"><ele>303.9</ele><time>2026-07-30T21:04:27Z</time></trkpt>
<trkpt lat="34.98894" lon="-84.951574"><ele>302.7</ele><time>2026-07-30T21:04:30Z</time></trkpt>
<trkpt lat="34.988912" lon="-84.95158"><ele>302.4</ele><time>2026-07-30T21:04:32Z</time></trkpt>
<trkpt lat="34.98887" lon="-84.951581"><ele>301.4</ele><time>2026-07-30T21:04:35Z</time></trkpt>
<trkpt lat="34.988841" lon="-84.951576"><ele>301.4</ele><time>2026-07-30T21:04:37Z</time></trkpt>
<trkpt lat="34.988813" lon="-84.951571"><ele>301.8</ele><time>2026-07-30T21:04:39Z</time></trkpt>
<trkpt lat="34.988778" lon="-84.951564"><ele>300.8</ele><time>2026-07-30T21:04:41Z</time></trkpt>
<trkpt lat="34.988746" lon="-84.951555"><ele>300.8</ele><time>2026-07-30T21:04:43Z</time></trkpt>
<trkpt lat="34.988714" lon="-84.951548"><ele>300.2</ele><time>2026-07-30T21:04:45Z</time></trkpt>
<trkpt lat="34.988685" lon="-84.951534"><ele>299.3</ele><time>2026-07-30T21:04:47Z</time></trkpt>
<trkpt lat="34.988656" lon="-84.951525"><ele>299.6</ele><time>2026-07-30T21:04:49Z</time></trkpt>
<trkpt lat="34.988629" lon="-84.951508"><ele>299.9</ele><time>2026-07-30T21:04:51Z</time></trkpt>
<trkpt lat="34.988592" lon="-84.951482"><ele>300.2</ele><time>2026-07-30T21:04:54Z</time></trkpt>
<trkpt lat="34.988566" lon="-84.951466"><ele>300.5</ele><time>2026-07-30T21:04:56Z</time></trkpt>
<trkpt lat="34.988541" lon="-84.951445"><ele>300.2</ele><time>2026-07-30T21:04:58Z</time></trkpt>
<trkpt lat="34.988511" lon="-84.951446"><ele>299.9</ele><time>2026-07-30T21:05:00Z</time></trkpt>
<trkpt lat="34.988482" lon="-84.951439"><ele>300.8</ele><time>2026-07-30T21:05:02Z</time></trkpt>
<trkpt lat="34.988456" lon="-84.951423"><ele>300.5</ele><time>2026-07-30T21:05:04Z</time></trkpt>
<trkpt lat="34.988429" lon="-84.95141"><ele>299.6</ele><time>2026-07-30T21:05:06Z</time></trkpt>
<trkpt lat="34.988401" lon="-84.951398"><ele>298.7</ele><time>2026-07-30T21:05:08Z</time></trkpt>
<trkpt lat="34.988373" lon="-84.951394"><ele>298.7</ele><time>2026-07-30T21:05:10Z</time></trkpt>
<trkpt lat="34.988346" lon="-84.951383"><ele>298.7</ele><time>2026-07-30T21:05:12Z</time></trkpt>
<trkpt lat="34.988319" lon="-84.951369"><ele>297.5</ele><time>2026-07-30T21:05:14Z</time></trkpt>
<trkpt lat="34.988297" lon="-84.951346"><ele>297.2</ele><time>2026-07-30T21:05:16Z</time></trkpt>
<trkpt lat="34.988273" lon="-84.951327"><ele>297.2</ele><time>2026-07-30T21:05:18Z</time></trkpt>
<trkpt lat="34.988251" lon="-84.951305"><ele>296.6</ele><time>2026-07-30T21:05:20Z</time></trkpt>
<trkpt lat="34.988238" lon="-84.951256"><ele>296.6</ele><time>2026-07-30T21:05:23Z</time></trkpt>
<trkpt lat="34.988236" lon="-84.951219"><ele>296.3</ele><time>2026-07-30T21:05:25Z</time></trkpt>
<trkpt lat="34.98824" lon="-84.95118"><ele>298.1</ele><time>2026-07-30T21:05:27Z</time></trkpt>
<trkpt lat="34.988251" lon="-84.951142"><ele>297.5</ele><time>2026-07-30T21:05:29Z</time></trkpt>
<trkpt lat="34.988255" lon="-84.951107"><ele>296.9</ele><time>2026-07-30T21:05:31Z</time></trkpt>
<trkpt lat="34.988263" lon="-84.951071"><ele>297.5</ele><time>2026-07-30T21:05:33Z</time></trkpt>
<trkpt lat="34.988273" lon="-84.951034"><ele>298.1</ele><time>2026-07-30T21:05:35Z</time></trkpt>
<trkpt lat="34.98829" lon="-84.951001"><ele>298.1</ele><time>2026-07-30T21:05:37Z</time></trkpt>
<trkpt lat="34.9883" lon="-84.950969"><ele>298.1</ele><time>2026-07-30T21:05:39Z</time></trkpt>
<trkpt lat="34.988305" lon="-84.950935"><ele>298.1</ele><time>2026-07-30T21:05:41Z</time></trkpt>
<trkpt lat="34.988317" lon="-84.950899"><ele>298.1</ele><time>2026-07-30T21:05:43Z</time></trkpt>
<trkpt lat="34.988332" lon="-84.950866"><ele>297.2</ele><time>2026-07-30T21:05:45Z</time></trkpt>
<trkpt lat="34.988342" lon="-84.950832"><ele>298.1</ele><time>2026-07-30T21:05:47Z</time></trkpt>
<trkpt lat="34.988359" lon="-84.950803"><ele>297.8</ele><time>2026-07-30T21:05:49Z</time></trkpt>
<trkpt lat="34.988382" lon="-84.950764"><ele>296.3</ele><time>2026-07-30T21:05:52Z</time></trkpt>
<trkpt lat="34.988394" lon="-84.950732"><ele>296.9</ele><time>2026-07-30T21:05:54Z</time></trkpt>
<trkpt lat="34.988415" lon="-84.950692"><ele>296.0</ele><time>2026-07-30T21:05:57Z</time></trkpt>
<trkpt lat="34.988425" lon="-84.950661"><ele>296.6</ele><time>2026-07-30T21:05:59Z</time></trkpt>
<trkpt lat="34.988426" lon="-84.950626"><ele>298.1</ele><time>2026-07-30T21:06:01Z</time></trkpt>
<trkpt lat="34.988432" lon="-84.950592"><ele>296.6</ele><time>2026-07-30T21:06:03Z</time></trkpt>
<trkpt lat="34.988444" lon="-84.950559"><ele>297.2</ele><time>2026-07-30T21:06:05Z</time></trkpt>
<trkpt lat="34.988459" lon="-84.950528"><ele>296.6</ele><time>2026-07-30T21:06:07Z</time></trkpt>
<trkpt lat="34.988473" lon="-84.950495"><ele>296.9</ele><time>2026-07-30T21:06:09Z</time></trkpt>
<trkpt lat="34.988479" lon="-84.950456"><ele>296.3</ele><time>2026-07-30T21:06:11Z</time></trkpt>
<trkpt lat="34.988477" lon="-84.950416"><ele>295.4</ele><time>2026-07-30T21:06:13Z</time></trkpt>
<trkpt lat="34.988485" lon="-84.950376"><ele>295.0</ele><time>2026-07-30T21:06:15Z</time></trkpt>
<trkpt lat="34.988489" lon="-84.950336"><ele>294.4</ele><time>2026-07-30T21:06:17Z</time></trkpt>
<trkpt lat="34.988501" lon="-84.950298"><ele>294.7</ele><time>2026-07-30T21:06:19Z</time></trkpt>
<trkpt lat="34.988515" lon="-84.950264"><ele>296.9</ele><time>2026-07-30T21:06:21Z</time></trkpt>
<trkpt lat="34.98853" lon="-84.950234"><ele>297.2</ele><time>2026-07-30T21:06:23Z</time></trkpt>
<trkpt lat="34.988542" lon="-84.950202"><ele>297.5</ele><time>2026-07-30T21:06:25Z</time></trkpt>
<trkpt lat="34.988552" lon="-84.950167"><ele>296.6</ele><time>2026-07-30T21:06:27Z</time></trkpt>
<trkpt lat="34.988569" lon="-84.950136"><ele>296.0</ele><time>2026-07-30T21:06:29Z</time></trkpt>
<trkpt lat="34.988585" lon="-84.950094"><ele>295.0</ele><time>2026-07-30T21:06:32Z</time></trkpt>
<trkpt lat="34.988609" lon="-84.950056"><ele>296.0</ele><time>2026-07-30T21:06:35Z</time></trkpt>
<trkpt lat="34.988625" lon="-84.95001"><ele>294.4</ele><time>2026-07-30T21:06:38Z</time></trkpt>
<trkpt lat="34.988629" lon="-84.949974"><ele>295.7</ele><time>2026-07-30T21:06:40Z</time></trkpt>
<trkpt lat="34.988634" lon="-84.94994"><ele>295.7</ele><time>2026-07-30T21:06:42Z</time></trkpt>
<trkpt lat="34.988629" lon="-84.949904"><ele>294.7</ele><time>2026-07-30T21:06:44Z</time></trkpt>
<trkpt lat="34.988624" lon="-84.949855"><ele>296.3</ele><time>2026-07-30T21:06:47Z</time></trkpt>
<trkpt lat="34.988627" lon="-84.949816"><ele>297.2</ele><time>2026-07-30T21:06:49Z</time></trkpt>
<trkpt lat="34.988631" lon="-84.949767"><ele>296.6</ele><time>2026-07-30T21:06:52Z</time></trkpt>
<trkpt lat="34.988639" lon="-84.949722"><ele>295.7</ele><time>2026-07-30T21:06:55Z</time></trkpt>
<trkpt lat="34.988646" lon="-84.949688"><ele>296.3</ele><time>2026-07-30T21:06:57Z</time></trkpt>
<trkpt lat="34.988655" lon="-84.949644"><ele>296.9</ele><time>2026-07-30T21:07:00Z</time></trkpt>
<trkpt lat="34.988674" lon="-84.949606"><ele>294.4</ele><time>2026-07-30T21:07:03Z</time></trkpt>
<trkpt lat="34.988699" lon="-84.949576"><ele>292.3</ele><time>2026-07-30T21:07:06Z</time></trkpt>
<trkpt lat="34.988727" lon="-84.949546"><ele>291.4</ele><time>2026-07-30T21:07:09Z</time></trkpt>
<trkpt lat="34.988744" lon="-84.949506"><ele>291.4</ele><time>2026-07-30T21:07:12Z</time></trkpt>
<trkpt lat="34.98875" lon="-84.949459"><ele>291.7</ele><time>2026-07-30T21:07:15Z</time></trkpt>
<trkpt lat="34.988761" lon="-84.949428"><ele>290.8</ele><time>2026-07-30T21:07:17Z</time></trkpt>
<trkpt lat="34.988772" lon="-84.949395"><ele>291.1</ele><time>2026-07-30T21:07:19Z</time></trkpt>
<trkpt lat="34.988778" lon="-84.949359"><ele>293.8</ele><time>2026-07-30T21:07:21Z</time></trkpt>
<trkpt lat="34.988793" lon="-84.949314"><ele>294.4</ele><time>2026-07-30T21:07:24Z</time></trkpt>
<trkpt lat="34.988813" lon="-84.949283"><ele>291.1</ele><time>2026-07-30T21:07:27Z</time></trkpt>
<trkpt lat="34.988841" lon="-84.949262"><ele>288.6</ele><time>2026-07-30T21:07:30Z</time></trkpt>
<trkpt lat="34.988873" lon="-84.949252"><ele>287.4</ele><time>2026-07-30T21:07:33Z</time></trkpt>
<trkpt lat="34.988901" lon="-84.949228"><ele>286.8</ele><time>2026-07-30T21:07:36Z</time></trkpt>
<trkpt lat="34.988906" lon="-84.949192"><ele>286.5</ele><time>2026-07-30T21:07:38Z</time></trkpt>
<trkpt lat="34.98891" lon="-84.949158"><ele>287.4</ele><time>2026-07-30T21:07:40Z</time></trkpt>
<trkpt lat="34.988909" lon="-84.949119"><ele>287.1</ele><time>2026-07-30T21:07:42Z</time></trkpt>
<trkpt lat="34.988908" lon="-84.949085"><ele>285.9</ele><time>2026-07-30T21:07:44Z</time></trkpt>
<trkpt lat="34.988909" lon="-84.949051"><ele>284.4</ele><time>2026-07-30T21:07:46Z</time></trkpt>
<trkpt lat="34.988905" lon="-84.949014"><ele>283.5</ele><time>2026-07-30T21:07:48Z</time></trkpt>
<trkpt lat="34.988894" lon="-84.948979"><ele>285.0</ele><time>2026-07-30T21:07:50Z</time></trkpt>
<trkpt lat="34.988872" lon="-84.948948"><ele>284.4</ele><time>2026-07-30T21:07:52Z</time></trkpt>
<trkpt lat="34.988845" lon="-84.948926"><ele>284.7</ele><time>2026-07-30T21:07:54Z</time></trkpt>
<trkpt lat="34.988821" lon="-84.948904"><ele>284.1</ele><time>2026-07-30T21:07:56Z</time></trkpt>
<trkpt lat="34.988795" lon="-84.948883"><ele>283.5</ele><time>2026-07-30T21:07:58Z</time></trkpt>
<trkpt lat="34.988772" lon="-84.948861"><ele>283.2</ele><time>2026-07-30T21:08:00Z</time></trkpt>
<trkpt lat="34.988754" lon="-84.948833"><ele>283.5</ele><time>2026-07-30T21:08:02Z</time></trkpt>
<trkpt lat="34.98875" lon="-84.9488"><ele>282.9</ele><time>2026-07-30T21:08:04Z</time></trkpt>
<trkpt lat="34.988742" lon="-84.948755"><ele>282.2</ele><time>2026-07-30T21:08:07Z</time></trkpt>
<trkpt lat="34.98874" lon="-84.948705"><ele>282.2</ele><time>2026-07-30T21:08:10Z</time></trkpt>
<trkpt lat="34.988744" lon="-84.948671"><ele>282.2</ele><time>2026-07-30T21:08:12Z</time></trkpt>
<trkpt lat="34.988764" lon="-84.948641"><ele>281.3</ele><time>2026-07-30T21:08:14Z</time></trkpt>
<trkpt lat="34.988778" lon="-84.94861"><ele>281.3</ele><time>2026-07-30T21:08:16Z</time></trkpt>
<trkpt lat="34.988797" lon="-84.948566"><ele>281.6</ele><time>2026-07-30T21:08:19Z</time></trkpt>
<trkpt lat="34.988817" lon="-84.948528"><ele>284.1</ele><time>2026-07-30T21:08:22Z</time></trkpt>
<trkpt lat="34.988846" lon="-84.948494"><ele>284.1</ele><time>2026-07-30T21:08:25Z</time></trkpt>
<trkpt lat="34.988867" lon="-84.948452"><ele>285.6</ele><time>2026-07-30T21:08:28Z</time></trkpt>
<trkpt lat="34.988884" lon="-84.948406"><ele>285.9</ele><time>2026-07-30T21:08:31Z</time></trkpt>
<trkpt lat="34.9889" lon="-84.948376"><ele>285.9</ele><time>2026-07-30T21:08:33Z</time></trkpt>
<trkpt lat="34.988934" lon="-84.948358"><ele>282.9</ele><time>2026-07-30T21:08:36Z</time></trkpt>
<trkpt lat="34.988973" lon="-84.948352"><ele>281.0</ele><time>2026-07-30T21:08:39Z</time></trkpt>
<trkpt lat="34.989009" lon="-84.948329"><ele>280.7</ele><time>2026-07-30T21:08:42Z</time></trkpt>
<trkpt lat="34.989043" lon="-84.948303"><ele>281.3</ele><time>2026-07-30T21:08:45Z</time></trkpt>
<trkpt lat="34.989075" lon="-84.948273"><ele>281.6</ele><time>2026-07-30T21:08:48Z</time></trkpt>
<trkpt lat="34.989112" lon="-84.948253"><ele>281.6</ele><time>2026-07-30T21:08:51Z</time></trkpt>
<trkpt lat="34.989152" lon="-84.94824"><ele>281.9</ele><time>2026-07-30T21:08:54Z</time></trkpt>
<trkpt lat="34.989179" lon="-84.948235"><ele>281.6</ele><time>2026-07-30T21:08:56Z</time></trkpt>
<trkpt lat="34.989208" lon="-84.948242"><ele>281.0</ele><time>2026-07-30T21:08:58Z</time></trkpt>
<trkpt lat="34.989236" lon="-84.948241"><ele>281.6</ele><time>2026-07-30T21:09:00Z</time></trkpt>
<trkpt lat="34.989264" lon="-84.948242"><ele>280.1</ele><time>2026-07-30T21:09:02Z</time></trkpt>
<trkpt lat="34.989293" lon="-84.948242"><ele>280.7</ele><time>2026-07-30T21:09:04Z</time></trkpt>
<trkpt lat="34.989332" lon="-84.948241"><ele>281.6</ele><time>2026-07-30T21:09:07Z</time></trkpt>
<trkpt lat="34.989371" lon="-84.948253"><ele>282.2</ele><time>2026-07-30T21:09:10Z</time></trkpt>
<trkpt lat="34.989399" lon="-84.948266"><ele>281.9</ele><time>2026-07-30T21:09:12Z</time></trkpt>
<trkpt lat="34.989424" lon="-84.948279"><ele>282.2</ele><time>2026-07-30T21:09:14Z</time></trkpt>
<trkpt lat="34.989462" lon="-84.948295"><ele>284.4</ele><time>2026-07-30T21:09:17Z</time></trkpt>
<trkpt lat="34.989498" lon="-84.94831"><ele>284.7</ele><time>2026-07-30T21:09:20Z</time></trkpt>
<trkpt lat="34.989526" lon="-84.948313"><ele>283.8</ele><time>2026-07-30T21:09:22Z</time></trkpt>
<trkpt lat="34.989554" lon="-84.948315"><ele>281.9</ele><time>2026-07-30T21:09:24Z</time></trkpt>
<trkpt lat="34.989583" lon="-84.948311"><ele>282.2</ele><time>2026-07-30T21:09:26Z</time></trkpt>
<trkpt lat="34.989622" lon="-84.948304"><ele>280.7</ele><time>2026-07-30T21:09:29Z</time></trkpt>
<trkpt lat="34.989659" lon="-84.948288"><ele>279.8</ele><time>2026-07-30T21:09:32Z</time></trkpt>
<trkpt lat="34.989687" lon="-84.948283"><ele>279.5</ele><time>2026-07-30T21:09:34Z</time></trkpt>
<trkpt lat="34.989728" lon="-84.948281"><ele>281.0</ele><time>2026-07-30T21:09:37Z</time></trkpt>
<trkpt lat="34.989767" lon="-84.948274"><ele>282.5</ele><time>2026-07-30T21:09:40Z</time></trkpt>
<trkpt lat="34.989806" lon="-84.948269"><ele>283.5</ele><time>2026-07-30T21:09:43Z</time></trkpt>
<trkpt lat="34.989845" lon="-84.948255"><ele>283.8</ele><time>2026-07-30T21:09:46Z</time></trkpt>
<trkpt lat="34.989872" lon="-84.948236"><ele>283.2</ele><time>2026-07-30T21:09:48Z</time></trkpt>
<trkpt lat="34.989901" lon="-84.948221"><ele>283.5</ele><time>2026-07-30T21:09:50Z</time></trkpt>
<trkpt lat="34.989923" lon="-84.9482"><ele>283.2</ele><time>2026-07-30T21:09:52Z</time></trkpt>
<trkpt lat="34.989943" lon="-84.948176"><ele>284.4</ele><time>2026-07-30T21:09:54Z</time></trkpt>
<trkpt lat="34.989965" lon="-84.948154"><ele>285.0</ele><time>2026-07-30T21:09:56Z</time></trkpt>
<trkpt lat="34.989987" lon="-84.94813"><ele>285.3</ele><time>2026-07-30T21:09:58Z</time></trkpt>
<trkpt lat="34.990007" lon="-84.948105"><ele>286.2</ele><time>2026-07-30T21:10:00Z</time></trkpt>
<trkpt lat="34.990028" lon="-84.948078"><ele>284.4</ele><time>2026-07-30T21:10:02Z</time></trkpt>
<trkpt lat="34.990055" lon="-84.948059"><ele>284.4</ele><time>2026-07-30T21:10:04Z</time></trkpt>
<trkpt lat="34.990079" lon="-84.948032"><ele>283.2</ele><time>2026-07-30T21:10:06Z</time></trkpt>
<trkpt lat="34.990103" lon="-84.948006"><ele>281.6</ele><time>2026-07-30T21:10:08Z</time></trkpt>
<trkpt lat="34.990128" lon="-84.947981"><ele>282.2</ele><time>2026-07-30T21:10:10Z</time></trkpt>
<trkpt lat="34.990157" lon="-84.947967"><ele>282.2</ele><time>2026-07-30T21:10:12Z</time></trkpt>
<trkpt lat="34.990186" lon="-84.947964"><ele>282.5</ele><time>2026-07-30T21:10:14Z</time></trkpt>
<trkpt lat="34.990216" lon="-84.94797"><ele>283.5</ele><time>2026-07-30T21:10:16Z</time></trkpt>
<trkpt lat="34.990256" lon="-84.947973"><ele>283.2</ele><time>2026-07-30T21:10:19Z</time></trkpt>
<trkpt lat="34.990284" lon="-84.947986"><ele>281.3</ele><time>2026-07-30T21:10:21Z</time></trkpt>
<trkpt lat="34.990313" lon="-84.947989"><ele>280.7</ele><time>2026-07-30T21:10:23Z</time></trkpt>
<trkpt lat="34.990344" lon="-84.947985"><ele>280.7</ele><time>2026-07-30T21:10:25Z</time></trkpt>
<trkpt lat="34.990368" lon="-84.947958"><ele>281.3</ele><time>2026-07-30T21:10:27Z</time></trkpt>
<trkpt lat="34.990377" lon="-84.947922"><ele>281.0</ele><time>2026-07-30T21:10:29Z</time></trkpt>
<trkpt lat="34.990385" lon="-84.947885"><ele>281.0</ele><time>2026-07-30T21:10:31Z</time></trkpt>
<trkpt lat="34.990398" lon="-84.947851"><ele>281.9</ele><time>2026-07-30T21:10:33Z</time></trkpt>
<trkpt lat="34.990412" lon="-84.947817"><ele>281.9</ele><time>2026-07-30T21:10:35Z</time></trkpt>
<trkpt lat="34.990431" lon="-84.94779"><ele>284.7</ele><time>2026-07-30T21:10:37Z</time></trkpt>
<trkpt lat="34.990464" lon="-84.947761"><ele>284.4</ele><time>2026-07-30T21:10:40Z</time></trkpt>
<trkpt lat="34.990491" lon="-84.947745"><ele>282.2</ele><time>2026-07-30T21:10:42Z</time></trkpt>
<trkpt lat="34.99052" lon="-84.947738"><ele>281.3</ele><time>2026-07-30T21:10:44Z</time></trkpt>
<trkpt lat="34.990555" lon="-84.947732"><ele>280.7</ele><time>2026-07-30T21:10:47Z</time></trkpt>
<trkpt lat="34.990588" lon="-84.947741"><ele>279.5</ele><time>2026-07-30T21:10:50Z</time></trkpt>
<trkpt lat="34.990625" lon="-84.947739"><ele>276.8</ele><time>2026-07-30T21:10:53Z</time></trkpt>
<trkpt lat="34.990652" lon="-84.947727"><ele>275.8</ele><time>2026-07-30T21:10:55Z</time></trkpt>
<trkpt lat="34.990685" lon="-84.947712"><ele>274.3</ele><time>2026-07-30T21:10:57Z</time></trkpt>
<trkpt lat="34.990715" lon="-84.947694"><ele>273.7</ele><time>2026-07-30T21:10:59Z</time></trkpt>
<trkpt lat="34.990742" lon="-84.947682"><ele>273.4</ele><time>2026-07-30T21:11:01Z</time></trkpt>
<trkpt lat="34.990767" lon="-84.947668"><ele>274.9</ele><time>2026-07-30T21:11:03Z</time></trkpt>
<trkpt lat="34.990791" lon="-84.947646"><ele>274.9</ele><time>2026-07-30T21:11:05Z</time></trkpt>
<trkpt lat="34.990813" lon="-84.947621"><ele>274.0</ele><time>2026-07-30T21:11:07Z</time></trkpt>
<trkpt lat="34.990833" lon="-84.947593"><ele>273.4</ele><time>2026-07-30T21:11:09Z</time></trkpt>
<trkpt lat="34.990851" lon="-84.947562"><ele>274.9</ele><time>2026-07-30T21:11:11Z</time></trkpt>
<trkpt lat="34.990862" lon="-84.947531"><ele>277.7</ele><time>2026-07-30T21:11:13Z</time></trkpt>
<trkpt lat="34.990881" lon="-84.947509"><ele>279.8</ele><time>2026-07-30T21:11:15Z</time></trkpt>
<trkpt lat="34.990889" lon="-84.947513"><ele>278.6</ele><time>2026-07-30T21:11:16Z</time></trkpt>
<trkpt lat="34.9909" lon="-84.947501"><ele>279.5</ele><time>2026-07-30T21:11:17Z</time></trkpt>
<trkpt lat="34.990927" lon="-84.947478"><ele>279.2</ele><time>2026-07-30T21:11:20Z</time></trkpt>
<trkpt lat="34.990959" lon="-84.94747"><ele>278.6</ele><time>2026-07-30T21:11:23Z</time></trkpt>
<trkpt lat="34.990998" lon="-84.947461"><ele>277.4</ele><time>2026-07-30T21:11:26Z</time></trkpt>
<trkpt lat="34.991028" lon="-84.947441"><ele>276.8</ele><time>2026-07-30T21:11:29Z</time></trkpt>
<trkpt lat="34.991049" lon="-84.947395"><ele>275.5</ele><time>2026-07-30T21:11:32Z</time></trkpt>
<trkpt lat="34.991059" lon="-84.947359"><ele>275.5</ele><time>2026-07-30T21:11:34Z</time></trkpt>
<trkpt lat="34.99106" lon="-84.947321"><ele>276.5</ele><time>2026-07-30T21:11:36Z</time></trkpt>
<trkpt lat="34.991082" lon="-84.947289"><ele>277.4</ele><time>2026-07-30T21:11:38Z</time></trkpt>
<trkpt lat="34.99111" lon="-84.947279"><ele>276.1</ele><time>2026-07-30T21:11:40Z</time></trkpt>
<trkpt lat="34.99114" lon="-84.947264"><ele>276.8</ele><time>2026-07-30T21:11:43Z</time></trkpt>
<trkpt lat="34.99117" lon="-84.947267"><ele>274.6</ele><time>2026-07-30T21:11:48Z</time></trkpt>
<trkpt lat="34.991176" lon="-84.947302"><ele>271.3</ele><time>2026-07-30T21:11:50Z</time></trkpt>
<trkpt lat="34.991174" lon="-84.947308"><ele>271.6</ele><time>2026-07-30T21:11:51Z</time></trkpt>
<trkpt lat="34.991173" lon="-84.947308"><ele>271.6</ele><time>2026-07-30T21:11:52Z</time></trkpt>
<trkpt lat="34.991171" lon="-84.947304"><ele>272.5</ele><time>2026-07-30T21:11:53Z</time></trkpt>
<trkpt lat="34.99117" lon="-84.947301"><ele>272.8</ele><time>2026-07-30T21:11:56Z</time></trkpt>
<trkpt lat="34.991172" lon="-84.9473"><ele>272.8</ele><time>2026-07-30T21:11:57Z</time></trkpt>
<trkpt lat="34.991172" lon="-84.947305"><ele>272.8</ele><time>2026-07-30T21:12:00Z</time></trkpt>
<trkpt lat="34.991165" lon="-84.947304"><ele>273.4</ele><time>2026-07-30T21:12:01Z</time></trkpt>
<trkpt lat="34.991161" lon="-84.947302"><ele>273.4</ele><time>2026-07-30T21:12:02Z</time></trkpt>
<trkpt lat="34.991159" lon="-84.947299"><ele>273.1</ele><time>2026-07-30T21:12:03Z</time></trkpt>
<trkpt lat="34.991158" lon="-84.947298"><ele>273.4</ele><time>2026-07-30T21:12:12Z</time></trkpt>
<trkpt lat="34.991158" lon="-84.947298"><ele>273.4</ele><time>2026-07-30T21:12:13Z</time></trkpt>
<trkpt lat="34.991157" lon="-84.947296"><ele>273.7</ele><time>2026-07-30T21:12:14Z</time></trkpt>
<trkpt lat="34.991159" lon="-84.947293"><ele>272.5</ele><time>2026-07-30T21:12:15Z</time></trkpt>
<trkpt lat="34.991158" lon="-84.947296"><ele>271.6</ele><time>2026-07-30T21:12:16Z</time></trkpt>
<trkpt lat="34.991158" lon="-84.947295"><ele>271.9</ele><time>2026-07-30T21:12:17Z</time></trkpt>
<trkpt lat="34.991166" lon="-84.947294"><ele>271.9</ele><time>2026-07-30T21:12:18Z</time></trkpt>
<trkpt lat="34.991198" lon="-84.947299"><ele>271.6</ele><time>2026-07-30T21:12:20Z</time></trkpt>
<trkpt lat="34.991229" lon="-84.94731"><ele>272.8</ele><time>2026-07-30T21:12:22Z</time></trkpt>
<trkpt lat="34.991258" lon="-84.947318"><ele>273.4</ele><time>2026-07-30T21:12:24Z</time></trkpt>
<trkpt lat="34.991285" lon="-84.94734"><ele>273.4</ele><time>2026-07-30T21:12:27Z</time></trkpt>
<trkpt lat="34.991319" lon="-84.947365"><ele>273.7</ele><time>2026-07-30T21:12:30Z</time></trkpt>
<trkpt lat="34.99135" lon="-84.947353"><ele>273.4</ele><time>2026-07-30T21:12:32Z</time></trkpt>
<trkpt lat="34.991383" lon="-84.947346"><ele>274.0</ele><time>2026-07-30T21:12:34Z</time></trkpt>
<trkpt lat="34.991416" lon="-84.947355"><ele>274.3</ele><time>2026-07-30T21:12:36Z</time></trkpt>
<trkpt lat="34.99145" lon="-84.947364"><ele>275.5</ele><time>2026-07-30T21:12:38Z</time></trkpt>
<trkpt lat="34.99148" lon="-84.947374"><ele>274.6</ele><time>2026-07-30T21:12:40Z</time></trkpt>
<trkpt lat="34.991512" lon="-84.947369"><ele>272.2</ele><time>2026-07-30T21:12:42Z</time></trkpt>
<trkpt lat="34.991535" lon="-84.947343"><ele>272.8</ele><time>2026-07-30T21:12:46Z</time></trkpt>
<trkpt lat="34.991564" lon="-84.947346"><ele>271.3</ele><time>2026-07-30T21:12:48Z</time></trkpt>
<trkpt lat="34.991592" lon="-84.947353"><ele>273.1</ele><time>2026-07-30T21:12:50Z</time></trkpt>
<trkpt lat="34.991628" lon="-84.947352"><ele>274.6</ele><time>2026-07-30T21:12:53Z</time></trkpt>
<trkpt lat="34.991658" lon="-84.947339"><ele>276.8</ele><time>2026-07-30T21:12:56Z</time></trkpt>
<trkpt lat="34.991685" lon="-84.947335"><ele>277.7</ele><time>2026-07-30T21:12:58Z</time></trkpt>
<trkpt lat="34.991718" lon="-84.947334"><ele>278.6</ele><time>2026-07-30T21:13:01Z</time></trkpt>
<trkpt lat="34.991749" lon="-84.947344"><ele>278.3</ele><time>2026-07-30T21:13:04Z</time></trkpt>
<trkpt lat="34.991777" lon="-84.947363"><ele>275.8</ele><time>2026-07-30T21:13:06Z</time></trkpt>
<trkpt lat="34.991801" lon="-84.947388"><ele>276.1</ele><time>2026-07-30T21:13:08Z</time></trkpt>
<trkpt lat="34.991826" lon="-84.947421"><ele>276.5</ele><time>2026-07-30T21:13:10Z</time></trkpt>
<trkpt lat="34.991854" lon="-84.947447"><ele>277.4</ele><time>2026-07-30T21:13:12Z</time></trkpt>
<trkpt lat="34.991887" lon="-84.947464"><ele>276.5</ele><time>2026-07-30T21:13:14Z</time></trkpt>
<trkpt lat="34.99191" lon="-84.947492"><ele>275.8</ele><time>2026-07-30T21:13:16Z</time></trkpt>
<trkpt lat="34.991934" lon="-84.947512"><ele>273.4</ele><time>2026-07-30T21:13:18Z</time></trkpt>
<trkpt lat="34.991965" lon="-84.947523"><ele>274.0</ele><time>2026-07-30T21:13:20Z</time></trkpt>
<trkpt lat="34.991992" lon="-84.947541"><ele>274.6</ele><time>2026-07-30T21:13:22Z</time></trkpt>
<trkpt lat="34.992015" lon="-84.947559"><ele>274.0</ele><time>2026-07-30T21:13:24Z</time></trkpt>
<trkpt lat="34.992041" lon="-84.947579"><ele>274.0</ele><time>2026-07-30T21:13:26Z</time></trkpt>
<trkpt lat="34.992078" lon="-84.947598"><ele>276.5</ele><time>2026-07-30T21:13:29Z</time></trkpt>
<trkpt lat="34.992106" lon="-84.947612"><ele>277.4</ele><time>2026-07-30T21:13:31Z</time></trkpt>
<trkpt lat="34.992135" lon="-84.947637"><ele>276.8</ele><time>2026-07-30T21:13:34Z</time></trkpt>
<trkpt lat="34.992162" lon="-84.947655"><ele>275.8</ele><time>2026-07-30T21:13:37Z</time></trkpt>
<trkpt lat="34.992185" lon="-84.947678"><ele>277.4</ele><time>2026-07-30T21:13:40Z</time></trkpt>
<trkpt lat="34.992208" lon="-84.947699"><ele>278.3</ele><time>2026-07-30T21:13:43Z</time></trkpt>
<trkpt lat="34.992223" lon="-84.947736"><ele>280.7</ele><time>2026-07-30T21:13:46Z</time></trkpt>
<trkpt lat="34.992234" lon="-84.947776"><ele>279.2</ele><time>2026-07-30T21:13:49Z</time></trkpt>
<trkpt lat="34.992248" lon="-84.947807"><ele>280.1</ele><time>2026-07-30T21:13:52Z</time></trkpt>
<trkpt lat="34.992261" lon="-84.947844"><ele>281.9</ele><time>2026-07-30T21:13:55Z</time></trkpt>
<trkpt lat="34.992267" lon="-84.947879"><ele>280.7</ele><time>2026-07-30T21:13:57Z</time></trkpt>
<trkpt lat="34.992264" lon="-84.947914"><ele>282.9</ele><time>2026-07-30T21:13:59Z</time></trkpt>
<trkpt lat="34.992263" lon="-84.947958"><ele>284.7</ele><time>2026-07-30T21:14:02Z</time></trkpt>
<trkpt lat="34.992287" lon="-84.947993"><ele>286.2</ele><time>2026-07-30T21:14:05Z</time></trkpt>
<trkpt lat="34.992316" lon="-84.948017"><ele>286.5</ele><time>2026-07-30T21:14:08Z</time></trkpt>
<trkpt lat="34.992342" lon="-84.948036"><ele>288.0</ele><time>2026-07-30T21:14:11Z</time></trkpt>
<trkpt lat="34.992379" lon="-84.948031"><ele>288.0</ele><time>2026-07-30T21:14:14Z</time></trkpt>
<trkpt lat="34.992418" lon="-84.948037"><ele>287.4</ele><time>2026-07-30T21:14:17Z</time></trkpt>
<trkpt lat="34.992458" lon="-84.948037"><ele>288.0</ele><time>2026-07-30T21:14:20Z</time></trkpt>
<trkpt lat="34.992494" lon="-84.94805"><ele>288.3</ele><time>2026-07-30T21:14:23Z</time></trkpt>
<trkpt lat="34.992488" lon="-84.948045"><ele>286.8</ele><time>2026-07-30T21:14:24Z</time></trkpt>
<trkpt lat="34.992483" lon="-84.948045"><ele>287.4</ele><time>2026-07-30T21:14:28Z</time></trkpt>
<trkpt lat="34.992484" lon="-84.948047"><ele>288.0</ele><time>2026-07-30T21:14:29Z</time></trkpt>
<trkpt lat="34.992481" lon="-84.948058"><ele>289.6</ele><time>2026-07-30T21:14:30Z</time></trkpt>
<trkpt lat="34.99248" lon="-84.948062"><ele>289.6</ele><time>2026-07-30T21:14:32Z</time></trkpt>
<trkpt lat="34.992481" lon="-84.948064"><ele>289.3</ele><time>2026-07-30T21:14:33Z</time></trkpt>
<trkpt lat="34.99248" lon="-84.948065"><ele>289.3</ele><time>2026-07-30T21:14:34Z</time></trkpt>
<trkpt lat="34.992487" lon="-84.94807"><ele>289.6</ele><time>2026-07-30T21:14:35Z</time></trkpt>
<trkpt lat="34.992489" lon="-84.94807"><ele>289.6</ele><time>2026-07-30T21:14:36Z</time></trkpt>
<trkpt lat="34.992489" lon="-84.948069"><ele>289.3</ele><time>2026-07-30T21:14:37Z</time></trkpt>
<trkpt lat="34.992486" lon="-84.948066"><ele>288.3</ele><time>2026-07-30T21:14:38Z</time></trkpt>
<trkpt lat="34.992486" lon="-84.948063"><ele>287.7</ele><time>2026-07-30T21:14:39Z</time></trkpt>
<trkpt lat="34.99247" lon="-84.948057"><ele>287.1</ele><time>2026-07-30T21:14:40Z</time></trkpt>
<trkpt lat="34.992464" lon="-84.948055"><ele>287.1</ele><time>2026-07-30T21:14:42Z</time></trkpt>
<trkpt lat="34.992463" lon="-84.948051"><ele>286.8</ele><time>2026-07-30T21:14:43Z</time></trkpt>
<trkpt lat="34.992463" lon="-84.948051"><ele>286.8</ele><time>2026-07-30T21:14:44Z</time></trkpt>
<trkpt lat="34.992461" lon="-84.948048"><ele>286.5</ele><time>2026-07-30T21:14:45Z</time></trkpt>
<trkpt lat="34.99244" lon="-84.94802"><ele>286.8</ele><time>2026-07-30T21:14:48Z</time></trkpt>
<trkpt lat="34.99241" lon="-84.948011"><ele>287.4</ele><time>2026-07-30T21:14:50Z</time></trkpt>
<trkpt lat="34.992375" lon="-84.948001"><ele>288.3</ele><time>2026-07-30T21:14:52Z</time></trkpt>
<trkpt lat="34.992342" lon="-84.947988"><ele>288.0</ele><time>2026-07-30T21:14:54Z</time></trkpt>
<trkpt lat="34.992313" lon="-84.947974"><ele>289.3</ele><time>2026-07-30T21:14:56Z</time></trkpt>
<trkpt lat="34.992277" lon="-84.947953"><ele>289.0</ele><time>2026-07-30T21:14:59Z</time></trkpt>
<trkpt lat="34.992261" lon="-84.947924"><ele>288.6</ele><time>2026-07-30T21:15:01Z</time></trkpt>
<trkpt lat="34.992246" lon="-84.947893"><ele>288.0</ele><time>2026-07-30T21:15:03Z</time></trkpt>
<trkpt lat="34.992241" lon="-84.947853"><ele>288.3</ele><time>2026-07-30T21:15:05Z</time></trkpt>
<trkpt lat="34.992252" lon="-84.947817"><ele>288.3</ele><time>2026-07-30T21:15:07Z</time></trkpt>
<trkpt lat="34.992258" lon="-84.947784"><ele>288.6</ele><time>2026-07-30T21:15:09Z</time></trkpt>
<trkpt lat="34.992263" lon="-84.947747"><ele>287.4</ele><time>2026-07-30T21:15:11Z</time></trkpt>
<trkpt lat="34.992249" lon="-84.947713"><ele>287.7</ele><time>2026-07-30T21:15:13Z</time></trkpt>
<trkpt lat="34.992224" lon="-84.947675"><ele>288.6</ele><time>2026-07-30T21:15:16Z</time></trkpt>
<trkpt lat="34.992214" lon="-84.947633"><ele>288.0</ele><time>2026-07-30T21:15:19Z</time></trkpt>
<trkpt lat="34.992199" lon="-84.947595"><ele>287.4</ele><time>2026-07-30T21:15:22Z</time></trkpt>
<trkpt lat="34.992175" lon="-84.947573"><ele>286.8</ele><time>2026-07-30T21:15:24Z</time></trkpt>
<trkpt lat="34.992142" lon="-84.947559"><ele>285.9</ele><time>2026-07-30T21:15:26Z</time></trkpt>
<trkpt lat="34.992127" lon="-84.947526"><ele>285.6</ele><time>2026-07-30T21:15:28Z</time></trkpt>
<trkpt lat="34.992107" lon="-84.947489"><ele>285.6</ele><time>2026-07-30T21:15:31Z</time></trkpt>
<trkpt lat="34.992082" lon="-84.947467"><ele>285.3</ele><time>2026-07-30T21:15:34Z</time></trkpt>
<trkpt lat="34.992047" lon="-84.947448"><ele>286.2</ele><time>2026-07-30T21:15:37Z</time></trkpt>
<trkpt lat="34.992019" lon="-84.947455"><ele>286.2</ele><time>2026-07-30T21:15:39Z</time></trkpt>
<trkpt lat="34.991981" lon="-84.947451"><ele>284.1</ele><time>2026-07-30T21:15:42Z</time></trkpt>
<trkpt lat="34.991951" lon="-84.947432"><ele>285.3</ele><time>2026-07-30T21:15:45Z</time></trkpt>
<trkpt lat="34.991923" lon="-84.947421"><ele>284.7</ele><time>2026-07-30T21:15:48Z</time></trkpt>
<trkpt lat="34.991892" lon="-84.9474"><ele>282.2</ele><time>2026-07-30T21:15:51Z</time></trkpt>
<trkpt lat="34.991865" lon="-84.947392"><ele>283.2</ele><time>2026-07-30T21:15:53Z</time></trkpt>
<trkpt lat="34.991838" lon="-84.947377"><ele>283.2</ele><time>2026-07-30T21:15:55Z</time></trkpt>
<trkpt lat="34.991815" lon="-84.947353"><ele>283.2</ele><time>2026-07-30T21:15:57Z</time></trkpt>
<trkpt lat="34.991774" lon="-84.94736"><ele>283.5</ele><time>2026-07-30T21:16:00Z</time></trkpt>
<trkpt lat="34.991734" lon="-84.947351"><ele>281.6</ele><time>2026-07-30T21:16:03Z</time></trkpt>
<trkpt lat="34.991693" lon="-84.947334"><ele>281.0</ele><time>2026-07-30T21:16:06Z</time></trkpt>
<trkpt lat="34.991664" lon="-84.947326"><ele>279.5</ele><time>2026-07-30T21:16:08Z</time></trkpt>
<trkpt lat="34.991625" lon="-84.947332"><ele>277.1</ele><time>2026-07-30T21:16:11Z</time></trkpt>
<trkpt lat="34.991584" lon="-84.94733"><ele>275.8</ele><time>2026-07-30T21:16:14Z</time></trkpt>
<trkpt lat="34.991555" lon="-84.947319"><ele>276.5</ele><time>2026-07-30T21:16:16Z</time></trkpt>
<trkpt lat="34.991516" lon="-84.947308"><ele>274.0</ele><time>2026-07-30T21:16:19Z</time></trkpt>
<trkpt lat="34.991478" lon="-84.947318"><ele>271.6</ele><time>2026-07-30T21:16:22Z</time></trkpt>
<trkpt lat="34.991451" lon="-84.947327"><ele>271.3</ele><time>2026-07-30T21:16:24Z</time></trkpt>
<trkpt lat="34.991423" lon="-84.947334"><ele>272.8</ele><time>2026-07-30T21:16:26Z</time></trkpt>
<trkpt lat="34.991393" lon="-84.947328"><ele>271.9</ele><time>2026-07-30T21:16:28Z</time></trkpt>
<trkpt lat="34.991365" lon="-84.947338"><ele>272.8</ele><time>2026-07-30T21:16:30Z</time></trkpt>
<trkpt lat="34.99133" lon="-84.947354"><ele>273.4</ele><time>2026-07-30T21:16:33Z</time></trkpt>
<trkpt lat="34.991291" lon="-84.947341"><ele>274.6</ele><time>2026-07-30T21:16:36Z</time></trkpt>
<trkpt lat="34.991254" lon="-84.947326"><ele>272.8</ele><time>2026-07-30T21:16:39Z</time></trkpt>
<trkpt lat="34.991224" lon="-84.94733"><ele>271.6</ele><time>2026-07-30T21:16:41Z</time></trkpt>
<trkpt lat="34.991193" lon="-84.947328"><ele>272.5</ele><time>2026-07-30T21:16:43Z</time></trkpt>
<trkpt lat="34.991153" lon="-84.94732"><ele>272.5</ele><time>2026-07-30T21:16:46Z</time></trkpt>
<trkpt lat="34.991125" lon="-84.947314"><ele>273.4</ele><time>2026-07-30T21:16:48Z</time></trkpt>
<trkpt lat="34.991092" lon="-84.947297"><ele>273.4</ele><time>2026-07-30T21:16:51Z</time></trkpt>
<trkpt lat="34.991081" lon="-84.947295"><ele>274.0</ele><time>2026-07-30T21:16:52Z</time></trkpt>
<trkpt lat="34.991079" lon="-84.947296"><ele>274.9</ele><time>2026-07-30T21:16:53Z</time></trkpt>
<trkpt lat="34.991077" lon="-84.947297"><ele>274.9</ele><time>2026-07-30T21:16:54Z</time></trkpt>
<trkpt lat="34.991071" lon="-84.947301"><ele>274.9</ele><time>2026-07-30T21:16:55Z</time></trkpt>
<trkpt lat="34.991036" lon="-84.947303"><ele>275.2</ele><time>2026-07-30T21:16:58Z</time></trkpt>
<trkpt lat="34.991011" lon="-84.947327"><ele>274.9</ele><time>2026-07-30T21:17:00Z</time></trkpt>
<trkpt lat="34.990994" lon="-84.947361"><ele>273.7</ele><time>2026-07-30T21:17:02Z</time></trkpt>
<trkpt lat="34.990982" lon="-84.947395"><ele>273.7</ele><time>2026-07-30T21:17:04Z</time></trkpt>
<trkpt lat="34.990974" lon="-84.947437"><ele>274.6</ele><time>2026-07-30T21:17:06Z</time></trkpt>
<trkpt lat="34.990959" lon="-84.947474"><ele>274.6</ele><time>2026-07-30T21:17:08Z</time></trkpt>
<trkpt lat="34.990938" lon="-84.947501"><ele>274.9</ele><time>2026-07-30T21:17:10Z</time></trkpt>
<trkpt lat="34.99091" lon="-84.947512"><ele>275.8</ele><time>2026-07-30T21:17:12Z</time></trkpt>
<trkpt lat="34.990879" lon="-84.947518"><ele>277.1</ele><time>2026-07-30T21:17:14Z</time></trkpt>
<trkpt lat="34.990855" lon="-84.947537"><ele>278.3</ele><time>2026-07-30T21:17:16Z</time></trkpt>
<trkpt lat="34.99083" lon="-84.947554"><ele>279.8</ele><time>2026-07-30T21:17:18Z</time></trkpt>
<trkpt lat="34.990829" lon="-84.947593"><ele>281.6</ele><time>2026-07-30T21:17:20Z</time></trkpt>
<trkpt lat="34.990838" lon="-84.947596"><ele>280.4</ele><time>2026-07-30T21:17:21Z</time></trkpt>
<trkpt lat="34.990846" lon="-84.947602"><ele>280.4</ele><time>2026-07-30T21:17:24Z</time></trkpt>
<trkpt lat="34.990844" lon="-84.947598"><ele>280.4</ele><time>2026-07-30T21:17:25Z</time></trkpt>
<trkpt lat="34.990843" lon="-84.947593"><ele>280.7</ele><time>2026-07-30T21:17:26Z</time></trkpt>
<trkpt lat="34.990842" lon="-84.947591"><ele>281.3</ele><time>2026-07-30T21:17:27Z</time></trkpt>
<trkpt lat="34.990845" lon="-84.947591"><ele>281.6</ele><time>2026-07-30T21:17:28Z</time></trkpt>
<trkpt lat="34.99084" lon="-84.947592"><ele>282.2</ele><time>2026-07-30T21:17:29Z</time></trkpt>
<trkpt lat="34.990836" lon="-84.947596"><ele>281.9</ele><time>2026-07-30T21:17:30Z</time></trkpt>
<trkpt lat="34.990843" lon="-84.947586"><ele>281.6</ele><time>2026-07-30T21:17:40Z</time></trkpt>
<trkpt lat="34.990844" lon="-84.947589"><ele>281.9</ele><time>2026-07-30T21:17:41Z</time></trkpt>
<trkpt lat="34.990843" lon="-84.947591"><ele>281.3</ele><time>2026-07-30T21:17:42Z</time></trkpt>
<trkpt lat="34.990843" lon="-84.947593"><ele>281.6</ele><time>2026-07-30T21:17:43Z</time></trkpt>
<trkpt lat="34.990845" lon="-84.947592"><ele>282.2</ele><time>2026-07-30T21:17:44Z</time></trkpt>
<trkpt lat="34.990847" lon="-84.947593"><ele>282.2</ele><time>2026-07-30T21:17:45Z</time></trkpt>
<trkpt lat="34.990848" lon="-84.947593"><ele>282.2</ele><time>2026-07-30T21:17:49Z</time></trkpt>
<trkpt lat="34.990847" lon="-84.947591"><ele>281.9</ele><time>2026-07-30T21:17:50Z</time></trkpt>
<trkpt lat="34.990891" lon="-84.947545"><ele>278.3</ele><time>2026-07-30T21:17:53Z</time></trkpt>
<trkpt lat="34.990904" lon="-84.94751"><ele>279.2</ele><time>2026-07-30T21:17:56Z</time></trkpt>
<trkpt lat="34.990887" lon="-84.947478"><ele>279.5</ele><time>2026-07-30T21:17:58Z</time></trkpt>
<trkpt lat="34.990871" lon="-84.947441"><ele>281.6</ele><time>2026-07-30T21:18:00Z</time></trkpt>
<trkpt lat="34.990851" lon="-84.947409"><ele>281.6</ele><time>2026-07-30T21:18:02Z</time></trkpt>
<trkpt lat="34.990836" lon="-84.947378"><ele>282.2</ele><time>2026-07-30T21:18:04Z</time></trkpt>
<trkpt lat="34.990812" lon="-84.947346"><ele>281.3</ele><time>2026-07-30T21:18:06Z</time></trkpt>
<trkpt lat="34.99079" lon="-84.947314"><ele>281.3</ele><time>2026-07-30T21:18:08Z</time></trkpt>
<trkpt lat="34.990775" lon="-84.947275"><ele>279.5</ele><time>2026-07-30T21:18:11Z</time></trkpt>
<trkpt lat="34.990784" lon="-84.947239"><ele>278.3</ele><time>2026-07-30T21:18:16Z</time></trkpt>
<trkpt lat="34.990792" lon="-84.947192"><ele>278.0</ele><time>2026-07-30T21:18:19Z</time></trkpt>
<trkpt lat="34.99078" lon="-84.947156"><ele>276.1</ele><time>2026-07-30T21:18:21Z</time></trkpt>
<trkpt lat="34.990761" lon="-84.94712"><ele>275.5</ele><time>2026-07-30T21:18:23Z</time></trkpt>
<trkpt lat="34.990735" lon="-84.947097"><ele>274.0</ele><time>2026-07-30T21:18:25Z</time></trkpt>
<trkpt lat="34.990713" lon="-84.947071"><ele>275.5</ele><time>2026-07-30T21:18:27Z</time></trkpt>
<trkpt lat="34.990699" lon="-84.947039"><ele>274.0</ele><time>2026-07-30T21:18:29Z</time></trkpt>
<trkpt lat="34.990699" lon="-84.946994"><ele>272.2</ele><time>2026-07-30T21:18:32Z</time></trkpt>
<trkpt lat="34.990698" lon="-84.94696"><ele>272.5</ele><time>2026-07-30T21:18:34Z</time></trkpt>
<trkpt lat="34.99072" lon="-84.946928"><ele>270.1</ele><time>2026-07-30T21:18:38Z</time></trkpt>
<trkpt lat="34.990749" lon="-84.946911"><ele>268.8</ele><time>2026-07-30T21:18:41Z</time></trkpt>
<trkpt lat="34.990766" lon="-84.946875"><ele>266.4</ele><time>2026-07-30T21:18:45Z</time></trkpt>
<trkpt lat="34.990777" lon="-84.946841"><ele>263.7</ele><time>2026-07-30T21:18:48Z</time></trkpt>
<trkpt lat="34.990783" lon="-84.946799"><ele>260.9</ele><time>2026-07-30T21:18:51Z</time></trkpt>
<trkpt lat="34.990779" lon="-84.946764"><ele>262.4</ele><time>2026-07-30T21:18:53Z</time></trkpt>
<trkpt lat="34.990776" lon="-84.946717"><ele>261.2</ele><time>2026-07-30T21:18:56Z</time></trkpt>
<trkpt lat="34.990765" lon="-84.94668"><ele>262.7</ele><time>2026-07-30T21:18:58Z</time></trkpt>
<trkpt lat="34.990759" lon="-84.946643"><ele>262.7</ele><time>2026-07-30T21:19:00Z</time></trkpt>
<trkpt lat="34.990772" lon="-84.946603"><ele>259.7</ele><time>2026-07-30T21:19:03Z</time></trkpt>
<trkpt lat="34.990793" lon="-84.946566"><ele>260.0</ele><time>2026-07-30T21:19:06Z</time></trkpt>
<trkpt lat="34.990828" lon="-84.946546"><ele>257.9</ele><time>2026-07-30T21:19:09Z</time></trkpt>
<trkpt lat="34.990859" lon="-84.946519"><ele>257.6</ele><time>2026-07-30T21:19:12Z</time></trkpt>
<trkpt lat="34.990865" lon="-84.946472"><ele>256.0</ele><time>2026-07-30T21:19:15Z</time></trkpt>
<trkpt lat="34.990882" lon="-84.946431"><ele>256.6</ele><time>2026-07-30T21:19:18Z</time></trkpt>
<trkpt lat="34.990913" lon="-84.946413"><ele>258.2</ele><time>2026-07-30T21:19:21Z</time></trkpt>
<trkpt lat="34.99095" lon="-84.946433"><ele>259.4</ele><time>2026-07-30T21:19:24Z</time></trkpt>
<trkpt lat="34.990989" lon="-84.94644"><ele>262.1</ele><time>2026-07-30T21:19:27Z</time></trkpt>
<trkpt lat="34.99102" lon="-84.94644"><ele>264.0</ele><time>2026-07-30T21:19:29Z</time></trkpt>
<trkpt lat="34.991047" lon="-84.946451"><ele>262.4</ele><time>2026-07-30T21:19:31Z</time></trkpt>
<trkpt lat="34.991074" lon="-84.946461"><ele>262.1</ele><time>2026-07-30T21:19:33Z</time></trkpt>
<trkpt lat="34.991104" lon="-84.946457"><ele>262.7</ele><time>2026-07-30T21:19:35Z</time></trkpt>
<trkpt lat="34.991134" lon="-84.946451"><ele>262.1</ele><time>2026-07-30T21:19:37Z</time></trkpt>
<trkpt lat="34.991169" lon="-84.946432"><ele>262.1</ele><time>2026-07-30T21:19:40Z</time></trkpt>
<trkpt lat="34.991198" lon="-84.946408"><ele>260.0</ele><time>2026-07-30T21:19:43Z</time></trkpt>
<trkpt lat="34.991222" lon="-84.946387"><ele>262.4</ele><time>2026-07-30T21:19:45Z</time></trkpt>
<trkpt lat="34.991249" lon="-84.946366"><ele>261.2</ele><time>2026-07-30T21:19:47Z</time></trkpt>
<trkpt lat="34.991277" lon="-84.94635"><ele>260.0</ele><time>2026-07-30T21:19:49Z</time></trkpt>
<trkpt lat="34.991309" lon="-84.946337"><ele>258.5</ele><time>2026-07-30T21:19:51Z</time></trkpt>
<trkpt lat="34.99134" lon="-84.946334"><ele>258.8</ele><time>2026-07-30T21:19:53Z</time></trkpt>
<trkpt lat="34.991366" lon="-84.946325"><ele>257.6</ele><time>2026-07-30T21:19:55Z</time></trkpt>
<trkpt lat="34.991394" lon="-84.946328"><ele>259.1</ele><time>2026-07-30T21:19:57Z</time></trkpt>
<trkpt lat="34.991419" lon="-84.946367"><ele>257.6</ele><time>2026-07-30T21:19:59Z</time></trkpt>
<trkpt lat="34.991439" lon="-84.94639"><ele>257.9</ele><time>2026-07-30T21:20:01Z</time></trkpt>
<trkpt lat="34.991464" lon="-84.946408"><ele>258.8</ele><time>2026-07-30T21:20:03Z</time></trkpt>
<trkpt lat="34.991499" lon="-84.946421"><ele>258.8</ele><time>2026-07-30T21:20:05Z</time></trkpt>
<trkpt lat="34.99153" lon="-84.946423"><ele>258.5</ele><time>2026-07-30T21:20:07Z</time></trkpt>
<trkpt lat="34.991561" lon="-84.946424"><ele>259.1</ele><time>2026-07-30T21:20:09Z</time></trkpt>
<trkpt lat="34.991602" lon="-84.946406"><ele>259.1</ele><time>2026-07-30T21:20:12Z</time></trkpt>
<trkpt lat="34.991628" lon="-84.94638"><ele>258.5</ele><time>2026-07-30T21:20:14Z</time></trkpt>
<trkpt lat="34.991658" lon="-84.946362"><ele>257.3</ele><time>2026-07-30T21:20:16Z</time></trkpt>
<trkpt lat="34.99169" lon="-84.946331"><ele>257.9</ele><time>2026-07-30T21:20:19Z</time></trkpt>
<trkpt lat="34.991705" lon="-84.946303"><ele>257.9</ele><time>2026-07-30T21:20:21Z</time></trkpt>
<trkpt lat="34.991728" lon="-84.946273"><ele>259.1</ele><time>2026-07-30T21:20:23Z</time></trkpt>
<trkpt lat="34.991755" lon="-84.946247"><ele>259.1</ele><time>2026-07-30T21:20:25Z</time></trkpt>
<trkpt lat="34.991778" lon="-84.946223"><ele>258.2</ele><time>2026-07-30T21:20:27Z</time></trkpt>
<trkpt lat="34.991768" lon="-84.94619"><ele>258.5</ele><time>2026-07-30T21:20:28Z</time></trkpt>
<trkpt lat="34.991722" lon="-84.946185"><ele>259.7</ele><time>2026-07-30T21:20:30Z</time></trkpt>
<trkpt lat="34.99171" lon="-84.946202"><ele>260.9</ele><time>2026-07-30T21:20:31Z</time></trkpt>
<trkpt lat="34.991703" lon="-84.946223"><ele>261.5</ele><time>2026-07-30T21:20:32Z</time></trkpt>
<trkpt lat="34.991704" lon="-84.946231"><ele>261.5</ele><time>2026-07-30T21:20:33Z</time></trkpt>
<trkpt lat="34.991705" lon="-84.946233"><ele>261.5</ele><time>2026-07-30T21:20:35Z</time></trkpt>
<trkpt lat="34.991704" lon="-84.946236"><ele>261.8</ele><time>2026-07-30T21:20:36Z</time></trkpt>
<trkpt lat="34.991735" lon="-84.946243"><ele>255.4</ele><time>2026-07-30T21:20:39Z</time></trkpt>
<trkpt lat="34.991737" lon="-84.946209"><ele>256.0</ele><time>2026-07-30T21:20:41Z</time></trkpt>
<trkpt lat="34.991707" lon="-84.946209"><ele>254.8</ele><time>2026-07-30T21:20:44Z</time></trkpt>
<trkpt lat="34.991675" lon="-84.946196"><ele>253.0</ele><time>2026-07-30T21:20:49Z</time></trkpt>
<trkpt lat="34.991652" lon="-84.946165"><ele>255.1</ele><time>2026-07-30T21:20:52Z</time></trkpt>
<trkpt lat="34.991617" lon="-84.946165"><ele>252.7</ele><time>2026-07-30T21:20:57Z</time></trkpt>
<trkpt lat="34.991589" lon="-84.946179"><ele>252.4</ele><time>2026-07-30T21:21:01Z</time></trkpt>
<trkpt lat="34.992105" lon="-84.946318"><ele>259.4</ele><time>2026-07-30T21:21:04Z</time></trkpt>
<trkpt lat="34.99214" lon="-84.9463"><ele>257.9</ele><time>2026-07-30T21:21:07Z</time></trkpt>
<trkpt lat="34.992174" lon="-84.946299"><ele>256.6</ele><time>2026-07-30T21:21:09Z</time></trkpt>
<trkpt lat="34.9922" lon="-84.946288"><ele>256.0</ele><time>2026-07-30T21:21:11Z</time></trkpt>
<trkpt lat="34.992235" lon="-84.946279"><ele>256.3</ele><time>2026-07-30T21:21:13Z</time></trkpt>
<trkpt lat="34.992273" lon="-84.946269"><ele>256.3</ele><time>2026-07-30T21:21:16Z</time></trkpt>
<trkpt lat="34.992305" lon="-84.946266"><ele>256.9</ele><time>2026-07-30T21:21:18Z</time></trkpt>
<trkpt lat="34.992335" lon="-84.946269"><ele>258.5</ele><time>2026-07-30T21:21:20Z</time></trkpt>
<trkpt lat="34.992342" lon="-84.94628"><ele>257.9</ele><time>2026-07-30T21:21:24Z</time></trkpt>
<trkpt lat="34.992316" lon="-84.946273"><ele>256.9</ele><time>2026-07-30T21:21:25Z</time></trkpt>
<trkpt lat="34.992297" lon="-84.946271"><ele>257.6</ele><time>2026-07-30T21:21:33Z</time></trkpt>
<trkpt lat="34.992295" lon="-84.946268"><ele>257.3</ele><time>2026-07-30T21:21:34Z</time></trkpt>
<trkpt lat="34.992321" lon="-84.946238"><ele>258.5</ele><time>2026-07-30T21:21:38Z</time></trkpt>
<trkpt lat="34.992345" lon="-84.946209"><ele>260.6</ele><time>2026-07-30T21:21:41Z</time></trkpt>
<trkpt lat="34.992374" lon="-84.946188"><ele>258.8</ele><time>2026-07-30T21:21:44Z</time></trkpt>
<trkpt lat="34.992407" lon="-84.946185"><ele>258.5</ele><time>2026-07-30T21:21:47Z</time></trkpt>
<trkpt lat="34.992439" lon="-84.946186"><ele>257.6</ele><time>2026-07-30T21:21:50Z</time></trkpt>
<trkpt lat="34.99247" lon="-84.94619"><ele>256.3</ele><time>2026-07-30T21:21:52Z</time></trkpt>
<trkpt lat="34.992496" lon="-84.946208"><ele>252.4</ele><time>2026-07-30T21:21:54Z</time></trkpt>
<trkpt lat="34.992521" lon="-84.946226"><ele>254.5</ele><time>2026-07-30T21:21:56Z</time></trkpt>
<trkpt lat="34.992558" lon="-84.946234"><ele>253.9</ele><time>2026-07-30T21:21:59Z</time></trkpt>
<trkpt lat="34.99259" lon="-84.946232"><ele>255.1</ele><time>2026-07-30T21:22:02Z</time></trkpt>
<trkpt lat="34.992621" lon="-84.946213"><ele>252.7</ele><time>2026-07-30T21:22:05Z</time></trkpt>
<trkpt lat="34.992649" lon="-84.946205"><ele>251.2</ele><time>2026-07-30T21:22:08Z</time></trkpt>
<trkpt lat="34.992678" lon="-84.946195"><ele>252.7</ele><time>2026-07-30T21:22:11Z</time></trkpt>
<trkpt lat="34.992711" lon="-84.946186"><ele>252.7</ele><time>2026-07-30T21:22:14Z</time></trkpt>
<trkpt lat="34.992745" lon="-84.94617"><ele>253.0</ele><time>2026-07-30T21:22:17Z</time></trkpt>
<trkpt lat="34.992778" lon="-84.946159"><ele>253.9</ele><time>2026-07-30T21:22:20Z</time></trkpt>
<trkpt lat="34.992814" lon="-84.946159"><ele>254.5</ele><time>2026-07-30T21:22:23Z</time></trkpt>
<trkpt lat="34.992845" lon="-84.946171"><ele>253.9</ele><time>2026-07-30T21:22:26Z</time></trkpt>
<trkpt lat="34.992874" lon="-84.946187"><ele>254.5</ele><time>2026-07-30T21:22:29Z</time></trkpt>
<trkpt lat="34.992899" lon="-84.946213"><ele>253.6</ele><time>2026-07-30T21:22:32Z</time></trkpt>
<trkpt lat="34.992882" lon="-84.946248"><ele>257.3</ele><time>2026-07-30T21:22:35Z</time></trkpt>
<trkpt lat="34.992868" lon="-84.946242"><ele>255.4</ele><time>2026-07-30T21:22:36Z</time></trkpt>
<trkpt lat="34.992859" lon="-84.946239"><ele>255.7</ele><time>2026-07-30T21:22:37Z</time></trkpt>
<trkpt lat="34.992853" lon="-84.946238"><ele>255.4</ele><time>2026-07-30T21:22:38Z</time></trkpt>
<trkpt lat="34.99285" lon="-84.946237"><ele>255.4</ele><time>2026-07-30T21:22:39Z</time></trkpt>
<trkpt lat="34.99285" lon="-84.946237"><ele>255.4</ele><time>2026-07-30T21:22:40Z</time></trkpt>
<trkpt lat="34.992848" lon="-84.946236"><ele>255.7</ele><time>2026-07-30T21:22:41Z</time></trkpt>
<trkpt lat="34.992849" lon="-84.946235"><ele>255.7</ele><time>2026-07-30T21:22:42Z</time></trkpt>
<trkpt lat="34.992849" lon="-84.946235"><ele>255.7</ele><time>2026-07-30T21:22:43Z</time></trkpt>
<trkpt lat="34.99285" lon="-84.946234"><ele>255.7</ele><time>2026-07-30T21:22:44Z</time></trkpt>
<trkpt lat="34.992864" lon="-84.946255"><ele>256.6</ele><time>2026-07-30T21:22:47Z</time></trkpt>
<trkpt lat="34.992856" lon="-84.946259"><ele>256.9</ele><time>2026-07-30T21:22:48Z</time></trkpt>
<trkpt lat="34.99285" lon="-84.946266"><ele>257.3</ele><time>2026-07-30T21:22:58Z</time></trkpt>
<trkpt lat="34.992853" lon="-84.946262"><ele>257.6</ele><time>2026-07-30T21:22:59Z</time></trkpt>
<trkpt lat="34.992862" lon="-84.946254"><ele>257.9</ele><time>2026-07-30T21:23:00Z</time></trkpt>
<trkpt lat="34.992868" lon="-84.946245"><ele>257.6</ele><time>2026-07-30T21:23:01Z</time></trkpt>
<trkpt lat="34.992895" lon="-84.946223"><ele>255.7</ele><time>2026-07-30T21:23:04Z</time></trkpt>
<trkpt lat="34.992937" lon="-84.94621"><ele>255.4</ele><time>2026-07-30T21:23:07Z</time></trkpt>
<trkpt lat="34.992967" lon="-84.946206"><ele>255.7</ele><time>2026-07-30T21:23:09Z</time></trkpt>
<trkpt lat="34.993006" lon="-84.946198"><ele>257.6</ele><time>2026-07-30T21:23:12Z</time></trkpt>
<trkpt lat="34.993033" lon="-84.94619"><ele>257.9</ele><time>2026-07-30T21:23:14Z</time></trkpt>
<trkpt lat="34.99307" lon="-84.946183"><ele>258.8</ele><time>2026-07-30T21:23:17Z</time></trkpt>
<trkpt lat="34.993103" lon="-84.946158"><ele>257.6</ele><time>2026-07-30T21:23:20Z</time></trkpt>
<trkpt lat="34.993128" lon="-84.946122"><ele>257.3</ele><time>2026-07-30T21:23:23Z</time></trkpt>
<trkpt lat="34.993148" lon="-84.946083"><ele>257.6</ele><time>2026-07-30T21:23:26Z</time></trkpt>
<trkpt lat="34.99316" lon="-84.946039"><ele>258.2</ele><time>2026-07-30T21:23:29Z</time></trkpt>
<trkpt lat="34.99317" lon="-84.946005"><ele>257.9</ele><time>2026-07-30T21:23:31Z</time></trkpt>
<trkpt lat="34.993178" lon="-84.945972"><ele>257.9</ele><time>2026-07-30T21:23:33Z</time></trkpt>
<trkpt lat="34.993187" lon="-84.945924"><ele>257.9</ele><time>2026-07-30T21:23:36Z</time></trkpt>
<trkpt lat="34.993198" lon="-84.945877"><ele>257.9</ele><time>2026-07-30T21:23:39Z</time></trkpt>
<trkpt lat="34.993208" lon="-84.945845"><ele>257.6</ele><time>2026-07-30T21:23:41Z</time></trkpt>
<trkpt lat="34.993216" lon="-84.945809"><ele>257.6</ele><time>2026-07-30T21:23:43Z</time></trkpt>
<trkpt lat="34.993224" lon="-84.945774"><ele>257.9</ele><time>2026-07-30T21:23:45Z</time></trkpt>
<trkpt lat="34.993232" lon="-84.94574"><ele>257.9</ele><time>2026-07-30T21:23:47Z</time></trkpt>
<trkpt lat="34.993236" lon="-84.945707"><ele>258.5</ele><time>2026-07-30T21:23:49Z</time></trkpt>
<trkpt lat="34.993238" lon="-84.945671"><ele>258.2</ele><time>2026-07-30T21:23:51Z</time></trkpt>
<trkpt lat="34.993242" lon="-84.945636"><ele>258.2</ele><time>2026-07-30T21:23:53Z</time></trkpt>
<trkpt lat="34.993243" lon="-84.9456"><ele>258.5</ele><time>2026-07-30T21:23:55Z</time></trkpt>
<trkpt lat="34.993245" lon="-84.945554"><ele>258.8</ele><time>2026-07-30T21:23:58Z</time></trkpt>
<trkpt lat="34.993252" lon="-84.94552"><ele>259.4</ele><time>2026-07-30T21:24:00Z</time></trkpt>
<trkpt lat="34.993261" lon="-84.945474"><ele>258.8</ele><time>2026-07-30T21:24:03Z</time></trkpt>
<trkpt lat="34.993262" lon="-84.945441"><ele>258.5</ele><time>2026-07-30T21:24:05Z</time></trkpt>
<trkpt lat="34.993267" lon="-84.945397"><ele>257.9</ele><time>2026-07-30T21:24:08Z</time></trkpt>
<trkpt lat="34.993276" lon="-84.945357"><ele>257.3</ele><time>2026-07-30T21:24:11Z</time></trkpt>
<trkpt lat="34.993294" lon="-84.945329"><ele>257.6</ele><time>2026-07-30T21:24:14Z</time></trkpt>
<trkpt lat="34.993294" lon="-84.945314"><ele>257.3</ele><time>2026-07-30T21:24:16Z</time></trkpt>
<trkpt lat="34.993294" lon="-84.945313"><ele>257.9</ele><time>2026-07-30T21:24:17Z</time></trkpt>
<trkpt lat="34.993291" lon="-84.945312"><ele>257.6</ele><time>2026-07-30T21:24:18Z</time></trkpt>
<trkpt lat="34.993286" lon="-84.945351"><ele>257.3</ele><time>2026-07-30T21:24:26Z</time></trkpt>
<trkpt lat="34.993287" lon="-84.94531"><ele>256.9</ele><time>2026-07-30T21:24:31Z</time></trkpt>
<trkpt lat="34.993298" lon="-84.945273"><ele>256.6</ele><time>2026-07-30T21:24:35Z</time></trkpt>
<trkpt lat="34.993303" lon="-84.945238"><ele>256.0</ele><time>2026-07-30T21:24:38Z</time></trkpt>
<trkpt lat="34.993336" lon="-84.945225"><ele>255.7</ele><time>2026-07-30T21:24:41Z</time></trkpt>
<trkpt lat="34.993318" lon="-84.945191"><ele>257.6</ele><time>2026-07-30T21:24:43Z</time></trkpt>
<trkpt lat="34.993302" lon="-84.945158"><ele>259.4</ele><time>2026-07-30T21:24:47Z</time></trkpt>
<trkpt lat="34.993291" lon="-84.945122"><ele>259.7</ele><time>2026-07-30T21:24:50Z</time></trkpt>
<trkpt lat="34.993264" lon="-84.945094"><ele>259.4</ele><time>2026-07-30T21:24:53Z</time></trkpt>
<trkpt lat="34.993235" lon="-84.945076"><ele>258.8</ele><time>2026-07-30T21:24:56Z</time></trkpt>
<trkpt lat="34.9932" lon="-84.945056"><ele>259.4</ele><time>2026-07-30T21:24:59Z</time></trkpt>
<trkpt lat="34.993169" lon="-84.945027"><ele>260.0</ele><time>2026-07-30T21:25:02Z</time></trkpt>
<trkpt lat="34.993132" lon="-84.945001"><ele>260.0</ele><time>2026-07-30T21:25:05Z</time></trkpt>
<trkpt lat="34.993107" lon="-84.944987"><ele>260.0</ele><time>2026-07-30T21:25:07Z</time></trkpt>
<trkpt lat="34.993075" lon="-84.944968"><ele>260.0</ele><time>2026-07-30T21:25:10Z</time></trkpt>
<trkpt lat="34.993036" lon="-84.944956"><ele>260.6</ele><time>2026-07-30T21:25:13Z</time></trkpt>
<trkpt lat="34.993008" lon="-84.94496"><ele>260.3</ele><time>2026-07-30T21:25:15Z</time></trkpt>
<trkpt lat="34.992973" lon="-84.944984"><ele>260.0</ele><time>2026-07-30T21:25:18Z</time></trkpt>
<trkpt lat="34.992947" lon="-84.944999"><ele>260.0</ele><time>2026-07-30T21:25:20Z</time></trkpt>
<trkpt lat="34.992923" lon="-84.945014"><ele>259.1</ele><time>2026-07-30T21:25:22Z</time></trkpt>
<trkpt lat="34.992888" lon="-84.945034"><ele>259.4</ele><time>2026-07-30T21:25:25Z</time></trkpt>
<trkpt lat="34.992855" lon="-84.945052"><ele>259.1</ele><time>2026-07-30T21:25:28Z</time></trkpt>
<trkpt lat="34.992819" lon="-84.94507"><ele>259.1</ele><time>2026-07-30T21:25:31Z</time></trkpt>
<trkpt lat="34.992792" lon="-84.945083"><ele>259.1</ele><time>2026-07-30T21:25:33Z</time></trkpt>
<trkpt lat="34.992765" lon="-84.945096"><ele>260.0</ele><time>2026-07-30T21:25:35Z</time></trkpt>
<trkpt lat="34.992739" lon="-84.94511"><ele>259.7</ele><time>2026-07-30T21:25:37Z</time></trkpt>
<trkpt lat="34.992711" lon="-84.945119"><ele>259.1</ele><time>2026-07-30T21:25:39Z</time></trkpt>
<trkpt lat="34.992674" lon="-84.945129"><ele>258.5</ele><time>2026-07-30T21:25:42Z</time></trkpt>
<trkpt lat="34.992637" lon="-84.945118"><ele>257.9</ele><time>2026-07-30T21:25:45Z</time></trkpt>
<trkpt lat="34.992604" lon="-84.945096"><ele>256.9</ele><time>2026-07-30T21:25:48Z</time></trkpt>
<trkpt lat="34.992571" lon="-84.945074"><ele>256.6</ele><time>2026-07-30T21:25:51Z</time></trkpt>
<trkpt lat="34.992547" lon="-84.945053"><ele>256.6</ele><time>2026-07-30T21:25:53Z</time></trkpt>
<trkpt lat="34.992515" lon="-84.945023"><ele>256.0</ele><time>2026-07-30T21:25:56Z</time></trkpt>
<trkpt lat="34.992493" lon="-84.945001"><ele>255.4</ele><time>2026-07-30T21:25:58Z</time></trkpt>
<trkpt lat="34.992464" lon="-84.944967"><ele>255.7</ele><time>2026-07-30T21:26:01Z</time></trkpt>
<trkpt lat="34.992447" lon="-84.944941"><ele>255.7</ele><time>2026-07-30T21:26:03Z</time></trkpt>
<trkpt lat="34.992432" lon="-84.944912"><ele>255.7</ele><time>2026-07-30T21:26:05Z</time></trkpt>
<trkpt lat="34.992423" lon="-84.944879"><ele>255.7</ele><time>2026-07-30T21:26:07Z</time></trkpt>
<trkpt lat="34.992421" lon="-84.944829"><ele>256.3</ele><time>2026-07-30T21:26:10Z</time></trkpt>
<trkpt lat="34.992428" lon="-84.944779"><ele>256.3</ele><time>2026-07-30T21:26:13Z</time></trkpt>
<trkpt lat="34.992436" lon="-84.944736"><ele>256.0</ele><time>2026-07-30T21:26:16Z</time></trkpt>
<trkpt lat="34.99246" lon="-84.944712"><ele>255.4</ele><time>2026-07-30T21:26:18Z</time></trkpt>
<trkpt lat="34.992474" lon="-84.944671"><ele>255.1</ele><time>2026-07-30T21:26:22Z</time></trkpt>
<trkpt lat="34.992492" lon="-84.944639"><ele>255.4</ele><time>2026-07-30T21:26:25Z</time></trkpt>
<trkpt lat="34.99249" lon="-84.944631"><ele>255.7</ele><time>2026-07-30T21:26:26Z</time></trkpt>
<trkpt lat="34.992488" lon="-84.944628"><ele>256.3</ele><time>2026-07-30T21:26:27Z</time></trkpt>
<trkpt lat="34.992492" lon="-84.944626"><ele>256.3</ele><time>2026-07-30T21:26:28Z</time></trkpt>
<trkpt lat="34.992519" lon="-84.94464"><ele>256.6</ele><time>2026-07-30T21:26:31Z</time></trkpt>
<trkpt lat="34.992535" lon="-84.944681"><ele>256.9</ele><time>2026-07-30T21:26:34Z</time></trkpt>
<trkpt lat="34.992564" lon="-84.944707"><ele>256.9</ele><time>2026-07-30T21:26:37Z</time></trkpt>
<trkpt lat="34.9926" lon="-84.944712"><ele>257.3</ele><time>2026-07-30T21:26:40Z</time></trkpt>
<trkpt lat="34.992639" lon="-84.944706"><ele>255.7</ele><time>2026-07-30T21:26:43Z</time></trkpt>
<trkpt lat="34.992664" lon="-84.944674"><ele>256.0</ele><time>2026-07-30T21:26:46Z</time></trkpt>
<trkpt lat="34.992674" lon="-84.944667"><ele>255.7</ele><time>2026-07-30T21:26:47Z</time></trkpt>
<trkpt lat="34.992679" lon="-84.944672"><ele>255.4</ele><time>2026-07-30T21:26:48Z</time></trkpt>
<trkpt lat="34.992689" lon="-84.944681"><ele>255.1</ele><time>2026-07-30T21:26:50Z</time></trkpt>
<trkpt lat="34.992678" lon="-84.944696"><ele>255.1</ele><time>2026-07-30T21:26:51Z</time></trkpt>
<trkpt lat="34.992647" lon="-84.944687"><ele>255.1</ele><time>2026-07-30T21:26:53Z</time></trkpt>
<trkpt lat="34.992643" lon="-84.944678"><ele>254.5</ele><time>2026-07-30T21:26:54Z</time></trkpt>
<trkpt lat="34.99264" lon="-84.944673"><ele>254.2</ele><time>2026-07-30T21:26:55Z</time></trkpt>
<trkpt lat="34.992641" lon="-84.944671"><ele>253.9</ele><time>2026-07-30T21:26:56Z</time></trkpt>
<trkpt lat="34.992639" lon="-84.944615"><ele>254.2</ele><time>2026-07-30T21:27:00Z</time></trkpt>
<trkpt lat="34.992637" lon="-84.944573"><ele>255.7</ele><time>2026-07-30T21:27:03Z</time></trkpt>
<trkpt lat="34.992669" lon="-84.944551"><ele>256.6</ele><time>2026-07-30T21:27:07Z</time></trkpt>
<trkpt lat="34.992702" lon="-84.944562"><ele>257.6</ele><time>2026-07-30T21:27:10Z</time></trkpt>
<trkpt lat="34.992732" lon="-84.944583"><ele>257.9</ele><time>2026-07-30T21:27:13Z</time></trkpt>
<trkpt lat="34.992757" lon="-84.944602"><ele>257.6</ele><time>2026-07-30T21:27:16Z</time></trkpt>
<trkpt lat="34.992786" lon="-84.94462"><ele>258.2</ele><time>2026-07-30T21:27:19Z</time></trkpt>
<trkpt lat="34.992809" lon="-84.944648"><ele>258.2</ele><time>2026-07-30T21:27:22Z</time></trkpt>
<trkpt lat="34.992837" lon="-84.944653"><ele>257.9</ele><time>2026-07-30T21:27:25Z</time></trkpt>
<trkpt lat="34.992868" lon="-84.944656"><ele>258.5</ele><time>2026-07-30T21:27:28Z</time></trkpt>
<trkpt lat="34.992906" lon="-84.94467"><ele>258.5</ele><time>2026-07-30T21:27:31Z</time></trkpt>
<trkpt lat="34.992933" lon="-84.944681"><ele>257.6</ele><time>2026-07-30T21:27:33Z</time></trkpt>
<trkpt lat="34.99297" lon="-84.944691"><ele>256.3</ele><time>2026-07-30T21:27:36Z</time></trkpt>
<trkpt lat="34.993011" lon="-84.944699"><ele>256.3</ele><time>2026-07-30T21:27:39Z</time></trkpt>
<trkpt lat="34.993051" lon="-84.944695"><ele>256.6</ele><time>2026-07-30T21:27:42Z</time></trkpt>
<trkpt lat="34.993079" lon="-84.944691"><ele>256.0</ele><time>2026-07-30T21:27:44Z</time></trkpt>
<trkpt lat="34.993107" lon="-84.944683"><ele>256.0</ele><time>2026-07-30T21:27:46Z</time></trkpt>
<trkpt lat="34.993146" lon="-84.944673"><ele>255.4</ele><time>2026-07-30T21:27:49Z</time></trkpt>
<trkpt lat="34.993185" lon="-84.94466"><ele>255.7</ele><time>2026-07-30T21:27:52Z</time></trkpt>
<trkpt lat="34.993223" lon="-84.944643"><ele>256.0</ele><time>2026-07-30T21:27:55Z</time></trkpt>
<trkpt lat="34.993247" lon="-84.944626"><ele>255.4</ele><time>2026-07-30T21:27:57Z</time></trkpt>
<trkpt lat="34.993274" lon="-84.944612"><ele>255.4</ele><time>2026-07-30T21:27:59Z</time></trkpt>
<trkpt lat="34.993311" lon="-84.944594"><ele>255.7</ele><time>2026-07-30T21:28:02Z</time></trkpt>
<trkpt lat="34.993343" lon="-84.944573"><ele>256.0</ele><time>2026-07-30T21:28:05Z</time></trkpt>
<trkpt lat="34.993376" lon="-84.944552"><ele>256.9</ele><time>2026-07-30T21:28:08Z</time></trkpt>
<trkpt lat="34.993404" lon="-84.94454"><ele>257.9</ele><time>2026-07-30T21:28:10Z</time></trkpt>
<trkpt lat="34.993434" lon="-84.944533"><ele>258.2</ele><time>2026-07-30T21:28:12Z</time></trkpt>
<trkpt lat="34.993472" lon="-84.944526"><ele>258.8</ele><time>2026-07-30T21:28:15Z</time></trkpt>
<trkpt lat="34.993507" lon="-84.944548"><ele>258.5</ele><time>2026-07-30T21:28:18Z</time></trkpt>
<trkpt lat="34.99353" lon="-84.944584"><ele>259.4</ele><time>2026-07-30T21:28:21Z</time></trkpt>
<trkpt lat="34.993546" lon="-84.94463"><ele>259.1</ele><time>2026-07-30T21:28:24Z</time></trkpt>
<trkpt lat="34.993564" lon="-84.944672"><ele>260.0</ele><time>2026-07-30T21:28:27Z</time></trkpt>
<trkpt lat="34.993578" lon="-84.944702"><ele>260.0</ele><time>2026-07-30T21:28:29Z</time></trkpt>
<trkpt lat="34.99359" lon="-84.944738"><ele>258.8</ele><time>2026-07-30T21:28:31Z</time></trkpt>
<trkpt lat="34.993605" lon="-84.944768"><ele>259.7</ele><time>2026-07-30T21:28:33Z</time></trkpt>
<trkpt lat="34.993615" lon="-84.9448"><ele>260.0</ele><time>2026-07-30T21:28:35Z</time></trkpt>
<trkpt lat="34.993629" lon="-84.94483"><ele>259.4</ele><time>2026-07-30T21:28:37Z</time></trkpt>
<trkpt lat="34.993644" lon="-84.94486"><ele>261.2</ele><time>2026-07-30T21:28:39Z</time></trkpt>
<trkpt lat="34.993663" lon="-84.94489"><ele>261.5</ele><time>2026-07-30T21:28:41Z</time></trkpt>
<trkpt lat="34.993677" lon="-84.944934"><ele>262.1</ele><time>2026-07-30T21:28:44Z</time></trkpt>
<trkpt lat="34.993696" lon="-84.944976"><ele>264.3</ele><time>2026-07-30T21:28:47Z</time></trkpt>
<trkpt lat="34.993717" lon="-84.945017"><ele>263.0</ele><time>2026-07-30T21:28:50Z</time></trkpt>
<trkpt lat="34.993728" lon="-84.945049"><ele>263.3</ele><time>2026-07-30T21:28:52Z</time></trkpt>
<trkpt lat="34.993746" lon="-84.945094"><ele>261.5</ele><time>2026-07-30T21:28:55Z</time></trkpt>
<trkpt lat="34.993761" lon="-84.945122"><ele>261.5</ele><time>2026-07-30T21:28:57Z</time></trkpt>
<trkpt lat="34.993777" lon="-84.945164"><ele>261.5</ele><time>2026-07-30T21:29:00Z</time></trkpt>
<trkpt lat="34.993796" lon="-84.945208"><ele>261.8</ele><time>2026-07-30T21:29:03Z</time></trkpt>
<trkpt lat="34.993802" lon="-84.94524"><ele>261.2</ele><time>2026-07-30T21:29:05Z</time></trkpt>
<trkpt lat="34.99382" lon="-84.945285"><ele>259.4</ele><time>2026-07-30T21:29:08Z</time></trkpt>
<trkpt lat="34.993838" lon="-84.945329"><ele>258.2</ele><time>2026-07-30T21:29:11Z</time></trkpt>
<trkpt lat="34.99386" lon="-84.94537"><ele>257.3</ele><time>2026-07-30T21:29:14Z</time></trkpt>
<trkpt lat="34.993866" lon="-84.945404"><ele>257.3</ele><time>2026-07-30T21:29:16Z</time></trkpt>
<trkpt lat="34.993867" lon="-84.94544"><ele>256.6</ele><time>2026-07-30T21:29:18Z</time></trkpt>
<trkpt lat="34.99387" lon="-84.945474"><ele>256.0</ele><time>2026-07-30T21:29:20Z</time></trkpt>
<trkpt lat="34.993879" lon="-84.945523"><ele>256.6</ele><time>2026-07-30T21:29:23Z</time></trkpt>
<trkpt lat="34.993882" lon="-84.945573"><ele>257.6</ele><time>2026-07-30T21:29:26Z</time></trkpt>
<trkpt lat="34.993885" lon="-84.94562"><ele>259.1</ele><time>2026-07-30T21:29:29Z</time></trkpt>
<trkpt lat="34.99389" lon="-84.945669"><ele>259.7</ele><time>2026-07-30T21:29:32Z</time></trkpt>
<trkpt lat="34.99389" lon="-84.945718"><ele>260.3</ele><time>2026-07-30T21:29:35Z</time></trkpt>
<trkpt lat="34.99389" lon="-84.945752"><ele>260.6</ele><time>2026-07-30T21:29:37Z</time></trkpt>
<trkpt lat="34.993871" lon="-84.945796"><ele>261.5</ele><time>2026-07-30T21:29:40Z</time></trkpt>
<trkpt lat="34.993845" lon="-84.945836"><ele>262.7</ele><time>2026-07-30T21:29:43Z</time></trkpt>
<trkpt lat="34.993821" lon="-84.945861"><ele>263.3</ele><time>2026-07-30T21:29:45Z</time></trkpt>
<trkpt lat="34.99379" lon="-84.945892"><ele>264.0</ele><time>2026-07-30T21:29:48Z</time></trkpt>
<trkpt lat="34.993759" lon="-84.945921"><ele>264.6</ele><time>2026-07-30T21:29:51Z</time></trkpt>
<trkpt lat="34.99373" lon="-84.945945"><ele>264.9</ele><time>2026-07-30T21:29:54Z</time></trkpt>
<trkpt lat="34.993701" lon="-84.945973"><ele>264.9</ele><time>2026-07-30T21:29:57Z</time></trkpt>
<trkpt lat="34.993673" lon="-84.945994"><ele>264.0</ele><time>2026-07-30T21:30:00Z</time></trkpt>
<trkpt lat="34.993644" lon="-84.946018"><ele>264.0</ele><time>2026-07-30T21:30:03Z</time></trkpt>
<trkpt lat="34.993613" lon="-84.946034"><ele>264.0</ele><time>2026-07-30T21:30:06Z</time></trkpt>
<trkpt lat="34.993582" lon="-84.946052"><ele>263.7</ele><time>2026-07-30T21:30:09Z</time></trkpt>
<trkpt lat="34.993545" lon="-84.94607"><ele>263.7</ele><time>2026-07-30T21:30:12Z</time></trkpt>
<trkpt lat="34.993511" lon="-84.946089"><ele>263.7</ele><time>2026-07-30T21:30:15Z</time></trkpt>
<trkpt lat="34.993485" lon="-84.946101"><ele>263.7</ele><time>2026-07-30T21:30:17Z</time></trkpt>
<trkpt lat="34.993449" lon="-84.946119"><ele>264.3</ele><time>2026-07-30T21:30:20Z</time></trkpt>
<trkpt lat="34.993411" lon="-84.946137"><ele>263.7</ele><time>2026-07-30T21:30:23Z</time></trkpt>
<trkpt lat="34.993374" lon="-84.946158"><ele>263.3</ele><time>2026-07-30T21:30:26Z</time></trkpt>
<trkpt lat="34.993337" lon="-84.946174"><ele>263.0</ele><time>2026-07-30T21:30:29Z</time></trkpt>
<trkpt lat="34.993311" lon="-84.946182"><ele>262.4</ele><time>2026-07-30T21:30:31Z</time></trkpt>
<trkpt lat="34.993283" lon="-84.946193"><ele>262.4</ele><time>2026-07-30T21:30:33Z</time></trkpt>
<trkpt lat="34.993255" lon="-84.946199"><ele>262.4</ele><time>2026-07-30T21:30:35Z</time></trkpt>
<trkpt lat="34.993227" lon="-84.946205"><ele>261.8</ele><time>2026-07-30T21:30:37Z</time></trkpt>
<trkpt lat="34.993201" lon="-84.946222"><ele>261.5</ele><time>2026-07-30T21:30:39Z</time></trkpt>
<trkpt lat="34.993181" lon="-84.946248"><ele>262.1</ele><time>2026-07-30T21:30:41Z</time></trkpt>
<trkpt lat="34.993169" lon="-84.946279"><ele>263.0</ele><time>2026-07-30T21:30:43Z</time></trkpt>
<trkpt lat="34.993161" lon="-84.946311"><ele>263.7</ele><time>2026-07-30T21:30:45Z</time></trkpt>
<trkpt lat="34.993155" lon="-84.946344"><ele>263.7</ele><time>2026-07-30T21:30:47Z</time></trkpt>
<trkpt lat="34.993146" lon="-84.946378"><ele>264.3</ele><time>2026-07-30T21:30:49Z</time></trkpt>
<trkpt lat="34.993137" lon="-84.946411"><ele>264.9</ele><time>2026-07-30T21:30:51Z</time></trkpt>
<trkpt lat="34.993123" lon="-84.946458"><ele>265.2</ele><time>2026-07-30T21:30:54Z</time></trkpt>
<trkpt lat="34.993113" lon="-84.946491"><ele>265.8</ele><time>2026-07-30T21:30:56Z</time></trkpt>
<trkpt lat="34.993095" lon="-84.946532"><ele>267.9</ele><time>2026-07-30T21:30:59Z</time></trkpt>
<trkpt lat="34.993086" lon="-84.946564"><ele>267.9</ele><time>2026-07-30T21:31:01Z</time></trkpt>
<trkpt lat="34.993082" lon="-84.9466"><ele>266.7</ele><time>2026-07-30T21:31:03Z</time></trkpt>
<trkpt lat="34.993081" lon="-84.946638"><ele>265.5</ele><time>2026-07-30T21:31:05Z</time></trkpt>
<trkpt lat="34.993078" lon="-84.946671"><ele>264.9</ele><time>2026-07-30T21:31:07Z</time></trkpt>
<trkpt lat="34.99307" lon="-84.946705"><ele>265.8</ele><time>2026-07-30T21:31:09Z</time></trkpt>
<trkpt lat="34.993067" lon="-84.94674"><ele>266.1</ele><time>2026-07-30T21:31:11Z</time></trkpt>
<trkpt lat="34.993052" lon="-84.946776"><ele>267.6</ele><time>2026-07-30T21:31:13Z</time></trkpt>
<trkpt lat="34.99304" lon="-84.94681"><ele>268.8</ele><time>2026-07-30T21:31:15Z</time></trkpt>
<trkpt lat="34.99303" lon="-84.946845"><ele>269.7</ele><time>2026-07-30T21:31:17Z</time></trkpt>
<trkpt lat="34.99302" lon="-84.94689"><ele>270.7</ele><time>2026-07-30T21:31:20Z</time></trkpt>
<trkpt lat="34.993012" lon="-84.946938"><ele>270.1</ele><time>2026-07-30T21:31:23Z</time></trkpt>
<trkpt lat="34.993015" lon="-84.946985"><ele>268.8</ele><time>2026-07-30T21:31:26Z</time></trkpt>
<trkpt lat="34.993006" lon="-84.94703"><ele>271.6</ele><time>2026-07-30T21:31:29Z</time></trkpt>
<trkpt lat="34.992993" lon="-84.947064"><ele>270.7</ele><time>2026-07-30T21:31:31Z</time></trkpt>
<trkpt lat="34.99298" lon="-84.947095"><ele>271.9</ele><time>2026-07-30T21:31:33Z</time></trkpt>
<trkpt lat="34.992971" lon="-84.94713"><ele>271.3</ele><time>2026-07-30T21:31:35Z</time></trkpt>
<trkpt lat="34.992969" lon="-84.947169"><ele>269.4</ele><time>2026-07-30T21:31:37Z</time></trkpt>
<trkpt lat="34.992971" lon="-84.947204"><ele>271.3</ele><time>2026-07-30T21:31:39Z</time></trkpt>
<trkpt lat="34.992965" lon="-84.947253"><ele>271.0</ele><time>2026-07-30T21:31:42Z</time></trkpt>
<trkpt lat="34.99297" lon="-84.947288"><ele>271.9</ele><time>2026-07-30T21:31:44Z</time></trkpt>
<trkpt lat="34.992982" lon="-84.947323"><ele>272.2</ele><time>2026-07-30T21:31:46Z</time></trkpt>
<trkpt lat="34.993006" lon="-84.947348"><ele>272.5</ele><time>2026-07-30T21:31:48Z</time></trkpt>
<trkpt lat="34.993021" lon="-84.947392"><ele>273.4</ele><time>2026-07-30T21:31:51Z</time></trkpt>
<trkpt lat="34.993039" lon="-84.947437"><ele>274.0</ele><time>2026-07-30T21:31:54Z</time></trkpt>
<trkpt lat="34.993065" lon="-84.947475"><ele>274.9</ele><time>2026-07-30T21:31:57Z</time></trkpt>
<trkpt lat="34.993077" lon="-84.947506"><ele>275.2</ele><time>2026-07-30T21:31:59Z</time></trkpt>
<trkpt lat="34.993088" lon="-84.947539"><ele>275.5</ele><time>2026-07-30T21:32:01Z</time></trkpt>
<trkpt lat="34.993104" lon="-84.947568"><ele>276.5</ele><time>2026-07-30T21:32:03Z</time></trkpt>
<trkpt lat="34.993126" lon="-84.947607"><ele>275.5</ele><time>2026-07-30T21:32:06Z</time></trkpt>
<trkpt lat="34.993143" lon="-84.947635"><ele>275.2</ele><time>2026-07-30T21:32:08Z</time></trkpt>
<trkpt lat="34.993163" lon="-84.94766"><ele>274.9</ele><time>2026-07-30T21:32:10Z</time></trkpt>
<trkpt lat="34.993188" lon="-84.947682"><ele>274.0</ele><time>2026-07-30T21:32:12Z</time></trkpt>
<trkpt lat="34.993211" lon="-84.947708"><ele>273.1</ele><time>2026-07-30T21:32:14Z</time></trkpt>
<trkpt lat="34.993227" lon="-84.947738"><ele>273.4</ele><time>2026-07-30T21:32:16Z</time></trkpt>
<trkpt lat="34.993245" lon="-84.947763"><ele>273.7</ele><time>2026-07-30T21:32:18Z</time></trkpt>
<trkpt lat="34.993261" lon="-84.94779"><ele>272.8</ele><time>2026-07-30T21:32:20Z</time></trkpt>
<trkpt lat="34.99327" lon="-84.947835"><ele>273.1</ele><time>2026-07-30T21:32:23Z</time></trkpt>
<trkpt lat="34.993282" lon="-84.947881"><ele>274.0</ele><time>2026-07-30T21:32:26Z</time></trkpt>
<trkpt lat="34.993291" lon="-84.947913"><ele>274.9</ele><time>2026-07-30T21:32:28Z</time></trkpt>
<trkpt lat="34.993302" lon="-84.94795"><ele>274.0</ele><time>2026-07-30T21:32:31Z</time></trkpt>
<trkpt lat="34.993268" lon="-84.947953"><ele>271.9</ele><time>2026-07-30T21:32:33Z</time></trkpt>
<trkpt lat="34.993251" lon="-84.947901"><ele>270.4</ele><time>2026-07-30T21:32:35Z</time></trkpt>
<trkpt lat="34.993247" lon="-84.947863"><ele>269.4</ele><time>2026-07-30T21:32:37Z</time></trkpt>
<trkpt lat="34.993244" lon="-84.947826"><ele>269.4</ele><time>2026-07-30T21:32:39Z</time></trkpt>
<trkpt lat="34.993245" lon="-84.947788"><ele>268.8</ele><time>2026-07-30T21:32:41Z</time></trkpt>
<trkpt lat="34.993235" lon="-84.947752"><ele>269.4</ele><time>2026-07-30T21:32:43Z</time></trkpt>
<trkpt lat="34.993216" lon="-84.947722"><ele>269.1</ele><time>2026-07-30T21:32:45Z</time></trkpt>
<trkpt lat="34.993196" lon="-84.947692"><ele>269.4</ele><time>2026-07-30T21:32:47Z</time></trkpt>
<trkpt lat="34.993176" lon="-84.947663"><ele>269.4</ele><time>2026-07-30T21:32:49Z</time></trkpt>
<trkpt lat="34.993158" lon="-84.947633"><ele>270.4</ele><time>2026-07-30T21:32:51Z</time></trkpt>
<trkpt lat="34.993137" lon="-84.947604"><ele>269.7</ele><time>2026-07-30T21:32:53Z</time></trkpt>
<trkpt lat="34.993118" lon="-84.947575"><ele>270.4</ele><time>2026-07-30T21:32:55Z</time></trkpt>
<trkpt lat="34.993105" lon="-84.947539"><ele>269.7</ele><time>2026-07-30T21:32:57Z</time></trkpt>
<trkpt lat="34.993093" lon="-84.947502"><ele>269.7</ele><time>2026-07-30T21:32:59Z</time></trkpt>
<trkpt lat="34.993078" lon="-84.947469"><ele>270.1</ele><time>2026-07-30T21:33:01Z</time></trkpt>
<trkpt lat="34.993061" lon="-84.947438"><ele>272.5</ele><time>2026-07-30T21:33:03Z</time></trkpt>
<trkpt lat="34.993046" lon="-84.947405"><ele>273.4</ele><time>2026-07-30T21:33:05Z</time></trkpt>
<trkpt lat="34.993034" lon="-84.947369"><ele>273.7</ele><time>2026-07-30T21:33:07Z</time></trkpt>
<trkpt lat="34.993031" lon="-84.947332"><ele>273.7</ele><time>2026-07-30T21:33:09Z</time></trkpt>
<trkpt lat="34.993025" lon="-84.947296"><ele>273.4</ele><time>2026-07-30T21:33:11Z</time></trkpt>
<trkpt lat="34.993018" lon="-84.947258"><ele>273.4</ele><time>2026-07-30T21:33:13Z</time></trkpt>
<trkpt lat="34.993017" lon="-84.947218"><ele>272.2</ele><time>2026-07-30T21:33:15Z</time></trkpt>
<trkpt lat="34.993024" lon="-84.947177"><ele>273.7</ele><time>2026-07-30T21:33:17Z</time></trkpt>
<trkpt lat="34.993038" lon="-84.947138"><ele>274.6</ele><time>2026-07-30T21:33:19Z</time></trkpt>
<trkpt lat="34.993046" lon="-84.947101"><ele>274.0</ele><time>2026-07-30T21:33:21Z</time></trkpt>
<trkpt lat="34.993053" lon="-84.947064"><ele>273.4</ele><time>2026-07-30T21:33:23Z</time></trkpt>
<trkpt lat="34.993064" lon="-84.947018"><ele>272.2</ele><time>2026-07-30T21:33:26Z</time></trkpt>
<trkpt lat="34.99307" lon="-84.946983"><ele>271.9</ele><time>2026-07-30T21:33:28Z</time></trkpt>
<trkpt lat="34.993078" lon="-84.946949"><ele>271.0</ele><time>2026-07-30T21:33:30Z</time></trkpt>
<trkpt lat="34.993088" lon="-84.946915"><ele>271.3</ele><time>2026-07-30T21:33:32Z</time></trkpt>
<trkpt lat="34.993096" lon="-84.946879"><ele>271.9</ele><time>2026-07-30T21:33:34Z</time></trkpt>
<trkpt lat="34.993096" lon="-84.946839"><ele>271.6</ele><time>2026-07-30T21:33:36Z</time></trkpt>
<trkpt lat="34.993094" lon="-84.946801"><ele>271.6</ele><time>2026-07-30T21:33:38Z</time></trkpt>
<trkpt lat="34.993089" lon="-84.946763"><ele>272.8</ele><time>2026-07-30T21:33:40Z</time></trkpt>
<trkpt lat="34.993089" lon="-84.94673"><ele>271.9</ele><time>2026-07-30T21:33:42Z</time></trkpt>
<trkpt lat="34.993091" lon="-84.946696"><ele>272.8</ele><time>2026-07-30T21:33:44Z</time></trkpt>
<trkpt lat="34.993096" lon="-84.946652"><ele>271.9</ele><time>2026-07-30T21:33:47Z</time></trkpt>
<trkpt lat="34.993107" lon="-84.94661"><ele>270.7</ele><time>2026-07-30T21:33:50Z</time></trkpt>
<trkpt lat="34.993115" lon="-84.94657"><ele>269.4</ele><time>2026-07-30T21:33:53Z</time></trkpt>
<trkpt lat="34.993123" lon="-84.946523"><ele>270.7</ele><time>2026-07-30T21:33:56Z</time></trkpt>
<trkpt lat="34.993135" lon="-84.946475"><ele>269.4</ele><time>2026-07-30T21:33:59Z</time></trkpt>
<trkpt lat="34.993148" lon="-84.946445"><ele>268.5</ele><time>2026-07-30T21:34:01Z</time></trkpt>
<trkpt lat="34.993158" lon="-84.9464"><ele>267.6</ele><time>2026-07-30T21:34:04Z</time></trkpt>
<trkpt lat="34.993169" lon="-84.946355"><ele>268.8</ele><time>2026-07-30T21:34:07Z</time></trkpt>
<trkpt lat="34.993171" lon="-84.946312"><ele>267.3</ele><time>2026-07-30T21:34:10Z</time></trkpt>
<trkpt lat="34.993177" lon="-84.946269"><ele>265.8</ele><time>2026-07-30T21:34:13Z</time></trkpt>
<trkpt lat="34.99319" lon="-84.946228"><ele>264.6</ele><time>2026-07-30T21:34:16Z</time></trkpt>
<trkpt lat="34.993207" lon="-84.94619"><ele>264.0</ele><time>2026-07-30T21:34:19Z</time></trkpt>
<trkpt lat="34.993183" lon="-84.946154"><ele>264.6</ele><time>2026-07-30T21:34:22Z</time></trkpt>
<trkpt lat="34.993153" lon="-84.946149"><ele>264.0</ele><time>2026-07-30T21:34:24Z</time></trkpt>
<trkpt lat="34.993132" lon="-84.946125"><ele>264.0</ele><time>2026-07-30T21:34:26Z</time></trkpt>
<trkpt lat="34.993144" lon="-84.946084"><ele>262.4</ele><time>2026-07-30T21:34:29Z</time></trkpt>
<trkpt lat="34.993165" lon="-84.946044"><ele>262.1</ele><time>2026-07-30T21:34:32Z</time></trkpt>
<trkpt lat="34.993184" lon="-84.945999"><ele>261.2</ele><time>2026-07-30T21:34:35Z</time></trkpt>
<trkpt lat="34.993207" lon="-84.945957"><ele>259.7</ele><time>2026-07-30T21:34:38Z</time></trkpt>
<trkpt lat="34.993217" lon="-84.945924"><ele>259.7</ele><time>2026-07-30T21:34:40Z</time></trkpt>
<trkpt lat="34.993219" lon="-84.945887"><ele>259.7</ele><time>2026-07-30T21:34:42Z</time></trkpt>
<trkpt lat="34.993226" lon="-84.945854"><ele>259.4</ele><time>2026-07-30T21:34:44Z</time></trkpt>
<trkpt lat="34.99323" lon="-84.945821"><ele>259.7</ele><time>2026-07-30T21:34:46Z</time></trkpt>
<trkpt lat="34.993235" lon="-84.945785"><ele>259.7</ele><time>2026-07-30T21:34:48Z</time></trkpt>
<trkpt lat="34.993241" lon="-84.945736"><ele>259.4</ele><time>2026-07-30T21:34:51Z</time></trkpt>
<trkpt lat="34.993248" lon="-84.945687"><ele>258.5</ele><time>2026-07-30T21:34:54Z</time></trkpt>
<trkpt lat="34.993252" lon="-84.945638"><ele>258.2</ele><time>2026-07-30T21:34:57Z</time></trkpt>
<trkpt lat="34.993252" lon="-84.94559"><ele>258.5</ele><time>2026-07-30T21:35:00Z</time></trkpt>
<trkpt lat="34.993254" lon="-84.94554"><ele>258.8</ele><time>2026-07-30T21:35:03Z</time></trkpt>
<trkpt lat="34.993258" lon="-84.945507"><ele>258.8</ele><time>2026-07-30T21:35:05Z</time></trkpt>
<trkpt lat="34.993264" lon="-84.945473"><ele>258.5</ele><time>2026-07-30T21:35:07Z</time></trkpt>
<trkpt lat="34.993272" lon="-84.945425"><ele>258.8</ele><time>2026-07-30T21:35:10Z</time></trkpt>
<trkpt lat="34.993279" lon="-84.945392"><ele>258.8</ele><time>2026-07-30T21:35:12Z</time></trkpt>
<trkpt lat="34.993284" lon="-84.945359"><ele>258.5</ele><time>2026-07-30T21:35:14Z</time></trkpt>
<trkpt lat="34.99329" lon="-84.945325"><ele>258.5</ele><time>2026-07-30T21:35:16Z</time></trkpt>
<trkpt lat="34.993293" lon="-84.945278"><ele>258.2</ele><time>2026-07-30T21:35:19Z</time></trkpt>
<trkpt lat="34.993299" lon="-84.94523"><ele>258.5</ele><time>2026-07-30T21:35:22Z</time></trkpt>
<trkpt lat="34.9933" lon="-84.945197"><ele>258.5</ele><time>2026-07-30T21:35:24Z</time></trkpt>
<trkpt lat="34.9933" lon="-84.94515"><ele>258.5</ele><time>2026-07-30T21:35:27Z</time></trkpt>
<trkpt lat="34.993294" lon="-84.945117"><ele>258.5</ele><time>2026-07-30T21:35:29Z</time></trkpt>
<trkpt lat="34.993272" lon="-84.945093"><ele>258.2</ele><time>2026-07-30T21:35:31Z</time></trkpt>
<trkpt lat="34.993246" lon="-84.945074"><ele>258.8</ele><time>2026-07-30T21:35:33Z</time></trkpt>
<trkpt lat="34.99322" lon="-84.945057"><ele>259.4</ele><time>2026-07-30T21:35:35Z</time></trkpt>
<trkpt lat="34.993183" lon="-84.945037"><ele>259.7</ele><time>2026-07-30T21:35:38Z</time></trkpt>
<trkpt lat="34.993146" lon="-84.945015"><ele>259.7</ele><time>2026-07-30T21:35:41Z</time></trkpt>
<trkpt lat="34.993111" lon="-84.944999"><ele>260.9</ele><time>2026-07-30T21:35:44Z</time></trkpt>
<trkpt lat="34.993079" lon="-84.944975"><ele>261.8</ele><time>2026-07-30T21:35:47Z</time></trkpt>
<trkpt lat="34.993045" lon="-84.944951"><ele>262.1</ele><time>2026-07-30T21:35:50Z</time></trkpt>
<trkpt lat="34.993014" lon="-84.944924"><ele>262.1</ele><time>2026-07-30T21:35:53Z</time></trkpt>
<trkpt lat="34.99298" lon="-84.944898"><ele>262.4</ele><time>2026-07-30T21:35:56Z</time></trkpt>
<trkpt lat="34.992951" lon="-84.944871"><ele>261.5</ele><time>2026-07-30T21:35:59Z</time></trkpt>
<trkpt lat="34.992934" lon="-84.944828"><ele>261.2</ele><time>2026-07-30T21:36:02Z</time></trkpt>
<trkpt lat="34.992934" lon="-84.944794"><ele>260.9</ele><time>2026-07-30T21:36:04Z</time></trkpt>
<trkpt lat="34.992943" lon="-84.944759"><ele>260.6</ele><time>2026-07-30T21:36:06Z</time></trkpt>
<trkpt lat="34.992954" lon="-84.944724"><ele>260.6</ele><time>2026-07-30T21:36:08Z</time></trkpt>
<trkpt lat="34.992953" lon="-84.944688"><ele>260.3</ele><time>2026-07-30T21:36:10Z</time></trkpt>
<trkpt lat="34.992921" lon="-84.944666"><ele>259.7</ele><time>2026-07-30T21:36:13Z</time></trkpt>
<trkpt lat="34.992884" lon="-84.944652"><ele>260.3</ele><time>2026-07-30T21:36:16Z</time></trkpt>
<trkpt lat="34.992845" lon="-84.944637"><ele>260.3</ele><time>2026-07-30T21:36:19Z</time></trkpt>
<trkpt lat="34.992819" lon="-84.944627"><ele>260.3</ele><time>2026-07-30T21:36:21Z</time></trkpt>
<trkpt lat="34.992783" lon="-84.944604"><ele>260.0</ele><time>2026-07-30T21:36:24Z</time></trkpt>
<trkpt lat="34.992756" lon="-84.944594"><ele>260.3</ele><time>2026-07-30T21:36:26Z</time></trkpt>
<trkpt lat="34.99273" lon="-84.944582"><ele>260.3</ele><time>2026-07-30T21:36:28Z</time></trkpt>
<trkpt lat="34.992695" lon="-84.944566"><ele>259.7</ele><time>2026-07-30T21:36:31Z</time></trkpt>
<trkpt lat="34.99266" lon="-84.944556"><ele>259.7</ele><time>2026-07-30T21:36:34Z</time></trkpt>
<trkpt lat="34.99262" lon="-84.944557"><ele>259.7</ele><time>2026-07-30T21:36:37Z</time></trkpt>
<trkpt lat="34.99258" lon="-84.944566"><ele>260.0</ele><time>2026-07-30T21:36:40Z</time></trkpt>
<trkpt lat="34.992552" lon="-84.944577"><ele>260.0</ele><time>2026-07-30T21:36:42Z</time></trkpt>
<trkpt lat="34.992517" lon="-84.944601"><ele>260.0</ele><time>2026-07-30T21:36:45Z</time></trkpt>
<trkpt lat="34.992494" lon="-84.94462"><ele>260.3</ele><time>2026-07-30T21:36:47Z</time></trkpt>
<trkpt lat="34.992474" lon="-84.944642"><ele>260.0</ele><time>2026-07-30T21:36:49Z</time></trkpt>
<trkpt lat="34.992459" lon="-84.944672"><ele>259.1</ele><time>2026-07-30T21:36:51Z</time></trkpt>
<trkpt lat="34.992443" lon="-84.9447"><ele>259.1</ele><time>2026-07-30T21:36:53Z</time></trkpt>
<trkpt lat="34.992429" lon="-84.944729"><ele>259.4</ele><time>2026-07-30T21:36:55Z</time></trkpt>
<trkpt lat="34.992416" lon="-84.944762"><ele>259.7</ele><time>2026-07-30T21:36:57Z</time></trkpt>
<trkpt lat="34.992408" lon="-84.944797"><ele>259.7</ele><time>2026-07-30T21:36:59Z</time></trkpt>
<trkpt lat="34.992404" lon="-84.944832"><ele>260.0</ele><time>2026-07-30T21:37:01Z</time></trkpt>
<trkpt lat="34.992408" lon="-84.944868"><ele>260.3</ele><time>2026-07-30T21:37:03Z</time></trkpt>
<trkpt lat="34.992406" lon="-84.944901"><ele>261.2</ele><time>2026-07-30T21:37:05Z</time></trkpt>
<trkpt lat="34.992413" lon="-84.944938"><ele>261.5</ele><time>2026-07-30T21:37:07Z</time></trkpt>
<trkpt lat="34.992425" lon="-84.944973"><ele>261.2</ele><time>2026-07-30T21:37:09Z</time></trkpt>
<trkpt lat="34.99245" lon="-84.945011"><ele>260.6</ele><time>2026-07-30T21:37:12Z</time></trkpt>
<trkpt lat="34.992484" lon="-84.945036"><ele>259.4</ele><time>2026-07-30T21:37:15Z</time></trkpt>
<trkpt lat="34.992494" lon="-84.94508"><ele>258.8</ele><time>2026-07-30T21:37:18Z</time></trkpt>
<trkpt lat="34.992496" lon="-84.945115"><ele>258.2</ele><time>2026-07-30T21:37:20Z</time></trkpt>
<trkpt lat="34.992498" lon="-84.945165"><ele>257.6</ele><time>2026-07-30T21:37:23Z</time></trkpt>
<trkpt lat="34.992488" lon="-84.945212"><ele>257.3</ele><time>2026-07-30T21:37:26Z</time></trkpt>
<trkpt lat="34.992476" lon="-84.945256"><ele>258.5</ele><time>2026-07-30T21:37:29Z</time></trkpt>
<trkpt lat="34.992455" lon="-84.945292"><ele>259.4</ele><time>2026-07-30T21:37:32Z</time></trkpt>
<trkpt lat="34.992428" lon="-84.945322"><ele>259.7</ele><time>2026-07-30T21:37:35Z</time></trkpt>
<trkpt lat="34.992397" lon="-84.945339"><ele>259.1</ele><time>2026-07-30T21:37:38Z</time></trkpt>
<trkpt lat="34.992367" lon="-84.94535"><ele>258.8</ele><time>2026-07-30T21:37:41Z</time></trkpt>
<trkpt lat="34.992333" lon="-84.945355"><ele>259.7</ele><time>2026-07-30T21:37:44Z</time></trkpt>
<trkpt lat="34.992298" lon="-84.945354"><ele>259.7</ele><time>2026-07-30T21:37:47Z</time></trkpt>
<trkpt lat="34.992257" lon="-84.945358"><ele>259.7</ele><time>2026-07-30T21:37:50Z</time></trkpt>
<trkpt lat="34.992228" lon="-84.94536"><ele>259.7</ele><time>2026-07-30T21:37:52Z</time></trkpt>
<trkpt lat="34.992201" lon="-84.945357"><ele>260.0</ele><time>2026-07-30T21:37:54Z</time></trkpt>
<trkpt lat="34.992159" lon="-84.945353"><ele>261.2</ele><time>2026-07-30T21:37:57Z</time></trkpt>
<trkpt lat="34.992128" lon="-84.945358"><ele>261.2</ele><time>2026-07-30T21:37:59Z</time></trkpt>
<trkpt lat="34.992101" lon="-84.945365"><ele>261.8</ele><time>2026-07-30T21:38:01Z</time></trkpt>
<trkpt lat="34.992065" lon="-84.945386"><ele>263.0</ele><time>2026-07-30T21:38:04Z</time></trkpt>
<trkpt lat="34.992041" lon="-84.945404"><ele>262.7</ele><time>2026-07-30T21:38:06Z</time></trkpt>
<trkpt lat="34.992004" lon="-84.945427"><ele>263.3</ele><time>2026-07-30T21:38:09Z</time></trkpt>
<trkpt lat="34.99198" lon="-84.945445"><ele>263.0</ele><time>2026-07-30T21:38:11Z</time></trkpt>
<trkpt lat="34.991957" lon="-84.945466"><ele>263.7</ele><time>2026-07-30T21:38:13Z</time></trkpt>
<trkpt lat="34.99193" lon="-84.945481"><ele>263.7</ele><time>2026-07-30T21:38:15Z</time></trkpt>
<trkpt lat="34.991903" lon="-84.945489"><ele>265.2</ele><time>2026-07-30T21:38:17Z</time></trkpt>
<trkpt lat="34.991868" lon="-84.945514"><ele>264.9</ele><time>2026-07-30T21:38:20Z</time></trkpt>
<trkpt lat="34.991845" lon="-84.945551"><ele>262.7</ele><time>2026-07-30T21:38:23Z</time></trkpt>
<trkpt lat="34.991822" lon="-84.945577"><ele>263.0</ele><time>2026-07-30T21:38:25Z</time></trkpt>
<trkpt lat="34.991799" lon="-84.9456"><ele>263.3</ele><time>2026-07-30T21:38:27Z</time></trkpt>
<trkpt lat="34.991778" lon="-84.945622"><ele>266.4</ele><time>2026-07-30T21:38:29Z</time></trkpt>
<trkpt lat="34.991754" lon="-84.945642"><ele>266.7</ele><time>2026-07-30T21:38:31Z</time></trkpt>
<trkpt lat="34.991734" lon="-84.945668"><ele>267.3</ele><time>2026-07-30T21:38:33Z</time></trkpt>
<trkpt lat="34.991716" lon="-84.945696"><ele>266.4</ele><time>2026-07-30T21:38:35Z</time></trkpt>
<trkpt lat="34.991691" lon="-84.945725"><ele>266.1</ele><time>2026-07-30T21:38:37Z</time></trkpt>
<trkpt lat="34.991661" lon="-84.945746"><ele>264.9</ele><time>2026-07-30T21:38:39Z</time></trkpt>
<trkpt lat="34.991636" lon="-84.945768"><ele>265.2</ele><time>2026-07-30T21:38:41Z</time></trkpt>
<trkpt lat="34.991605" lon="-84.945801"><ele>266.1</ele><time>2026-07-30T21:38:44Z</time></trkpt>
<trkpt lat="34.991591" lon="-84.945833"><ele>264.6</ele><time>2026-07-30T21:38:46Z</time></trkpt>
<trkpt lat="34.991597" lon="-84.945872"><ele>265.2</ele><time>2026-07-30T21:38:48Z</time></trkpt>
<trkpt lat="34.991622" lon="-84.945907"><ele>261.2</ele><time>2026-07-30T21:38:50Z</time></trkpt>
<trkpt lat="34.991643" lon="-84.945937"><ele>262.1</ele><time>2026-07-30T21:38:52Z</time></trkpt>
<trkpt lat="34.991659" lon="-84.94597"><ele>260.6</ele><time>2026-07-30T21:38:54Z</time></trkpt>
<trkpt lat="34.991674" lon="-84.946006"><ele>259.7</ele><time>2026-07-30T21:38:56Z</time></trkpt>
<trkpt lat="34.991682" lon="-84.946041"><ele>258.5</ele><time>2026-07-30T21:38:58Z</time></trkpt>
<trkpt lat="34.991691" lon="-84.946075"><ele>259.4</ele><time>2026-07-30T21:39:00Z</time></trkpt>
<trkpt lat="34.991695" lon="-84.94611"><ele>260.3</ele><time>2026-07-30T21:39:02Z</time></trkpt>
<trkpt lat="34.991707" lon="-84.946147"><ele>260.0</ele><time>2026-07-30T21:39:04Z</time></trkpt>
<trkpt lat="34.991721" lon="-84.946179"><ele>261.8</ele><time>2026-07-30T21:39:06Z</time></trkpt>
<trkpt lat="34.991737" lon="-84.946209"><ele>262.7</ele><time>2026-07-30T21:39:08Z</time></trkpt>
<trkpt lat="34.991752" lon="-84.946242"><ele>263.0</ele><time>2026-07-30T21:39:10Z</time></trkpt>
<trkpt lat="34.991771" lon="-84.946273"><ele>264.6</ele><time>2026-07-30T21:39:12Z</time></trkpt>
<trkpt lat="34.991789" lon="-84.946298"><ele>264.6</ele><time>2026-07-30T21:39:14Z</time></trkpt>
<trkpt lat="34.99178" lon="-84.946345"><ele>264.3</ele><time>2026-07-30T21:39:17Z</time></trkpt>
<trkpt lat="34.991751" lon="-84.946347"><ele>260.0</ele><time>2026-07-30T21:39:19Z</time></trkpt>
<trkpt lat="34.991716" lon="-84.946349"><ele>260.3</ele><time>2026-07-30T21:39:22Z</time></trkpt>
<trkpt lat="34.991694" lon="-84.94637"><ele>260.3</ele><time>2026-07-30T21:39:24Z</time></trkpt>
<trkpt lat="34.99166" lon="-84.946397"><ele>260.3</ele><time>2026-07-30T21:39:27Z</time></trkpt>
<trkpt lat="34.991629" lon="-84.946409"><ele>261.2</ele><time>2026-07-30T21:39:29Z</time></trkpt>
<trkpt lat="34.9916" lon="-84.94642"><ele>260.3</ele><time>2026-07-30T21:39:31Z</time></trkpt>
<trkpt lat="34.991566" lon="-84.946425"><ele>257.6</ele><time>2026-07-30T21:39:34Z</time></trkpt>
<trkpt lat="34.991536" lon="-84.946423"><ele>258.5</ele><time>2026-07-30T21:39:36Z</time></trkpt>
<trkpt lat="34.991498" lon="-84.946409"><ele>256.9</ele><time>2026-07-30T21:39:39Z</time></trkpt>
<trkpt lat="34.991473" lon="-84.946393"><ele>258.2</ele><time>2026-07-30T21:39:41Z</time></trkpt>
<trkpt lat="34.991446" lon="-84.946378"><ele>259.1</ele><time>2026-07-30T21:39:43Z</time></trkpt>
<trkpt lat="34.991419" lon="-84.946361"><ele>261.5</ele><time>2026-07-30T21:39:45Z</time></trkpt>
<trkpt lat="34.991394" lon="-84.946336"><ele>263.0</ele><time>2026-07-30T21:39:47Z</time></trkpt>
<trkpt lat="34.991373" lon="-84.946314"><ele>262.7</ele><time>2026-07-30T21:39:49Z</time></trkpt>
<trkpt lat="34.99134" lon="-84.946318"><ele>262.7</ele><time>2026-07-30T21:39:51Z</time></trkpt>
<trkpt lat="34.991307" lon="-84.946333"><ele>264.0</ele><time>2026-07-30T21:39:53Z</time></trkpt>
<trkpt lat="34.99128" lon="-84.946344"><ele>263.7</ele><time>2026-07-30T21:39:55Z</time></trkpt>
<trkpt lat="34.991252" lon="-84.946357"><ele>264.0</ele><time>2026-07-30T21:39:57Z</time></trkpt>
<trkpt lat="34.991227" lon="-84.946374"><ele>263.3</ele><time>2026-07-30T21:39:59Z</time></trkpt>
<trkpt lat="34.991197" lon="-84.946389"><ele>264.0</ele><time>2026-07-30T21:40:01Z</time></trkpt>
<trkpt lat="34.991174" lon="-84.946413"><ele>264.6</ele><time>2026-07-30T21:40:03Z</time></trkpt>
<trkpt lat="34.991135" lon="-84.946429"><ele>265.2</ele><time>2026-07-30T21:40:06Z</time></trkpt>
<trkpt lat="34.991095" lon="-84.946427"><ele>266.4</ele><time>2026-07-30T21:40:09Z</time></trkpt>
<trkpt lat="34.991057" lon="-84.946422"><ele>265.2</ele><time>2026-07-30T21:40:12Z</time></trkpt>
<trkpt lat="34.991019" lon="-84.946408"><ele>264.6</ele><time>2026-07-30T21:40:15Z</time></trkpt>
<trkpt lat="34.990991" lon="-84.946397"><ele>266.1</ele><time>2026-07-30T21:40:17Z</time></trkpt>
<trkpt lat="34.990953" lon="-84.946384"><ele>264.9</ele><time>2026-07-30T21:40:20Z</time></trkpt>
<trkpt lat="34.990925" lon="-84.946377"><ele>264.6</ele><time>2026-07-30T21:40:22Z</time></trkpt>
<trkpt lat="34.990898" lon="-84.94636"><ele>265.2</ele><time>2026-07-30T21:40:24Z</time></trkpt>
<trkpt lat="34.990869" lon="-84.946354"><ele>266.7</ele><time>2026-07-30T21:40:26Z</time></trkpt>
<trkpt lat="34.990843" lon="-84.946384"><ele>266.4</ele><time>2026-07-30T21:40:28Z</time></trkpt>
<trkpt lat="34.990831" lon="-84.946426"><ele>264.6</ele><time>2026-07-30T21:40:30Z</time></trkpt>
<trkpt lat="34.990824" lon="-84.946466"><ele>263.3</ele><time>2026-07-30T21:40:32Z</time></trkpt>
<trkpt lat="34.990802" lon="-84.946499"><ele>264.0</ele><time>2026-07-30T21:40:34Z</time></trkpt>
<trkpt lat="34.990774" lon="-84.946521"><ele>265.5</ele><time>2026-07-30T21:40:36Z</time></trkpt>
<trkpt lat="34.990741" lon="-84.946535"><ele>267.6</ele><time>2026-07-30T21:40:38Z</time></trkpt>
<trkpt lat="34.990717" lon="-84.946557"><ele>267.0</ele><time>2026-07-30T21:40:40Z</time></trkpt>
<trkpt lat="34.990704" lon="-84.946592"><ele>267.6</ele><time>2026-07-30T21:40:42Z</time></trkpt>
<trkpt lat="34.990699" lon="-84.946632"><ele>264.6</ele><time>2026-07-30T21:40:44Z</time></trkpt>
<trkpt lat="34.990702" lon="-84.946672"><ele>265.2</ele><time>2026-07-30T21:40:46Z</time></trkpt>
<trkpt lat="34.990711" lon="-84.946711"><ele>264.0</ele><time>2026-07-30T21:40:48Z</time></trkpt>
<trkpt lat="34.990716" lon="-84.946747"><ele>264.6</ele><time>2026-07-30T21:40:50Z</time></trkpt>
<trkpt lat="34.990723" lon="-84.946796"><ele>263.7</ele><time>2026-07-30T21:40:53Z</time></trkpt>
<trkpt lat="34.99073" lon="-84.946833"><ele>264.0</ele><time>2026-07-30T21:40:55Z</time></trkpt>
<trkpt lat="34.990734" lon="-84.94687"><ele>264.6</ele><time>2026-07-30T21:40:57Z</time></trkpt>
<trkpt lat="34.990727" lon="-84.946905"><ele>263.7</ele><time>2026-07-30T21:40:59Z</time></trkpt>
<trkpt lat="34.99072" lon="-84.94694"><ele>263.3</ele><time>2026-07-30T21:41:01Z</time></trkpt>
<trkpt lat="34.990705" lon="-84.94697"><ele>263.0</ele><time>2026-07-30T21:41:03Z</time></trkpt>
<trkpt lat="34.990678" lon="-84.94699"><ele>263.7</ele><time>2026-07-30T21:41:05Z</time></trkpt>
<trkpt lat="34.990654" lon="-84.947012"><ele>264.6</ele><time>2026-07-30T21:41:07Z</time></trkpt>
<trkpt lat="34.990634" lon="-84.947039"><ele>265.2</ele><time>2026-07-30T21:41:09Z</time></trkpt>
<trkpt lat="34.990625" lon="-84.947071"><ele>267.3</ele><time>2026-07-30T21:41:11Z</time></trkpt>
<trkpt lat="34.990635" lon="-84.947105"><ele>268.5</ele><time>2026-07-30T21:41:13Z</time></trkpt>
<trkpt lat="34.990645" lon="-84.947146"><ele>268.2</ele><time>2026-07-30T21:41:16Z</time></trkpt>
<trkpt lat="34.990668" lon="-84.947176"><ele>270.7</ele><time>2026-07-30T21:41:19Z</time></trkpt>
<trkpt lat="34.990701" lon="-84.947202"><ele>271.9</ele><time>2026-07-30T21:41:22Z</time></trkpt>
<trkpt lat="34.990721" lon="-84.947234"><ele>271.3</ele><time>2026-07-30T21:41:25Z</time></trkpt>
<trkpt lat="34.990723" lon="-84.947274"><ele>271.6</ele><time>2026-07-30T21:41:28Z</time></trkpt>
<trkpt lat="34.990713" lon="-84.947312"><ele>272.2</ele><time>2026-07-30T21:41:31Z</time></trkpt>
<trkpt lat="34.990708" lon="-84.947356"><ele>274.6</ele><time>2026-07-30T21:41:34Z</time></trkpt>
<trkpt lat="34.990713" lon="-84.947398"><ele>275.2</ele><time>2026-07-30T21:41:37Z</time></trkpt>
<trkpt lat="34.99073" lon="-84.947425"><ele>275.2</ele><time>2026-07-30T21:41:39Z</time></trkpt>
<trkpt lat="34.990746" lon="-84.947454"><ele>274.9</ele><time>2026-07-30T21:41:41Z</time></trkpt>
<trkpt lat="34.990772" lon="-84.947489"><ele>274.9</ele><time>2026-07-30T21:41:44Z</time></trkpt>
<trkpt lat="34.990794" lon="-84.947522"><ele>273.7</ele><time>2026-07-30T21:41:47Z</time></trkpt>
<trkpt lat="34.990808" lon="-84.947561"><ele>272.5</ele><time>2026-07-30T21:41:50Z</time></trkpt>
<trkpt lat="34.990822" lon="-84.947593"><ele>272.5</ele><time>2026-07-30T21:41:53Z</time></trkpt>
<trkpt lat="34.990831" lon="-84.947633"><ele>273.7</ele><time>2026-07-30T21:41:57Z</time></trkpt>
<trkpt lat="34.990865" lon="-84.947632"><ele>270.1</ele><time>2026-07-30T21:42:02Z</time></trkpt>
<trkpt lat="34.990897" lon="-84.947604"><ele>269.4</ele><time>2026-07-30T21:42:05Z</time></trkpt>
<trkpt lat="34.990927" lon="-84.947592"><ele>267.9</ele><time>2026-07-30T21:42:07Z</time></trkpt>
<trkpt lat="34.990957" lon="-84.947574"><ele>267.3</ele><time>2026-07-30T21:42:09Z</time></trkpt>
<trkpt lat="34.99098" lon="-84.947536"><ele>263.7</ele><time>2026-07-30T21:42:11Z</time></trkpt>
<trkpt lat="34.990999" lon="-84.947498"><ele>261.2</ele><time>2026-07-30T21:42:13Z</time></trkpt>
<trkpt lat="34.991015" lon="-84.947462"><ele>260.0</ele><time>2026-07-30T21:42:15Z</time></trkpt>
<trkpt lat="34.991025" lon="-84.947426"><ele>259.4</ele><time>2026-07-30T21:42:17Z</time></trkpt>
<trkpt lat="34.991037" lon="-84.947387"><ele>257.6</ele><time>2026-07-30T21:42:19Z</time></trkpt>
<trkpt lat="34.991055" lon="-84.947355"><ele>258.2</ele><time>2026-07-30T21:42:21Z</time></trkpt>
<trkpt lat="34.991085" lon="-84.947333"><ele>260.0</ele><time>2026-07-30T21:42:23Z</time></trkpt>
<trkpt lat="34.991112" lon="-84.947324"><ele>260.9</ele><time>2026-07-30T21:42:25Z</time></trkpt>
<trkpt lat="34.99115" lon="-84.947329"><ele>264.0</ele><time>2026-07-30T21:42:28Z</time></trkpt>
<trkpt lat="34.99118" lon="-84.947343"><ele>265.5</ele><time>2026-07-30T21:42:31Z</time></trkpt>
<trkpt lat="34.991219" lon="-84.947356"><ele>266.1</ele><time>2026-07-30T21:42:34Z</time></trkpt>
<trkpt lat="34.99126" lon="-84.947358"><ele>268.2</ele><time>2026-07-30T21:42:37Z</time></trkpt>
<trkpt lat="34.9913" lon="-84.947366"><ele>267.6</ele><time>2026-07-30T21:42:40Z</time></trkpt>
<trkpt lat="34.991325" lon="-84.947383"><ele>267.0</ele><time>2026-07-30T21:42:42Z</time></trkpt>
<trkpt lat="34.991351" lon="-84.947398"><ele>267.0</ele><time>2026-07-30T21:42:44Z</time></trkpt>
<trkpt lat="34.991387" lon="-84.947405"><ele>269.4</ele><time>2026-07-30T21:42:47Z</time></trkpt>
<trkpt lat="34.991411" lon="-84.947369"><ele>269.1</ele><time>2026-07-30T21:42:50Z</time></trkpt>
<trkpt lat="34.991447" lon="-84.947357"><ele>269.1</ele><time>2026-07-30T21:42:53Z</time></trkpt>
<trkpt lat="34.991476" lon="-84.947372"><ele>269.4</ele><time>2026-07-30T21:42:55Z</time></trkpt>
<trkpt lat="34.991514" lon="-84.947369"><ele>269.7</ele><time>2026-07-30T21:42:58Z</time></trkpt>
<trkpt lat="34.991552" lon="-84.947354"><ele>270.1</ele><time>2026-07-30T21:43:01Z</time></trkpt>
<trkpt lat="34.991594" lon="-84.947354"><ele>270.7</ele><time>2026-07-30T21:43:04Z</time></trkpt>
<trkpt lat="34.991633" lon="-84.947367"><ele>271.0</ele><time>2026-07-30T21:43:07Z</time></trkpt>
<trkpt lat="34.991664" lon="-84.947369"><ele>272.5</ele><time>2026-07-30T21:43:09Z</time></trkpt>
<trkpt lat="34.991692" lon="-84.947359"><ele>272.2</ele><time>2026-07-30T21:43:11Z</time></trkpt>
<trkpt lat="34.991731" lon="-84.947359"><ele>271.9</ele><time>2026-07-30T21:43:14Z</time></trkpt>
<trkpt lat="34.991769" lon="-84.947366"><ele>271.9</ele><time>2026-07-30T21:43:17Z</time></trkpt>
<trkpt lat="34.991802" lon="-84.947389"><ele>271.6</ele><time>2026-07-30T21:43:20Z</time></trkpt>
<trkpt lat="34.991825" lon="-84.947409"><ele>271.6</ele><time>2026-07-30T21:43:22Z</time></trkpt>
<trkpt lat="34.991853" lon="-84.947437"><ele>271.6</ele><time>2026-07-30T21:43:25Z</time></trkpt>
<trkpt lat="34.991881" lon="-84.94743"><ele>271.3</ele><time>2026-07-30T21:43:27Z</time></trkpt>
<trkpt lat="34.991877" lon="-84.947389"><ele>270.7</ele><time>2026-07-30T21:43:28Z</time></trkpt>
<trkpt lat="34.991847" lon="-84.94736"><ele>269.4</ele><time>2026-07-30T21:43:30Z</time></trkpt>
<trkpt lat="34.991839" lon="-84.947355"><ele>270.7</ele><time>2026-07-30T21:43:31Z</time></trkpt>
<trkpt lat="34.991832" lon="-84.947348"><ele>271.3</ele><time>2026-07-30T21:43:41Z</time></trkpt>
<trkpt lat="34.991832" lon="-84.947349"><ele>271.9</ele><time>2026-07-30T21:43:42Z</time></trkpt>
<trkpt lat="34.991854" lon="-84.947373"><ele>271.3</ele><time>2026-07-30T21:43:45Z</time></trkpt>
<trkpt lat="34.991882" lon="-84.947398"><ele>270.4</ele><time>2026-07-30T21:43:47Z</time></trkpt>
<trkpt lat="34.991915" lon="-84.947426"><ele>270.4</ele><time>2026-07-30T21:43:50Z</time></trkpt>
<trkpt lat="34.99194" lon="-84.947453"><ele>270.7</ele><time>2026-07-30T21:43:52Z</time></trkpt>
<trkpt lat="34.991974" lon="-84.947463"><ele>270.7</ele><time>2026-07-30T21:43:56Z</time></trkpt>
<trkpt lat="34.992001" lon="-84.947477"><ele>272.5</ele><time>2026-07-30T21:43:59Z</time></trkpt>
<trkpt lat="34.992036" lon="-84.947493"><ele>273.4</ele><time>2026-07-30T21:44:02Z</time></trkpt>
<trkpt lat="34.992059" lon="-84.947512"><ele>274.0</ele><time>2026-07-30T21:44:04Z</time></trkpt>
<trkpt lat="34.992093" lon="-84.947526"><ele>276.1</ele><time>2026-07-30T21:44:07Z</time></trkpt>
<trkpt lat="34.992118" lon="-84.947551"><ele>275.8</ele><time>2026-07-30T21:44:09Z</time></trkpt>
<trkpt lat="34.992141" lon="-84.947572"><ele>276.5</ele><time>2026-07-30T21:44:11Z</time></trkpt>
<trkpt lat="34.992161" lon="-84.947597"><ele>276.1</ele><time>2026-07-30T21:44:13Z</time></trkpt>
<trkpt lat="34.992178" lon="-84.947629"><ele>276.8</ele><time>2026-07-30T21:44:16Z</time></trkpt>
<trkpt lat="34.992204" lon="-84.94765"><ele>280.1</ele><time>2026-07-30T21:44:19Z</time></trkpt>
<trkpt lat="34.99223" lon="-84.947681"><ele>279.2</ele><time>2026-07-30T21:44:22Z</time></trkpt>
<trkpt lat="34.992243" lon="-84.947725"><ele>279.5</ele><time>2026-07-30T21:44:25Z</time></trkpt>
<trkpt lat="34.992264" lon="-84.947759"><ele>280.1</ele><time>2026-07-30T21:44:28Z</time></trkpt>
<trkpt lat="34.992271" lon="-84.947809"><ele>278.0</ele><time>2026-07-30T21:44:31Z</time></trkpt>
<trkpt lat="34.992269" lon="-84.947855"><ele>277.7</ele><time>2026-07-30T21:44:33Z</time></trkpt>
<trkpt lat="34.992271" lon="-84.947892"><ele>278.6</ele><time>2026-07-30T21:44:35Z</time></trkpt>
<trkpt lat="34.992277" lon="-84.947925"><ele>279.2</ele><time>2026-07-30T21:44:37Z</time></trkpt>
<trkpt lat="34.9923" lon="-84.94795"><ele>280.7</ele><time>2026-07-30T21:44:40Z</time></trkpt>
<trkpt lat="34.992322" lon="-84.947972"><ele>281.0</ele><time>2026-07-30T21:44:43Z</time></trkpt>
<trkpt lat="34.992348" lon="-84.94799"><ele>280.1</ele><time>2026-07-30T21:44:46Z</time></trkpt>
<trkpt lat="34.992383" lon="-84.947985"><ele>281.6</ele><time>2026-07-30T21:44:49Z</time></trkpt>
<trkpt lat="34.992416" lon="-84.947982"><ele>283.5</ele><time>2026-07-30T21:44:52Z</time></trkpt>
<trkpt lat="34.992436" lon="-84.947953"><ele>281.9</ele><time>2026-07-30T21:44:55Z</time></trkpt>
<trkpt lat="34.992396" lon="-84.947948"><ele>284.1</ele><time>2026-07-30T21:44:57Z</time></trkpt>
<trkpt lat="34.992359" lon="-84.94796"><ele>282.2</ele><time>2026-07-30T21:45:00Z</time></trkpt>
<trkpt lat="34.99232" lon="-84.947954"><ele>284.4</ele><time>2026-07-30T21:45:03Z</time></trkpt>
<trkpt lat="34.992287" lon="-84.947933"><ele>285.3</ele><time>2026-07-30T21:45:06Z</time></trkpt>
<trkpt lat="34.992262" lon="-84.94791"><ele>283.8</ele><time>2026-07-30T21:45:09Z</time></trkpt>
<trkpt lat="34.99227" lon="-84.94787"><ele>283.2</ele><time>2026-07-30T21:45:12Z</time></trkpt>
<trkpt lat="34.992263" lon="-84.947827"><ele>283.2</ele><time>2026-07-30T21:45:14Z</time></trkpt>
<trkpt lat="34.992247" lon="-84.947791"><ele>282.5</ele><time>2026-07-30T21:45:16Z</time></trkpt>
<trkpt lat="34.992219" lon="-84.947767"><ele>280.7</ele><time>2026-07-30T21:45:19Z</time></trkpt>
<trkpt lat="34.99221" lon="-84.947724"><ele>278.3</ele><time>2026-07-30T21:45:22Z</time></trkpt>
<trkpt lat="34.992197" lon="-84.947693"><ele>277.4</ele><time>2026-07-30T21:45:24Z</time></trkpt>
<trkpt lat="34.992174" lon="-84.947672"><ele>275.8</ele><time>2026-07-30T21:45:26Z</time></trkpt>
<trkpt lat="34.992149" lon="-84.947643"><ele>274.6</ele><time>2026-07-30T21:45:29Z</time></trkpt>
<trkpt lat="34.992128" lon="-84.947615"><ele>272.8</ele><time>2026-07-30T21:45:35Z</time></trkpt>
<trkpt lat="34.992099" lon="-84.947595"><ele>271.0</ele><time>2026-07-30T21:45:38Z</time></trkpt>
<trkpt lat="34.992071" lon="-84.947575"><ele>268.5</ele><time>2026-07-30T21:45:40Z</time></trkpt>
<trkpt lat="34.992048" lon="-84.947536"><ele>267.3</ele><time>2026-07-30T21:45:42Z</time></trkpt>
<trkpt lat="34.992023" lon="-84.947502"><ele>268.8</ele><time>2026-07-30T21:45:44Z</time></trkpt>
<trkpt lat="34.991991" lon="-84.947482"><ele>269.1</ele><time>2026-07-30T21:45:46Z</time></trkpt>
<trkpt lat="34.991958" lon="-84.947466"><ele>270.7</ele><time>2026-07-30T21:45:48Z</time></trkpt>
<trkpt lat="34.991923" lon="-84.947453"><ele>271.3</ele><time>2026-07-30T21:45:50Z</time></trkpt>
<trkpt lat="34.991886" lon="-84.947453"><ele>271.6</ele><time>2026-07-30T21:45:52Z</time></trkpt>
<trkpt lat="34.991848" lon="-84.947445"><ele>271.6</ele><time>2026-07-30T21:45:54Z</time></trkpt>
<trkpt lat="34.991819" lon="-84.94741"><ele>271.6</ele><time>2026-07-30T21:45:56Z</time></trkpt>
<trkpt lat="34.991791" lon="-84.947382"><ele>272.5</ele><time>2026-07-30T21:45:58Z</time></trkpt>
<trkpt lat="34.991757" lon="-84.947366"><ele>273.7</ele><time>2026-07-30T21:46:00Z</time></trkpt>
<trkpt lat="34.991716" lon="-84.947363"><ele>275.5</ele><time>2026-07-30T21:46:02Z</time></trkpt>
<trkpt lat="34.991688" lon="-84.947358"><ele>276.1</ele><time>2026-07-30T21:46:04Z</time></trkpt>
<trkpt lat="34.99166" lon="-84.947347"><ele>275.8</ele><time>2026-07-30T21:46:06Z</time></trkpt>
<trkpt lat="34.991629" lon="-84.947356"><ele>276.1</ele><time>2026-07-30T21:46:08Z</time></trkpt>
<trkpt lat="34.991593" lon="-84.947357"><ele>273.7</ele><time>2026-07-30T21:46:11Z</time></trkpt>
<trkpt lat="34.991565" lon="-84.947363"><ele>274.0</ele><time>2026-07-30T21:46:13Z</time></trkpt>
<trkpt lat="34.991539" lon="-84.947355"><ele>274.0</ele><time>2026-07-30T21:46:15Z</time></trkpt>
<trkpt lat="34.991508" lon="-84.947347"><ele>273.7</ele><time>2026-07-30T21:46:17Z</time></trkpt>
<trkpt lat="34.991479" lon="-84.947347"><ele>273.7</ele><time>2026-07-30T21:46:19Z</time></trkpt>
<trkpt lat="34.991448" lon="-84.947349"><ele>274.6</ele><time>2026-07-30T21:46:21Z</time></trkpt>
<trkpt lat="34.991419" lon="-84.94735"><ele>275.2</ele><time>2026-07-30T21:46:23Z</time></trkpt>
<trkpt lat="34.991391" lon="-84.94735"><ele>275.5</ele><time>2026-07-30T21:46:25Z</time></trkpt>
<trkpt lat="34.991364" lon="-84.947339"><ele>274.9</ele><time>2026-07-30T21:46:27Z</time></trkpt>
<trkpt lat="34.991334" lon="-84.947351"><ele>273.4</ele><time>2026-07-30T21:46:29Z</time></trkpt>
<trkpt lat="34.991304" lon="-84.947382"><ele>271.0</ele><time>2026-07-30T21:46:32Z</time></trkpt>
<trkpt lat="34.991275" lon="-84.947376"><ele>271.3</ele><time>2026-07-30T21:46:34Z</time></trkpt>
<trkpt lat="34.991248" lon="-84.947369"><ele>272.5</ele><time>2026-07-30T21:46:36Z</time></trkpt>
<trkpt lat="34.99122" lon="-84.947363"><ele>271.6</ele><time>2026-07-30T21:46:38Z</time></trkpt>
<trkpt lat="34.991194" lon="-84.947353"><ele>272.5</ele><time>2026-07-30T21:46:40Z</time></trkpt>
<trkpt lat="34.991166" lon="-84.947354"><ele>273.4</ele><time>2026-07-30T21:46:42Z</time></trkpt>
<trkpt lat="34.991126" lon="-84.947352"><ele>274.3</ele><time>2026-07-30T21:46:45Z</time></trkpt>
<trkpt lat="34.991094" lon="-84.947341"><ele>274.6</ele><time>2026-07-30T21:46:48Z</time></trkpt>
<trkpt lat="34.991066" lon="-84.947323"><ele>275.2</ele><time>2026-07-30T21:46:51Z</time></trkpt>
<trkpt lat="34.991036" lon="-84.947304"><ele>277.7</ele><time>2026-07-30T21:46:54Z</time></trkpt>
<trkpt lat="34.991002" lon="-84.947316"><ele>278.9</ele><time>2026-07-30T21:46:57Z</time></trkpt>
<trkpt lat="34.990981" lon="-84.947339"><ele>276.1</ele><time>2026-07-30T21:47:01Z</time></trkpt>
<trkpt lat="34.990971" lon="-84.947377"><ele>275.5</ele><time>2026-07-30T21:47:04Z</time></trkpt>
<trkpt lat="34.990943" lon="-84.947403"><ele>275.5</ele><time>2026-07-30T21:47:07Z</time></trkpt>
<trkpt lat="34.990925" lon="-84.947437"><ele>274.6</ele><time>2026-07-30T21:47:10Z</time></trkpt>
<trkpt lat="34.990901" lon="-84.947468"><ele>273.4</ele><time>2026-07-30T21:47:13Z</time></trkpt>
<trkpt lat="34.990878" lon="-84.9475"><ele>274.6</ele><time>2026-07-30T21:47:16Z</time></trkpt>
<trkpt lat="34.990845" lon="-84.947519"><ele>274.9</ele><time>2026-07-30T21:47:19Z</time></trkpt>
<trkpt lat="34.990815" lon="-84.947548"><ele>274.9</ele><time>2026-07-30T21:47:22Z</time></trkpt>
<trkpt lat="34.990807" lon="-84.947592"><ele>275.2</ele><time>2026-07-30T21:47:26Z</time></trkpt>
<trkpt lat="34.990795" lon="-84.947629"><ele>273.7</ele><time>2026-07-30T21:47:29Z</time></trkpt>
<trkpt lat="34.990784" lon="-84.947667"><ele>273.1</ele><time>2026-07-30T21:47:32Z</time></trkpt>
<trkpt lat="34.990755" lon="-84.947689"><ele>274.6</ele><time>2026-07-30T21:47:35Z</time></trkpt>
<trkpt lat="34.990724" lon="-84.947705"><ele>274.0</ele><time>2026-07-30T21:47:38Z</time></trkpt>
<trkpt lat="34.990695" lon="-84.947722"><ele>273.1</ele><time>2026-07-30T21:47:41Z</time></trkpt>
<trkpt lat="34.990665" lon="-84.947737"><ele>274.0</ele><time>2026-07-30T21:47:44Z</time></trkpt>
<trkpt lat="34.990627" lon="-84.947759"><ele>274.9</ele><time>2026-07-30T21:47:47Z</time></trkpt>
<trkpt lat="34.990597" lon="-84.947761"><ele>274.9</ele><time>2026-07-30T21:47:49Z</time></trkpt>
<trkpt lat="34.990568" lon="-84.947757"><ele>275.5</ele><time>2026-07-30T21:47:51Z</time></trkpt>
<trkpt lat="34.990532" lon="-84.947749"><ele>276.1</ele><time>2026-07-30T21:47:54Z</time></trkpt>
<trkpt lat="34.990497" lon="-84.947762"><ele>276.5</ele><time>2026-07-30T21:47:57Z</time></trkpt>
<trkpt lat="34.990463" lon="-84.947782"><ele>278.3</ele><time>2026-07-30T21:48:00Z</time></trkpt>
<trkpt lat="34.990437" lon="-84.947812"><ele>277.7</ele><time>2026-07-30T21:48:03Z</time></trkpt>
<trkpt lat="34.990412" lon="-84.947845"><ele>277.4</ele><time>2026-07-30T21:48:06Z</time></trkpt>
<trkpt lat="34.990391" lon="-84.947885"><ele>275.5</ele><time>2026-07-30T21:48:09Z</time></trkpt>
<trkpt lat="34.990373" lon="-84.947926"><ele>274.9</ele><time>2026-07-30T21:48:12Z</time></trkpt>
<trkpt lat="34.990363" lon="-84.947971"><ele>274.9</ele><time>2026-07-30T21:48:15Z</time></trkpt>
<trkpt lat="34.990336" lon="-84.948004"><ele>275.8</ele><time>2026-07-30T21:48:18Z</time></trkpt>
<trkpt lat="34.990303" lon="-84.948"><ele>277.4</ele><time>2026-07-30T21:48:20Z</time></trkpt>
<trkpt lat="34.990271" lon="-84.947995"><ele>278.3</ele><time>2026-07-30T21:48:22Z</time></trkpt>
<trkpt lat="34.990243" lon="-84.947985"><ele>279.2</ele><time>2026-07-30T21:48:24Z</time></trkpt>
<trkpt lat="34.990216" lon="-84.94798"><ele>279.5</ele><time>2026-07-30T21:48:26Z</time></trkpt>
<trkpt lat="34.990186" lon="-84.947981"><ele>280.7</ele><time>2026-07-30T21:48:28Z</time></trkpt>
<trkpt lat="34.990152" lon="-84.947981"><ele>279.5</ele><time>2026-07-30T21:48:31Z</time></trkpt>
<trkpt lat="34.990117" lon="-84.947994"><ele>280.1</ele><time>2026-07-30T21:48:34Z</time></trkpt>
<trkpt lat="34.990087" lon="-84.948015"><ele>280.1</ele><time>2026-07-30T21:48:37Z</time></trkpt>
<trkpt lat="34.990059" lon="-84.948047"><ele>279.8</ele><time>2026-07-30T21:48:40Z</time></trkpt>
<trkpt lat="34.990028" lon="-84.948071"><ele>279.8</ele><time>2026-07-30T21:48:43Z</time></trkpt>
<trkpt lat="34.990007" lon="-84.948097"><ele>280.7</ele><time>2026-07-30T21:48:46Z</time></trkpt>
<trkpt lat="34.98998" lon="-84.948122"><ele>281.0</ele><time>2026-07-30T21:48:49Z</time></trkpt>
<trkpt lat="34.989961" lon="-84.94815"><ele>279.5</ele><time>2026-07-30T21:48:51Z</time></trkpt>
<trkpt lat="34.989935" lon="-84.948185"><ele>280.1</ele><time>2026-07-30T21:48:54Z</time></trkpt>
<trkpt lat="34.989905" lon="-84.94822"><ele>280.1</ele><time>2026-07-30T21:48:57Z</time></trkpt>
<trkpt lat="34.989881" lon="-84.948239"><ele>280.4</ele><time>2026-07-30T21:48:59Z</time></trkpt>
<trkpt lat="34.989845" lon="-84.948256"><ele>278.6</ele><time>2026-07-30T21:49:02Z</time></trkpt>
<trkpt lat="34.989811" lon="-84.948273"><ele>278.3</ele><time>2026-07-30T21:49:05Z</time></trkpt>
<trkpt lat="34.989772" lon="-84.948284"><ele>278.9</ele><time>2026-07-30T21:49:08Z</time></trkpt>
<trkpt lat="34.989744" lon="-84.948291"><ele>278.9</ele><time>2026-07-30T21:49:10Z</time></trkpt>
<trkpt lat="34.989714" lon="-84.948296"><ele>278.3</ele><time>2026-07-30T21:49:12Z</time></trkpt>
<trkpt lat="34.989685" lon="-84.9483"><ele>280.1</ele><time>2026-07-30T21:49:14Z</time></trkpt>
<trkpt lat="34.989657" lon="-84.948309"><ele>281.9</ele><time>2026-07-30T21:49:16Z</time></trkpt>
<trkpt lat="34.989629" lon="-84.948316"><ele>282.2</ele><time>2026-07-30T21:49:18Z</time></trkpt>
<trkpt lat="34.989592" lon="-84.948329"><ele>281.0</ele><time>2026-07-30T21:49:21Z</time></trkpt>
<trkpt lat="34.989562" lon="-84.948328"><ele>279.8</ele><time>2026-07-30T21:49:23Z</time></trkpt>
<trkpt lat="34.989531" lon="-84.948317"><ele>280.4</ele><time>2026-07-30T21:49:25Z</time></trkpt>
<trkpt lat="34.989507" lon="-84.948294"><ele>280.4</ele><time>2026-07-30T21:49:27Z</time></trkpt>
<trkpt lat="34.989479" lon="-84.948283"><ele>279.5</ele><time>2026-07-30T21:49:29Z</time></trkpt>
<trkpt lat="34.989446" lon="-84.948282"><ele>279.2</ele><time>2026-07-30T21:49:31Z</time></trkpt>
<trkpt lat="34.989412" lon="-84.94827"><ele>280.1</ele><time>2026-07-30T21:49:33Z</time></trkpt>
<trkpt lat="34.989379" lon="-84.948265"><ele>280.4</ele><time>2026-07-30T21:49:35Z</time></trkpt>
<trkpt lat="34.989345" lon="-84.948265"><ele>281.6</ele><time>2026-07-30T21:49:37Z</time></trkpt>
<trkpt lat="34.989302" lon="-84.948262"><ele>280.4</ele><time>2026-07-30T21:49:40Z</time></trkpt>
<trkpt lat="34.989273" lon="-84.948265"><ele>281.3</ele><time>2026-07-30T21:49:42Z</time></trkpt>
<trkpt lat="34.989236" lon="-84.948261"><ele>283.2</ele><time>2026-07-30T21:49:45Z</time></trkpt>
<trkpt lat="34.989197" lon="-84.948272"><ele>284.4</ele><time>2026-07-30T21:49:48Z</time></trkpt>
<trkpt lat="34.989163" lon="-84.948265"><ele>283.2</ele><time>2026-07-30T21:49:51Z</time></trkpt>
<trkpt lat="34.98913" lon="-84.94827"><ele>282.9</ele><time>2026-07-30T21:49:54Z</time></trkpt>
<trkpt lat="34.989089" lon="-84.94828"><ele>281.9</ele><time>2026-07-30T21:49:57Z</time></trkpt>
<trkpt lat="34.989051" lon="-84.948266"><ele>279.8</ele><time>2026-07-30T21:50:00Z</time></trkpt>
<trkpt lat="34.989031" lon="-84.948292"><ele>277.4</ele><time>2026-07-30T21:50:03Z</time></trkpt>
<trkpt lat="34.989023" lon="-84.948335"><ele>278.0</ele><time>2026-07-30T21:50:06Z</time></trkpt>
<trkpt lat="34.988996" lon="-84.948367"><ele>278.3</ele><time>2026-07-30T21:50:09Z</time></trkpt>
<trkpt lat="34.988968" lon="-84.948395"><ele>278.0</ele><time>2026-07-30T21:50:12Z</time></trkpt>
<trkpt lat="34.988941" lon="-84.948416"><ele>278.0</ele><time>2026-07-30T21:50:15Z</time></trkpt>
<trkpt lat="34.988913" lon="-84.948441"><ele>278.0</ele><time>2026-07-30T21:50:18Z</time></trkpt>
<trkpt lat="34.988904" lon="-84.948487"><ele>277.1</ele><time>2026-07-30T21:50:21Z</time></trkpt>
<trkpt lat="34.988891" lon="-84.948532"><ele>276.1</ele><time>2026-07-30T21:50:24Z</time></trkpt>
<trkpt lat="34.988873" lon="-84.948559"><ele>274.9</ele><time>2026-07-30T21:50:26Z</time></trkpt>
<trkpt lat="34.988852" lon="-84.948602"><ele>274.0</ele><time>2026-07-30T21:50:29Z</time></trkpt>
<trkpt lat="34.988834" lon="-84.948643"><ele>272.5</ele><time>2026-07-30T21:50:32Z</time></trkpt>
<trkpt lat="34.988817" lon="-84.94867"><ele>272.2</ele><time>2026-07-30T21:50:34Z</time></trkpt>
<trkpt lat="34.988809" lon="-84.948715"><ele>271.6</ele><time>2026-07-30T21:50:37Z</time></trkpt>
<trkpt lat="34.988789" lon="-84.948757"><ele>271.9</ele><time>2026-07-30T21:50:40Z</time></trkpt>
<trkpt lat="34.98877" lon="-84.948799"><ele>271.6</ele><time>2026-07-30T21:50:43Z</time></trkpt>
<trkpt lat="34.98877" lon="-84.948846"><ele>271.3</ele><time>2026-07-30T21:50:46Z</time></trkpt>
<trkpt lat="34.988774" lon="-84.948893"><ele>271.9</ele><time>2026-07-30T21:50:49Z</time></trkpt>
<trkpt lat="34.988796" lon="-84.948931"><ele>274.0</ele><time>2026-07-30T21:50:52Z</time></trkpt>
<trkpt lat="34.988822" lon="-84.948955"><ele>273.1</ele><time>2026-07-30T21:50:55Z</time></trkpt>
<trkpt lat="34.988851" lon="-84.948979"><ele>274.0</ele><time>2026-07-30T21:50:58Z</time></trkpt>
<trkpt lat="34.988873" lon="-84.949014"><ele>273.7</ele><time>2026-07-30T21:51:01Z</time></trkpt>
<trkpt lat="34.988891" lon="-84.949057"><ele>274.3</ele><time>2026-07-30T21:51:04Z</time></trkpt>
<trkpt lat="34.988899" lon="-84.949103"><ele>273.7</ele><time>2026-07-30T21:51:07Z</time></trkpt>
<trkpt lat="34.988891" lon="-84.94915"><ele>274.6</ele><time>2026-07-30T21:51:10Z</time></trkpt>
<trkpt lat="34.988871" lon="-84.949194"><ele>275.5</ele><time>2026-07-30T21:51:13Z</time></trkpt>
<trkpt lat="34.988852" lon="-84.949224"><ele>276.1</ele><time>2026-07-30T21:51:15Z</time></trkpt>
<trkpt lat="34.988827" lon="-84.949262"><ele>277.7</ele><time>2026-07-30T21:51:18Z</time></trkpt>
<trkpt lat="34.988798" lon="-84.949284"><ele>276.8</ele><time>2026-07-30T21:51:21Z</time></trkpt>
<trkpt lat="34.98877" lon="-84.949311"><ele>277.1</ele><time>2026-07-30T21:51:24Z</time></trkpt>
<trkpt lat="34.988762" lon="-84.949348"><ele>277.7</ele><time>2026-07-30T21:51:27Z</time></trkpt>
<trkpt lat="34.988748" lon="-84.949384"><ele>277.7</ele><time>2026-07-30T21:51:30Z</time></trkpt>
<trkpt lat="34.988742" lon="-84.949426"><ele>277.4</ele><time>2026-07-30T21:51:33Z</time></trkpt>
<trkpt lat="34.988747" lon="-84.949462"><ele>277.1</ele><time>2026-07-30T21:51:36Z</time></trkpt>
<trkpt lat="34.988742" lon="-84.949496"><ele>277.7</ele><time>2026-07-30T21:51:39Z</time></trkpt>
<trkpt lat="34.988737" lon="-84.949532"><ele>277.1</ele><time>2026-07-30T21:51:42Z</time></trkpt>
<trkpt lat="34.988727" lon="-84.949567"><ele>278.0</ele><time>2026-07-30T21:51:45Z</time></trkpt>
<trkpt lat="34.988702" lon="-84.949601"><ele>278.6</ele><time>2026-07-30T21:51:48Z</time></trkpt>
<trkpt lat="34.988681" lon="-84.949638"><ele>278.9</ele><time>2026-07-30T21:51:51Z</time></trkpt>
<trkpt lat="34.988661" lon="-84.949675"><ele>280.4</ele><time>2026-07-30T21:51:54Z</time></trkpt>
<trkpt lat="34.988644" lon="-84.949707"><ele>281.6</ele><time>2026-07-30T21:51:57Z</time></trkpt>
<trkpt lat="34.988629" lon="-84.949742"><ele>281.6</ele><time>2026-07-30T21:52:00Z</time></trkpt>
<trkpt lat="34.988621" lon="-84.949787"><ele>279.8</ele><time>2026-07-30T21:52:03Z</time></trkpt>
<trkpt lat="34.988624" lon="-84.949832"><ele>279.8</ele><time>2026-07-30T21:52:06Z</time></trkpt>
<trkpt lat="34.988623" lon="-84.949878"><ele>281.6</ele><time>2026-07-30T21:52:09Z</time></trkpt>
<trkpt lat="34.988619" lon="-84.949923"><ele>282.2</ele><time>2026-07-30T21:52:12Z</time></trkpt>
<trkpt lat="34.988614" lon="-84.94997"><ele>283.2</ele><time>2026-07-30T21:52:15Z</time></trkpt>
<trkpt lat="34.988606" lon="-84.950013"><ele>283.8</ele><time>2026-07-30T21:52:18Z</time></trkpt>
<trkpt lat="34.988597" lon="-84.950052"><ele>285.6</ele><time>2026-07-30T21:52:21Z</time></trkpt>
<trkpt lat="34.988591" lon="-84.95009"><ele>286.2</ele><time>2026-07-30T21:52:24Z</time></trkpt>
<trkpt lat="34.988575" lon="-84.950125"><ele>286.8</ele><time>2026-07-30T21:52:27Z</time></trkpt>
<trkpt lat="34.988559" lon="-84.950168"><ele>287.1</ele><time>2026-07-30T21:52:30Z</time></trkpt>
<trkpt lat="34.988552" lon="-84.950201"><ele>287.1</ele><time>2026-07-30T21:52:32Z</time></trkpt>
<trkpt lat="34.988532" lon="-84.950244"><ele>286.2</ele><time>2026-07-30T21:52:35Z</time></trkpt>
<trkpt lat="34.988512" lon="-84.950287"><ele>284.1</ele><time>2026-07-30T21:52:38Z</time></trkpt>
<trkpt lat="34.988492" lon="-84.950328"><ele>283.8</ele><time>2026-07-30T21:52:41Z</time></trkpt>
<trkpt lat="34.988474" lon="-84.950368"><ele>283.8</ele><time>2026-07-30T21:52:44Z</time></trkpt>
<trkpt lat="34.98847" lon="-84.950411"><ele>284.4</ele><time>2026-07-30T21:52:47Z</time></trkpt>
<trkpt lat="34.988472" lon="-84.950456"><ele>285.0</ele><time>2026-07-30T21:52:50Z</time></trkpt>
<trkpt lat="34.988457" lon="-84.950497"><ele>285.3</ele><time>2026-07-30T21:52:53Z</time></trkpt>
<trkpt lat="34.988452" lon="-84.95053"><ele>285.0</ele><time>2026-07-30T21:52:56Z</time></trkpt>
<trkpt lat="34.98844" lon="-84.950574"><ele>285.6</ele><time>2026-07-30T21:52:59Z</time></trkpt>
<trkpt lat="34.988435" lon="-84.950618"><ele>285.0</ele><time>2026-07-30T21:53:02Z</time></trkpt>
<trkpt lat="34.988422" lon="-84.950658"><ele>287.1</ele><time>2026-07-30T21:53:05Z</time></trkpt>
<trkpt lat="34.988415" lon="-84.950699"><ele>287.4</ele><time>2026-07-30T21:53:08Z</time></trkpt>
<trkpt lat="34.988401" lon="-84.950741"><ele>287.7</ele><time>2026-07-30T21:53:11Z</time></trkpt>
<trkpt lat="34.988382" lon="-84.950781"><ele>287.7</ele><time>2026-07-30T21:53:14Z</time></trkpt>
<trkpt lat="34.988371" lon="-84.950824"><ele>288.0</ele><time>2026-07-30T21:53:17Z</time></trkpt>
<trkpt lat="34.988353" lon="-84.950863"><ele>289.9</ele><time>2026-07-30T21:53:20Z</time></trkpt>
<trkpt lat="34.988345" lon="-84.950905"><ele>288.6</ele><time>2026-07-30T21:53:23Z</time></trkpt>
<trkpt lat="34.988336" lon="-84.95095"><ele>289.6</ele><time>2026-07-30T21:53:26Z</time></trkpt>
<trkpt lat="34.988324" lon="-84.950996"><ele>287.4</ele><time>2026-07-30T21:53:29Z</time></trkpt>
<trkpt lat="34.988317" lon="-84.951044"><ele>287.4</ele><time>2026-07-30T21:53:32Z</time></trkpt>
<trkpt lat="34.988302" lon="-84.951088"><ele>288.0</ele><time>2026-07-30T21:53:35Z</time></trkpt>
<trkpt lat="34.988301" lon="-84.951121"><ele>287.4</ele><time>2026-07-30T21:53:37Z</time></trkpt>
<trkpt lat="34.988274" lon="-84.951145"><ele>287.4</ele><time>2026-07-30T21:53:39Z</time></trkpt>
<trkpt lat="34.988253" lon="-84.95117"><ele>286.2</ele><time>2026-07-30T21:53:41Z</time></trkpt>
<trkpt lat="34.988258" lon="-84.951206"><ele>288.0</ele><time>2026-07-30T21:53:43Z</time></trkpt>
<trkpt lat="34.988267" lon="-84.951252"><ele>289.0</ele><time>2026-07-30T21:53:46Z</time></trkpt>
<trkpt lat="34.988281" lon="-84.951295"><ele>289.9</ele><time>2026-07-30T21:53:49Z</time></trkpt>
<trkpt lat="34.988306" lon="-84.951331"><ele>290.5</ele><time>2026-07-30T21:53:52Z</time></trkpt>
<trkpt lat="34.988332" lon="-84.951359"><ele>292.6</ele><time>2026-07-30T21:53:55Z</time></trkpt>
<trkpt lat="34.988351" lon="-84.951392"><ele>291.7</ele><time>2026-07-30T21:53:58Z</time></trkpt>
<trkpt lat="34.988376" lon="-84.951415"><ele>291.1</ele><time>2026-07-30T21:54:01Z</time></trkpt>
<trkpt lat="34.988409" lon="-84.951425"><ele>291.1</ele><time>2026-07-30T21:54:04Z</time></trkpt>
<trkpt lat="34.988445" lon="-84.951427"><ele>291.7</ele><time>2026-07-30T21:54:07Z</time></trkpt>
<trkpt lat="34.988477" lon="-84.951435"><ele>295.7</ele><time>2026-07-30T21:54:10Z</time></trkpt>
<trkpt lat="34.988502" lon="-84.951453"><ele>294.7</ele><time>2026-07-30T21:54:13Z</time></trkpt>
<trkpt lat="34.988533" lon="-84.951456"><ele>295.0</ele><time>2026-07-30T21:54:16Z</time></trkpt>
<trkpt lat="34.98857" lon="-84.951472"><ele>294.7</ele><time>2026-07-30T21:54:19Z</time></trkpt>
<trkpt lat="34.9886" lon="-84.951494"><ele>294.7</ele><time>2026-07-30T21:54:22Z</time></trkpt>
<trkpt lat="34.988629" lon="-84.951514"><ele>295.4</ele><time>2026-07-30T21:54:25Z</time></trkpt>
<trkpt lat="34.988657" lon="-84.951526"><ele>297.8</ele><time>2026-07-30T21:54:28Z</time></trkpt>
<trkpt lat="34.98869" lon="-84.95154"><ele>298.7</ele><time>2026-07-30T21:54:31Z</time></trkpt>
<trkpt lat="34.988721" lon="-84.951543"><ele>296.9</ele><time>2026-07-30T21:54:34Z</time></trkpt>
<trkpt lat="34.98876" lon="-84.951552"><ele>295.7</ele><time>2026-07-30T21:54:37Z</time></trkpt>
<trkpt lat="34.988796" lon="-84.951558"><ele>298.1</ele><time>2026-07-30T21:54:40Z</time></trkpt>
<trkpt lat="34.988824" lon="-84.951546"><ele>300.5</ele><time>2026-07-30T21:54:43Z</time></trkpt>
<trkpt lat="34.988857" lon="-84.951549"><ele>301.4</ele><time>2026-07-30T21:54:46Z</time></trkpt>
<trkpt lat="34.988889" lon="-84.95157"><ele>301.4</ele><time>2026-07-30T21:54:49Z</time></trkpt>
<trkpt lat="34.988929" lon="-84.951578"><ele>300.5</ele><time>2026-07-30T21:54:52Z</time></trkpt>
<trkpt lat="34.988965" lon="-84.951596"><ele>300.8</ele><time>2026-07-30T21:54:55Z</time></trkpt>
<trkpt lat="34.988997" lon="-84.951615"><ele>301.8</ele><time>2026-07-30T21:54:58Z</time></trkpt>
<trkpt lat="34.989035" lon="-84.951608"><ele>303.0</ele><time>2026-07-30T21:55:01Z</time></trkpt>
<trkpt lat="34.989072" lon="-84.951592"><ele>304.2</ele><time>2026-07-30T21:55:04Z</time></trkpt>
<trkpt lat="34.989106" lon="-84.951586"><ele>304.8</ele><time>2026-07-30T21:55:07Z</time></trkpt>
<trkpt lat="34.989137" lon="-84.951591"><ele>303.9</ele><time>2026-07-30T21:55:10Z</time></trkpt>
<trkpt lat="34.98917" lon="-84.951604"><ele>305.4</ele><time>2026-07-30T21:55:13Z</time></trkpt>
<trkpt lat="34.989205" lon="-84.95162"><ele>305.4</ele><time>2026-07-30T21:55:16Z</time></trkpt>
<trkpt lat="34.989241" lon="-84.951628"><ele>305.4</ele><time>2026-07-30T21:55:19Z</time></trkpt>
<trkpt lat="34.989272" lon="-84.951629"><ele>303.9</ele><time>2026-07-30T21:55:21Z</time></trkpt>
<trkpt lat="34.989308" lon="-84.951622"><ele>304.5</ele><time>2026-07-30T21:55:24Z</time></trkpt>
<trkpt lat="34.989328" lon="-84.95159"><ele>308.2</ele><time>2026-07-30T21:55:27Z</time></trkpt>
<trkpt lat="34.989324" lon="-84.951547"><ele>308.8</ele><time>2026-07-30T21:55:30Z</time></trkpt>
<trkpt lat="34.98931" lon="-84.951506"><ele>309.7</ele><time>2026-07-30T21:55:33Z</time></trkpt>
<trkpt lat="34.989295" lon="-84.951463"><ele>310.3</ele><time>2026-07-30T21:55:36Z</time></trkpt>
<trkpt lat="34.989279" lon="-84.951424"><ele>310.9</ele><time>2026-07-30T21:55:39Z</time></trkpt>
<trkpt lat="34.989253" lon="-84.951399"><ele>310.6</ele><time>2026-07-30T21:55:42Z</time></trkpt>
<trkpt lat="34.989226" lon="-84.951371"><ele>312.4</ele><time>2026-07-30T21:55:45Z</time></trkpt>
<trkpt lat="34.989195" lon="-84.95135"><ele>313.6</ele><time>2026-07-30T21:55:48Z</time></trkpt>
<trkpt lat="34.98917" lon="-84.951315"><ele>313.3</ele><time>2026-07-30T21:55:51Z</time></trkpt>
<trkpt lat="34.989148" lon="-84.951278"><ele>313.6</ele><time>2026-07-30T21:55:54Z</time></trkpt>
<trkpt lat="34.989136" lon="-84.951236"><ele>313.0</ele><time>2026-07-30T21:55:57Z</time></trkpt>
<trkpt lat="34.989151" lon="-84.951202"><ele>313.9</ele><time>2026-07-30T21:55:59Z</time></trkpt>
<trkpt lat="34.989176" lon="-84.951167"><ele>314.2</ele><time>2026-07-30T21:56:02Z</time></trkpt>
<trkpt lat="34.989206" lon="-84.951139"><ele>313.3</ele><time>2026-07-30T21:56:05Z</time></trkpt>
<trkpt lat="34.989232" lon="-84.951126"><ele>311.8</ele><time>2026-07-30T21:56:07Z</time></trkpt>
<trkpt lat="34.989255" lon="-84.951102"><ele>310.9</ele><time>2026-07-30T21:56:09Z</time></trkpt>
<trkpt lat="34.989278" lon="-84.951065"><ele>310.3</ele><time>2026-07-30T21:56:12Z</time></trkpt>
<trkpt lat="34.989292" lon="-84.951024"><ele>310.3</ele><time>2026-07-30T21:56:15Z</time></trkpt>
<trkpt lat="34.989309" lon="-84.95099"><ele>312.4</ele><time>2026-07-30T21:56:18Z</time></trkpt>
<trkpt lat="34.989347" lon="-84.950971"><ele>312.1</ele><time>2026-07-30T21:56:21Z</time></trkpt>
<trkpt lat="34.989382" lon="-84.950967"><ele>313.0</ele><time>2026-07-30T21:56:24Z</time></trkpt>
<trkpt lat="34.989413" lon="-84.950955"><ele>313.0</ele><time>2026-07-30T21:56:27Z</time></trkpt>
<trkpt lat="34.989448" lon="-84.950957"><ele>314.9</ele><time>2026-07-30T21:56:30Z</time></trkpt>
<trkpt lat="34.989489" lon="-84.950966"><ele>313.9</ele><time>2026-07-30T21:56:33Z</time></trkpt>
<trkpt lat="34.989528" lon="-84.950985"><ele>313.0</ele><time>2026-07-30T21:56:36Z</time></trkpt>
<trkpt lat="34.989561" lon="-84.951003"><ele>313.6</ele><time>2026-07-30T21:56:38Z</time></trkpt>
<trkpt lat="34.989585" lon="-84.951017"><ele>315.2</ele><time>2026-07-30T21:56:40Z</time></trkpt>
<trkpt lat="34.989617" lon="-84.951046"><ele>315.8</ele><time>2026-07-30T21:56:43Z</time></trkpt>
<trkpt lat="34.989644" lon="-84.951061"><ele>316.1</ele><time>2026-07-30T21:56:45Z</time></trkpt>
<trkpt lat="34.989666" lon="-84.951094"><ele>316.7</ele><time>2026-07-30T21:56:48Z</time></trkpt>
<trkpt lat="34.989688" lon="-84.951117"><ele>317.0</ele><time>2026-07-30T21:56:50Z</time></trkpt>
<trkpt lat="34.989712" lon="-84.95115"><ele>317.6</ele><time>2026-07-30T21:56:53Z</time></trkpt>
<trkpt lat="34.989733" lon="-84.951184"><ele>317.6</ele><time>2026-07-30T21:56:56Z</time></trkpt>
<trkpt lat="34.989746" lon="-84.951227"><ele>318.8</ele><time>2026-07-30T21:56:59Z</time></trkpt>
<trkpt lat="34.989758" lon="-84.951257"><ele>319.1</ele><time>2026-07-30T21:57:01Z</time></trkpt>
<trkpt lat="34.989763" lon="-84.951296"><ele>318.2</ele><time>2026-07-30T21:57:04Z</time></trkpt>
<trkpt lat="34.989785" lon="-84.951323"><ele>318.2</ele><time>2026-07-30T21:57:07Z</time></trkpt>
<trkpt lat="34.989803" lon="-84.951349"><ele>318.5</ele><time>2026-07-30T21:57:09Z</time></trkpt>
<trkpt lat="34.989825" lon="-84.951387"><ele>318.2</ele><time>2026-07-30T21:57:12Z</time></trkpt>
<trkpt lat="34.989854" lon="-84.951421"><ele>319.1</ele><time>2026-07-30T21:57:15Z</time></trkpt>
<trkpt lat="34.989883" lon="-84.951451"><ele>318.2</ele><time>2026-07-30T21:57:18Z</time></trkpt>
<trkpt lat="34.989913" lon="-84.951484"><ele>317.3</ele><time>2026-07-30T21:57:21Z</time></trkpt>
<trkpt lat="34.989945" lon="-84.951515"><ele>318.5</ele><time>2026-07-30T21:57:24Z</time></trkpt>
<trkpt lat="34.989971" lon="-84.951554"><ele>318.8</ele><time>2026-07-30T21:57:27Z</time></trkpt>
<trkpt lat="34.989952" lon="-84.951589"><ele>317.6</ele><time>2026-07-30T21:57:29Z</time></trkpt>
<trkpt lat="34.989941" lon="-84.951583"><ele>317.0</ele><time>2026-07-30T21:57:30Z</time></trkpt>
<trkpt lat="34.989939" lon="-84.951581"><ele>317.0</ele><time>2026-07-30T21:57:31Z</time></trkpt>
<trkpt lat="34.989935" lon="-84.95157"><ele>316.7</ele><time>2026-07-30T21:57:32Z</time></trkpt>
<trkpt lat="34.98992" lon="-84.95154"><ele>315.8</ele><time>2026-07-30T21:57:34Z</time></trkpt>
<trkpt lat="34.989907" lon="-84.951509"><ele>315.5</ele><time>2026-07-30T21:57:36Z</time></trkpt>
<trkpt lat="34.989881" lon="-84.951472"><ele>315.8</ele><time>2026-07-30T21:57:39Z</time></trkpt>
<trkpt lat="34.989865" lon="-84.95143"><ele>315.5</ele><time>2026-07-30T21:57:42Z</time></trkpt>
<trkpt lat="34.989847" lon="-84.951404"><ele>315.8</ele><time>2026-07-30T21:57:44Z</time></trkpt>
<trkpt lat="34.989821" lon="-84.951367"><ele>315.8</ele><time>2026-07-30T21:57:47Z</time></trkpt>
<trkpt lat="34.989797" lon="-84.95133"><ele>316.1</ele><time>2026-07-30T21:57:50Z</time></trkpt>
<trkpt lat="34.989774" lon="-84.951291"><ele>315.2</ele><time>2026-07-30T21:57:53Z</time></trkpt>
<trkpt lat="34.989753" lon="-84.95125"><ele>315.8</ele><time>2026-07-30T21:57:56Z</time></trkpt>
<trkpt lat="34.989737" lon="-84.951207"><ele>315.2</ele><time>2026-07-30T21:57:59Z</time></trkpt>
<trkpt lat="34.989726" lon="-84.951173"><ele>313.6</ele><time>2026-07-30T21:58:02Z</time></trkpt>
<trkpt lat="34.989733" lon="-84.951133"><ele>312.7</ele><time>2026-07-30T21:58:06Z</time></trkpt>
<trkpt lat="34.989762" lon="-84.951126"><ele>313.3</ele><time>2026-07-30T21:58:09Z</time></trkpt>
<trkpt lat="34.989792" lon="-84.951164"><ele>316.1</ele><time>2026-07-30T21:58:11Z</time></trkpt>
<trkpt lat="34.989807" lon="-84.951214"><ele>317.0</ele><time>2026-07-30T21:58:13Z</time></trkpt>
<trkpt lat="34.989826" lon="-84.951263"><ele>318.2</ele><time>2026-07-30T21:58:15Z</time></trkpt>
<trkpt lat="34.989845" lon="-84.951316"><ele>320.3</ele><time>2026-07-30T21:58:17Z</time></trkpt>
<trkpt lat="34.989862" lon="-84.951351"><ele>321.9</ele><time>2026-07-30T21:58:19Z</time></trkpt>
<trkpt lat="34.989888" lon="-84.951391"><ele>320.3</ele><time>2026-07-30T21:58:21Z</time></trkpt>
<trkpt lat="34.989909" lon="-84.951424"><ele>323.1</ele><time>2026-07-30T21:58:23Z</time></trkpt>
<trkpt lat="34.989927" lon="-84.951454"><ele>323.7</ele><time>2026-07-30T21:58:25Z</time></trkpt>
<trkpt lat="34.989942" lon="-84.951488"><ele>321.9</ele><time>2026-07-30T21:58:27Z</time></trkpt>
<trkpt lat="34.989964" lon="-84.951517"><ele>321.0</ele><time>2026-07-30T21:58:29Z</time></trkpt>
<trkpt lat="34.989983" lon="-84.951548"><ele>319.7</ele><time>2026-07-30T21:58:31Z</time></trkpt>
<trkpt lat="34.990001" lon="-84.951582"><ele>320.3</ele><time>2026-07-30T21:58:33Z</time></trkpt>
<trkpt lat="34.990019" lon="-84.951617"><ele>318.5</ele><time>2026-07-30T21:58:35Z</time></trkpt>
<trkpt lat="34.990038" lon="-84.951647"><ele>317.3</ele><time>2026-07-30T21:58:37Z</time></trkpt>
<trkpt lat="34.990056" lon="-84.951694"><ele>319.1</ele><time>2026-07-30T21:58:40Z</time></trkpt>
<trkpt lat="34.990068" lon="-84.951727"><ele>318.2</ele><time>2026-07-30T21:58:42Z</time></trkpt>
<trkpt lat="34.99008" lon="-84.951761"><ele>318.2</ele><time>2026-07-30T21:58:44Z</time></trkpt>
<trkpt lat="34.990084" lon="-84.951795"><ele>318.2</ele><time>2026-07-30T21:58:46Z</time></trkpt>
<trkpt lat="34.990081" lon="-84.951831"><ele>317.6</ele><time>2026-07-30T21:58:48Z</time></trkpt>
<trkpt lat="34.990076" lon="-84.951865"><ele>318.2</ele><time>2026-07-30T21:58:50Z</time></trkpt>
<trkpt lat="34.990084" lon="-84.951915"><ele>318.5</ele><time>2026-07-30T21:58:53Z</time></trkpt>
<trkpt lat="34.990078" lon="-84.951953"><ele>318.2</ele><time>2026-07-30T21:58:55Z</time></trkpt>
<trkpt lat="34.990079" lon="-84.951992"><ele>319.1</ele><time>2026-07-30T21:58:57Z</time></trkpt>
<trkpt lat="34.990079" lon="-84.952028"><ele>318.8</ele><time>2026-07-30T21:58:59Z</time></trkpt>
<trkpt lat="34.990079" lon="-84.952078"><ele>317.9</ele><time>2026-07-30T21:59:02Z</time></trkpt>
<trkpt lat="34.99008" lon="-84.952112"><ele>317.9</ele><time>2026-07-30T21:59:04Z</time></trkpt>
<trkpt lat="34.990079" lon="-84.952147"><ele>318.5</ele><time>2026-07-30T21:59:06Z</time></trkpt>
<trkpt lat="34.990084" lon="-84.952182"><ele>319.4</ele><time>2026-07-30T21:59:08Z</time></trkpt>
<trkpt lat="34.990088" lon="-84.952231"><ele>317.6</ele><time>2026-07-30T21:59:11Z</time></trkpt>
<trkpt lat="34.990088" lon="-84.95228"><ele>317.6</ele><time>2026-07-30T21:59:14Z</time></trkpt>
<trkpt lat="34.990088" lon="-84.952317"><ele>318.2</ele><time>2026-07-30T21:59:16Z</time></trkpt>
<trkpt lat="34.990073" lon="-84.952351"><ele>319.1</ele><time>2026-07-30T21:59:18Z</time></trkpt>
<trkpt lat="34.99007" lon="-84.9524"><ele>318.2</ele><time>2026-07-30T21:59:21Z</time></trkpt>
<trkpt lat="34.990078" lon="-84.952435"><ele>318.5</ele><time>2026-07-30T21:59:23Z</time></trkpt>
<trkpt lat="34.990079" lon="-84.952471"><ele>319.1</ele><time>2026-07-30T21:59:25Z</time></trkpt>
<trkpt lat="34.990081" lon="-84.952504"><ele>319.4</ele><time>2026-07-30T21:59:27Z</time></trkpt>
<trkpt lat="34.990071" lon="-84.952551"><ele>318.5</ele><time>2026-07-30T21:59:30Z</time></trkpt>
<trkpt lat="34.990059" lon="-84.952583"><ele>319.4</ele><time>2026-07-30T21:59:32Z</time></trkpt>
<trkpt lat="34.990048" lon="-84.95263"><ele>320.0</ele><time>2026-07-30T21:59:35Z</time></trkpt>
<trkpt lat="34.990035" lon="-84.952676"><ele>320.3</ele><time>2026-07-30T21:59:38Z</time></trkpt>
<trkpt lat="34.990019" lon="-84.952706"><ele>322.2</ele><time>2026-07-30T21:59:40Z</time></trkpt>
<trkpt lat="34.990006" lon="-84.952742"><ele>321.6</ele><time>2026-07-30T21:59:42Z</time></trkpt>
<trkpt lat="34.989998" lon="-84.952778"><ele>321.9</ele><time>2026-07-30T21:59:44Z</time></trkpt>
<trkpt lat="34.989991" lon="-84.952814"><ele>322.2</ele><time>2026-07-30T21:59:46Z</time></trkpt>
<trkpt lat="34.990001" lon="-84.952861"><ele>321.6</ele><time>2026-07-30T21:59:49Z</time></trkpt>
<trkpt lat="34.990026" lon="-84.952882"><ele>320.6</ele><time>2026-07-30T21:59:51Z</time></trkpt>
<trkpt lat="34.990046" lon="-84.952922"><ele>321.3</ele><time>2026-07-30T21:59:54Z</time></trkpt>
<trkpt lat="34.990055" lon="-84.952954"><ele>320.3</ele><time>2026-07-30T21:59:56Z</time></trkpt>
<trkpt lat="34.990069" lon="-84.952984"><ele>320.0</ele><time>2026-07-30T21:59:58Z</time></trkpt>
<trkpt lat="34.990085" lon="-84.953013"><ele>320.6</ele><time>2026-07-30T22:00:00Z</time></trkpt>
<trkpt lat="34.990094" lon="-84.953049"><ele>321.3</ele><time>2026-07-30T22:00:02Z</time></trkpt>
<trkpt lat="34.990104" lon="-84.953081"><ele>321.9</ele><time>2026-07-30T22:00:04Z</time></trkpt>
<trkpt lat="34.990121" lon="-84.953123"><ele>321.9</ele><time>2026-07-30T22:00:07Z</time></trkpt>
<trkpt lat="34.990143" lon="-84.953161"><ele>320.6</ele><time>2026-07-30T22:00:10Z</time></trkpt>
<trkpt lat="34.990162" lon="-84.953199"><ele>321.0</ele><time>2026-07-30T22:00:13Z</time></trkpt>
<trkpt lat="34.990168" lon="-84.953233"><ele>321.9</ele><time>2026-07-30T22:00:15Z</time></trkpt>
<trkpt lat="34.990173" lon="-84.953268"><ele>319.7</ele><time>2026-07-30T22:00:17Z</time></trkpt>
<trkpt lat="34.99018" lon="-84.953303"><ele>318.2</ele><time>2026-07-30T22:00:19Z</time></trkpt>
<trkpt lat="34.990191" lon="-84.953353"><ele>317.3</ele><time>2026-07-30T22:00:22Z</time></trkpt>
<trkpt lat="34.990198" lon="-84.953386"><ele>318.8</ele><time>2026-07-30T22:00:24Z</time></trkpt>
<trkpt lat="34.990198" lon="-84.953434"><ele>319.4</ele><time>2026-07-30T22:00:27Z</time></trkpt>
<trkpt lat="34.990194" lon="-84.953468"><ele>319.7</ele><time>2026-07-30T22:00:29Z</time></trkpt>
<trkpt lat="34.990194" lon="-84.953516"><ele>317.0</ele><time>2026-07-30T22:00:32Z</time></trkpt>
<trkpt lat="34.990182" lon="-84.953548"><ele>316.7</ele><time>2026-07-30T22:00:34Z</time></trkpt>
<trkpt lat="34.990176" lon="-84.953581"><ele>317.0</ele><time>2026-07-30T22:00:36Z</time></trkpt>
<trkpt lat="34.990179" lon="-84.953615"><ele>315.5</ele><time>2026-07-30T22:00:38Z</time></trkpt>
<trkpt lat="34.990188" lon="-84.95366"><ele>317.0</ele><time>2026-07-30T22:00:41Z</time></trkpt>
<trkpt lat="34.990208" lon="-84.953685"><ele>316.7</ele><time>2026-07-30T22:00:43Z</time></trkpt>
<trkpt lat="34.990225" lon="-84.953722"><ele>313.0</ele><time>2026-07-30T22:00:46Z</time></trkpt>
<trkpt lat="34.990242" lon="-84.953762"><ele>311.8</ele><time>2026-07-30T22:00:49Z</time></trkpt>
<trkpt lat="34.990273" lon="-84.953789"><ele>311.2</ele><time>2026-07-30T22:00:52Z</time></trkpt>
<trkpt lat="34.990312" lon="-84.953794"><ele>309.7</ele><time>2026-07-30T22:00:55Z</time></trkpt>
<trkpt lat="34.990349" lon="-84.953782"><ele>311.2</ele><time>2026-07-30T22:00:58Z</time></trkpt>
<trkpt lat="34.990383" lon="-84.953781"><ele>311.5</ele><time>2026-07-30T22:01:01Z</time></trkpt>
<trkpt lat="34.990421" lon="-84.953786"><ele>309.4</ele><time>2026-07-30T22:01:04Z</time></trkpt>
<trkpt lat="34.990449" lon="-84.953787"><ele>308.8</ele><time>2026-07-30T22:01:06Z</time></trkpt>
<trkpt lat="34.99049" lon="-84.953791"><ele>309.7</ele><time>2026-07-30T22:01:09Z</time></trkpt>
<trkpt lat="34.990527" lon="-84.953783"><ele>308.2</ele><time>2026-07-30T22:01:12Z</time></trkpt>
<trkpt lat="34.990566" lon="-84.95378"><ele>306.6</ele><time>2026-07-30T22:01:15Z</time></trkpt>
<trkpt lat="34.990605" lon="-84.953787"><ele>307.8</ele><time>2026-07-30T22:01:18Z</time></trkpt>
<trkpt lat="34.990638" lon="-84.953814"><ele>306.9</ele><time>2026-07-30T22:01:21Z</time></trkpt>
<trkpt lat="34.990674" lon="-84.953831"><ele>306.0</ele><time>2026-07-30T22:01:24Z</time></trkpt>
<trkpt lat="34.990699" lon="-84.953846"><ele>305.7</ele><time>2026-07-30T22:01:26Z</time></trkpt>
<trkpt lat="34.99074" lon="-84.953848"><ele>304.5</ele><time>2026-07-30T22:01:29Z</time></trkpt>
<trkpt lat="34.990777" lon="-84.953848"><ele>305.7</ele><time>2026-07-30T22:01:32Z</time></trkpt>
<trkpt lat="34.990817" lon="-84.95385"><ele>307.8</ele><time>2026-07-30T22:01:35Z</time></trkpt>
<trkpt lat="34.990855" lon="-84.953856"><ele>308.2</ele><time>2026-07-30T22:01:38Z</time></trkpt>
<trkpt lat="34.990894" lon="-84.953857"><ele>309.7</ele><time>2026-07-30T22:01:41Z</time></trkpt>
<trkpt lat="34.990934" lon="-84.953858"><ele>312.1</ele><time>2026-07-30T22:01:44Z</time></trkpt>
<trkpt lat="34.990972" lon="-84.95387"><ele>311.8</ele><time>2026-07-30T22:01:47Z</time></trkpt>
<trkpt lat="34.991007" lon="-84.953884"><ele>310.6</ele><time>2026-07-30T22:01:50Z</time></trkpt>
<trkpt lat="34.991044" lon="-84.953888"><ele>310.0</ele><time>2026-07-30T22:01:53Z</time></trkpt>
<trkpt lat="34.991084" lon="-84.953894"><ele>309.7</ele><time>2026-07-30T22:01:56Z</time></trkpt>
<trkpt lat="34.991113" lon="-84.953889"><ele>307.8</ele><time>2026-07-30T22:01:58Z</time></trkpt>
<trkpt lat="34.991154" lon="-84.953885"><ele>307.5</ele><time>2026-07-30T22:02:01Z</time></trkpt>
<trkpt lat="34.991182" lon="-84.953889"><ele>307.5</ele><time>2026-07-30T22:02:03Z</time></trkpt>
<trkpt lat="34.99121" lon="-84.9539"><ele>308.2</ele><time>2026-07-30T22:02:05Z</time></trkpt>
<trkpt lat="34.991238" lon="-84.953907"><ele>307.5</ele><time>2026-07-30T22:02:07Z</time></trkpt>
<trkpt lat="34.991265" lon="-84.953913"><ele>307.5</ele><time>2026-07-30T22:02:09Z</time></trkpt>
<trkpt lat="34.991294" lon="-84.95392"><ele>306.3</ele><time>2026-07-30T22:02:11Z</time></trkpt>
<trkpt lat="34.991328" lon="-84.953948"><ele>306.6</ele><time>2026-07-30T22:02:14Z</time></trkpt>
<trkpt lat="34.991354" lon="-84.953966"><ele>305.7</ele><time>2026-07-30T22:02:16Z</time></trkpt>
<trkpt lat="34.991378" lon="-84.953984"><ele>305.1</ele><time>2026-07-30T22:02:18Z</time></trkpt>
<trkpt lat="34.991405" lon="-84.953993"><ele>304.8</ele><time>2026-07-30T22:02:20Z</time></trkpt>
<trkpt lat="34.991432" lon="-84.954006"><ele>304.2</ele><time>2026-07-30T22:02:22Z</time></trkpt>
<trkpt lat="34.991459" lon="-84.954018"><ele>304.5</ele><time>2026-07-30T22:02:24Z</time></trkpt>
<trkpt lat="34.991486" lon="-84.954027"><ele>304.5</ele><time>2026-07-30T22:02:26Z</time></trkpt>
<trkpt lat="34.991513" lon="-84.954034"><ele>305.4</ele><time>2026-07-30T22:02:28Z</time></trkpt>
<trkpt lat="34.99154" lon="-84.954043"><ele>306.3</ele><time>2026-07-30T22:02:30Z</time></trkpt>
<trkpt lat="34.991579" lon="-84.954058"><ele>308.2</ele><time>2026-07-30T22:02:33Z</time></trkpt>
<trkpt lat="34.991606" lon="-84.95406"><ele>307.5</ele><time>2026-07-30T22:02:35Z</time></trkpt>
<trkpt lat="34.991635" lon="-84.954062"><ele>307.2</ele><time>2026-07-30T22:02:37Z</time></trkpt>
<trkpt lat="34.991672" lon="-84.954066"><ele>306.0</ele><time>2026-07-30T22:02:40Z</time></trkpt>
<trkpt lat="34.991707" lon="-84.954061"><ele>305.1</ele><time>2026-07-30T22:02:43Z</time></trkpt>
<trkpt lat="34.991735" lon="-84.95405"><ele>305.1</ele><time>2026-07-30T22:02:45Z</time></trkpt>
<trkpt lat="34.991763" lon="-84.954047"><ele>304.8</ele><time>2026-07-30T22:02:47Z</time></trkpt>
<trkpt lat="34.991801" lon="-84.95405"><ele>305.1</ele><time>2026-07-30T22:02:50Z</time></trkpt>
<trkpt lat="34.991829" lon="-84.954052"><ele>304.8</ele><time>2026-07-30T22:02:52Z</time></trkpt>
<trkpt lat="34.991855" lon="-84.954063"><ele>305.4</ele><time>2026-07-30T22:02:54Z</time></trkpt>
<trkpt lat="34.991894" lon="-84.954073"><ele>304.8</ele><time>2026-07-30T22:02:57Z</time></trkpt>
<trkpt lat="34.991934" lon="-84.954077"><ele>304.5</ele><time>2026-07-30T22:03:00Z</time></trkpt>
<trkpt lat="34.991965" lon="-84.954082"><ele>305.1</ele><time>2026-07-30T22:03:02Z</time></trkpt>
<trkpt lat="34.992004" lon="-84.954073"><ele>306.0</ele><time>2026-07-30T22:03:05Z</time></trkpt>
<trkpt lat="34.99204" lon="-84.954063"><ele>306.9</ele><time>2026-07-30T22:03:08Z</time></trkpt>
<trkpt lat="34.992073" lon="-84.954051"><ele>307.8</ele><time>2026-07-30T22:03:11Z</time></trkpt>
<trkpt lat="34.992111" lon="-84.954055"><ele>308.2</ele><time>2026-07-30T22:03:14Z</time></trkpt>
<trkpt lat="34.992147" lon="-84.954051"><ele>308.2</ele><time>2026-07-30T22:03:17Z</time></trkpt>
<trkpt lat="34.992187" lon="-84.954052"><ele>308.5</ele><time>2026-07-30T22:03:20Z</time></trkpt>
<trkpt lat="34.992216" lon="-84.954048"><ele>309.1</ele><time>2026-07-30T22:03:22Z</time></trkpt>
<trkpt lat="34.992244" lon="-84.954049"><ele>309.7</ele><time>2026-07-30T22:03:24Z</time></trkpt>
<trkpt lat="34.992274" lon="-84.954056"><ele>309.7</ele><time>2026-07-30T22:03:26Z</time></trkpt>
<trkpt lat="34.992305" lon="-84.954058"><ele>309.7</ele><time>2026-07-30T22:03:28Z</time></trkpt>
<trkpt lat="34.992334" lon="-84.954056"><ele>310.0</ele><time>2026-07-30T22:03:30Z</time></trkpt>
<trkpt lat="34.992362" lon="-84.954051"><ele>309.7</ele><time>2026-07-30T22:03:32Z</time></trkpt>
<trkpt lat="34.992397" lon="-84.954053"><ele>309.1</ele><time>2026-07-30T22:03:35Z</time></trkpt>
<trkpt lat="34.992433" lon="-84.954061"><ele>309.7</ele><time>2026-07-30T22:03:38Z</time></trkpt>
<trkpt lat="34.99246" lon="-84.954075"><ele>309.1</ele><time>2026-07-30T22:03:40Z</time></trkpt>
<trkpt lat="34.992492" lon="-84.954082"><ele>309.1</ele><time>2026-07-30T22:03:42Z</time></trkpt>
<trkpt lat="34.99252" lon="-84.954079"><ele>310.9</ele><time>2026-07-30T22:03:44Z</time></trkpt>
<trkpt lat="34.992559" lon="-84.954077"><ele>312.1</ele><time>2026-07-30T22:03:47Z</time></trkpt>
<trkpt lat="34.992599" lon="-84.954074"><ele>311.8</ele><time>2026-07-30T22:03:50Z</time></trkpt>
<trkpt lat="34.992627" lon="-84.954079"><ele>310.9</ele><time>2026-07-30T22:03:52Z</time></trkpt>
<trkpt lat="34.992666" lon="-84.954081"><ele>310.9</ele><time>2026-07-30T22:03:55Z</time></trkpt>
<trkpt lat="34.992703" lon="-84.954074"><ele>310.9</ele><time>2026-07-30T22:03:58Z</time></trkpt>
<trkpt lat="34.992741" lon="-84.954073"><ele>311.5</ele><time>2026-07-30T22:04:01Z</time></trkpt>
<trkpt lat="34.992778" lon="-84.954084"><ele>313.0</ele><time>2026-07-30T22:04:04Z</time></trkpt>
<trkpt lat="34.992807" lon="-84.9541"><ele>310.9</ele><time>2026-07-30T22:04:06Z</time></trkpt>
<trkpt lat="34.992844" lon="-84.954105"><ele>309.4</ele><time>2026-07-30T22:04:09Z</time></trkpt>
<trkpt lat="34.992885" lon="-84.95412"><ele>309.4</ele><time>2026-07-30T22:04:12Z</time></trkpt>
<trkpt lat="34.992924" lon="-84.95413"><ele>308.8</ele><time>2026-07-30T22:04:15Z</time></trkpt>
<trkpt lat="34.992965" lon="-84.954129"><ele>306.3</ele><time>2026-07-30T22:04:18Z</time></trkpt>
<trkpt lat="34.993003" lon="-84.954135"><ele>308.2</ele><time>2026-07-30T22:04:21Z</time></trkpt>
<trkpt lat="34.993034" lon="-84.95413"><ele>306.9</ele><time>2026-07-30T22:04:24Z</time></trkpt>
<trkpt lat="34.993063" lon="-84.954126"><ele>307.5</ele><time>2026-07-30T22:04:26Z</time></trkpt>
<trkpt lat="34.993104" lon="-84.954131"><ele>306.9</ele><time>2026-07-30T22:04:29Z</time></trkpt>
<trkpt lat="34.993131" lon="-84.954127"><ele>306.6</ele><time>2026-07-30T22:04:31Z</time></trkpt>
<trkpt lat="34.99317" lon="-84.954127"><ele>307.2</ele><time>2026-07-30T22:04:34Z</time></trkpt>
<trkpt lat="34.993198" lon="-84.95413"><ele>305.7</ele><time>2026-07-30T22:04:36Z</time></trkpt>
<trkpt lat="34.993237" lon="-84.954139"><ele>306.3</ele><time>2026-07-30T22:04:39Z</time></trkpt>
<trkpt lat="34.993268" lon="-84.954138"><ele>307.2</ele><time>2026-07-30T22:04:42Z</time></trkpt>
<trkpt lat="34.993303" lon="-84.95412"><ele>306.9</ele><time>2026-07-30T22:04:45Z</time></trkpt>
<trkpt lat="34.993338" lon="-84.954104"><ele>308.2</ele><time>2026-07-30T22:04:48Z</time></trkpt>
<trkpt lat="34.99337" lon="-84.954085"><ele>309.4</ele><time>2026-07-30T22:04:51Z</time></trkpt>
<trkpt lat="34.9934" lon="-84.954067"><ele>309.7</ele><time>2026-07-30T22:04:54Z</time></trkpt>
<trkpt lat="34.993427" lon="-84.954031"><ele>309.7</ele><time>2026-07-30T22:04:57Z</time></trkpt>
<trkpt lat="34.993458" lon="-84.954016"><ele>306.6</ele><time>2026-07-30T22:04:59Z</time></trkpt>
<trkpt lat="34.993482" lon="-84.953969"><ele>308.2</ele><time>2026-07-30T22:05:01Z</time></trkpt>
<trkpt lat="34.993505" lon="-84.953931"><ele>309.4</ele><time>2026-07-30T22:05:04Z</time></trkpt>
<trkpt lat="34.993522" lon="-84.953899"><ele>309.4</ele><time>2026-07-30T22:05:07Z</time></trkpt>
<trkpt lat="34.993539" lon="-84.953858"><ele>309.1</ele><time>2026-07-30T22:05:11Z</time></trkpt>
<trkpt lat="34.993551" lon="-84.953817"><ele>308.8</ele><time>2026-07-30T22:05:14Z</time></trkpt>
<trkpt lat="34.993569" lon="-84.953779"><ele>310.0</ele><time>2026-07-30T22:05:17Z</time></trkpt>
<trkpt lat="34.993583" lon="-84.953746"><ele>308.5</ele><time>2026-07-30T22:05:19Z</time></trkpt>
<trkpt lat="34.993593" lon="-84.9537"><ele>308.8</ele><time>2026-07-30T22:05:22Z</time></trkpt>
<trkpt lat="34.993614" lon="-84.953661"><ele>308.5</ele><time>2026-07-30T22:05:25Z</time></trkpt>
<trkpt lat="34.993634" lon="-84.953622"><ele>308.8</ele><time>2026-07-30T22:05:28Z</time></trkpt>
<trkpt lat="34.993654" lon="-84.953588"><ele>310.9</ele><time>2026-07-30T22:05:31Z</time></trkpt>
<trkpt lat="34.993675" lon="-84.95355"><ele>309.7</ele><time>2026-07-30T22:05:34Z</time></trkpt>
<trkpt lat="34.993702" lon="-84.953521"><ele>307.8</ele><time>2026-07-30T22:05:37Z</time></trkpt>
<trkpt lat="34.993726" lon="-84.953478"><ele>307.5</ele><time>2026-07-30T22:05:40Z</time></trkpt>
<trkpt lat="34.993743" lon="-84.953434"><ele>308.8</ele><time>2026-07-30T22:05:43Z</time></trkpt>
<trkpt lat="34.993763" lon="-84.953391"><ele>308.8</ele><time>2026-07-30T22:05:46Z</time></trkpt>
<trkpt lat="34.993777" lon="-84.953358"><ele>308.2</ele><time>2026-07-30T22:05:48Z</time></trkpt>
<trkpt lat="34.993797" lon="-84.953316"><ele>307.8</ele><time>2026-07-30T22:05:51Z</time></trkpt>
<trkpt lat="34.993814" lon="-84.953274"><ele>306.9</ele><time>2026-07-30T22:05:54Z</time></trkpt>
<trkpt lat="34.993818" lon="-84.95323"><ele>306.9</ele><time>2026-07-30T22:05:57Z</time></trkpt>
<trkpt lat="34.993842" lon="-84.95319"><ele>306.3</ele><time>2026-07-30T22:06:00Z</time></trkpt>
<trkpt lat="34.993862" lon="-84.953165"><ele>306.3</ele><time>2026-07-30T22:06:02Z</time></trkpt>
<trkpt lat="34.993884" lon="-84.953131"><ele>308.8</ele><time>2026-07-30T22:06:05Z</time></trkpt>
<trkpt lat="34.993904" lon="-84.953088"><ele>309.4</ele><time>2026-07-30T22:06:08Z</time></trkpt>
<trkpt lat="34.993923" lon="-84.953061"><ele>309.4</ele><time>2026-07-30T22:06:10Z</time></trkpt>
<trkpt lat="34.993938" lon="-84.953032"><ele>309.7</ele><time>2026-07-30T22:06:12Z</time></trkpt>
<trkpt lat="34.993949" lon="-84.953"><ele>310.9</ele><time>2026-07-30T22:06:14Z</time></trkpt>
<trkpt lat="34.993948" lon="-84.952951"><ele>310.3</ele><time>2026-07-30T22:06:17Z</time></trkpt>
<trkpt lat="34.993939" lon="-84.952904"><ele>308.5</ele><time>2026-07-30T22:06:20Z</time></trkpt>
<trkpt lat="34.993928" lon="-84.952861"><ele>307.2</ele><time>2026-07-30T22:06:23Z</time></trkpt>
<trkpt lat="34.993921" lon="-84.952813"><ele>304.8</ele><time>2026-07-30T22:06:26Z</time></trkpt>
<trkpt lat="34.993918" lon="-84.952779"><ele>306.9</ele><time>2026-07-30T22:06:28Z</time></trkpt>
<trkpt lat="34.99392" lon="-84.952736"><ele>306.3</ele><time>2026-07-30T22:06:31Z</time></trkpt>
<trkpt lat="34.993925" lon="-84.952687"><ele>305.7</ele><time>2026-07-30T22:06:34Z</time></trkpt>
<trkpt lat="34.993932" lon="-84.952655"><ele>305.4</ele><time>2026-07-30T22:06:36Z</time></trkpt>
<trkpt lat="34.993932" lon="-84.952613"><ele>303.9</ele><time>2026-07-30T22:06:39Z</time></trkpt>
<trkpt lat="34.993906" lon="-84.952589"><ele>304.2</ele><time>2026-07-30T22:06:41Z</time></trkpt>
<trkpt lat="34.993883" lon="-84.952567"><ele>303.6</ele><time>2026-07-30T22:06:43Z</time></trkpt>
<trkpt lat="34.993848" lon="-84.952539"><ele>304.8</ele><time>2026-07-30T22:06:46Z</time></trkpt>
<trkpt lat="34.993822" lon="-84.952524"><ele>307.2</ele><time>2026-07-30T22:06:48Z</time></trkpt>
<trkpt lat="34.99379" lon="-84.952496"><ele>307.5</ele><time>2026-07-30T22:06:51Z</time></trkpt>
<trkpt lat="34.993761" lon="-84.95247"><ele>307.5</ele><time>2026-07-30T22:06:54Z</time></trkpt>
<trkpt lat="34.993723" lon="-84.952461"><ele>306.6</ele><time>2026-07-30T22:06:57Z</time></trkpt>
<trkpt lat="34.993722" lon="-84.952486"><ele>304.2</ele><time>2026-07-30T22:06:59Z</time></trkpt>
<trkpt lat="34.993728" lon="-84.952491"><ele>303.9</ele><time>2026-07-30T22:07:00Z</time></trkpt>
<trkpt lat="34.993732" lon="-84.952505"><ele>305.1</ele><time>2026-07-30T22:07:05Z</time></trkpt>
<trkpt lat="34.99373" lon="-84.952501"><ele>306.6</ele><time>2026-07-30T22:07:06Z</time></trkpt>
<trkpt lat="34.993735" lon="-84.952443"><ele>304.8</ele><time>2026-07-30T22:07:07Z</time></trkpt>
<trkpt lat="34.993702" lon="-84.952435"><ele>304.5</ele><time>2026-07-30T22:07:09Z</time></trkpt>
<trkpt lat="34.993686" lon="-84.952403"><ele>305.7</ele><time>2026-07-30T22:07:11Z</time></trkpt>
<trkpt lat="34.993668" lon="-84.952364"><ele>305.1</ele><time>2026-07-30T22:07:13Z</time></trkpt>
<trkpt lat="34.993642" lon="-84.952338"><ele>306.9</ele><time>2026-07-30T22:07:15Z</time></trkpt>
<trkpt lat="34.993613" lon="-84.952342"><ele>307.8</ele><time>2026-07-30T22:07:17Z</time></trkpt>
<trkpt lat="34.993577" lon="-84.952337"><ele>304.8</ele><time>2026-07-30T22:07:20Z</time></trkpt>
<trkpt lat="34.993537" lon="-84.952335"><ele>303.0</ele><time>2026-07-30T22:07:23Z</time></trkpt>
<trkpt lat="34.993509" lon="-84.952342"><ele>301.4</ele><time>2026-07-30T22:07:26Z</time></trkpt>
<trkpt lat="34.993475" lon="-84.952341"><ele>302.1</ele><time>2026-07-30T22:07:29Z</time></trkpt>
<trkpt lat="34.993445" lon="-84.952352"><ele>301.8</ele><time>2026-07-30T22:07:31Z</time></trkpt>
<trkpt lat="34.993419" lon="-84.952372"><ele>301.4</ele><time>2026-07-30T22:07:33Z</time></trkpt>
<trkpt lat="34.993391" lon="-84.952388"><ele>301.8</ele><time>2026-07-30T22:07:35Z</time></trkpt>
<trkpt lat="34.993363" lon="-84.952408"><ele>303.0</ele><time>2026-07-30T22:07:37Z</time></trkpt>
<trkpt lat="34.993332" lon="-84.952418"><ele>303.3</ele><time>2026-07-30T22:07:39Z</time></trkpt>
<trkpt lat="34.993303" lon="-84.952426"><ele>303.9</ele><time>2026-07-30T22:07:41Z</time></trkpt>
<trkpt lat="34.993271" lon="-84.952427"><ele>303.9</ele><time>2026-07-30T22:07:43Z</time></trkpt>
<trkpt lat="34.99324" lon="-84.952434"><ele>303.9</ele><time>2026-07-30T22:07:45Z</time></trkpt>
<trkpt lat="34.993209" lon="-84.952452"><ele>303.0</ele><time>2026-07-30T22:07:47Z</time></trkpt>
<trkpt lat="34.99318" lon="-84.952464"><ele>304.5</ele><time>2026-07-30T22:07:49Z</time></trkpt>
<trkpt lat="34.993148" lon="-84.952454"><ele>303.3</ele><time>2026-07-30T22:07:51Z</time></trkpt>
<trkpt lat="34.993123" lon="-84.952429"><ele>302.1</ele><time>2026-07-30T22:07:53Z</time></trkpt>
<trkpt lat="34.993101" lon="-84.952404"><ele>301.8</ele><time>2026-07-30T22:07:55Z</time></trkpt>
<trkpt lat="34.993076" lon="-84.952383"><ele>300.5</ele><time>2026-07-30T22:07:57Z</time></trkpt>
<trkpt lat="34.99305" lon="-84.952347"><ele>298.1</ele><time>2026-07-30T22:08:00Z</time></trkpt>
<trkpt lat="34.99303" lon="-84.952309"><ele>296.3</ele><time>2026-07-30T22:08:03Z</time></trkpt>
<trkpt lat="34.992997" lon="-84.95229"><ele>297.2</ele><time>2026-07-30T22:08:06Z</time></trkpt>
<trkpt lat="34.992969" lon="-84.952314"><ele>297.5</ele><time>2026-07-30T22:08:08Z</time></trkpt>
<trkpt lat="34.992945" lon="-84.952334"><ele>296.6</ele><time>2026-07-30T22:08:10Z</time></trkpt>
<trkpt lat="34.992907" lon="-84.952339"><ele>296.9</ele><time>2026-07-30T22:08:13Z</time></trkpt>
<trkpt lat="34.992873" lon="-84.952343"><ele>297.2</ele><time>2026-07-30T22:08:16Z</time></trkpt>
<trkpt lat="34.99285" lon="-84.952323"><ele>296.9</ele><time>2026-07-30T22:08:18Z</time></trkpt>
<trkpt lat="34.992841" lon="-84.952281"><ele>298.4</ele><time>2026-07-30T22:08:21Z</time></trkpt>
<trkpt lat="34.992833" lon="-84.952238"><ele>299.3</ele><time>2026-07-30T22:08:24Z</time></trkpt>
<trkpt lat="34.992838" lon="-84.952206"><ele>298.4</ele><time>2026-07-30T22:08:26Z</time></trkpt>
<trkpt lat="34.992845" lon="-84.952163"><ele>298.7</ele><time>2026-07-30T22:08:29Z</time></trkpt>
<trkpt lat="34.992842" lon="-84.952126"><ele>298.1</ele><time>2026-07-30T22:08:31Z</time></trkpt>
<trkpt lat="34.992843" lon="-84.952087"><ele>297.8</ele><time>2026-07-30T22:08:33Z</time></trkpt>
<trkpt lat="34.992851" lon="-84.952048"><ele>296.6</ele><time>2026-07-30T22:08:35Z</time></trkpt>
<trkpt lat="34.992857" lon="-84.95201"><ele>295.7</ele><time>2026-07-30T22:08:37Z</time></trkpt>
<trkpt lat="34.992862" lon="-84.951972"><ele>295.0</ele><time>2026-07-30T22:08:39Z</time></trkpt>
<trkpt lat="34.992862" lon="-84.951938"><ele>295.4</ele><time>2026-07-30T22:08:41Z</time></trkpt>
<trkpt lat="34.992864" lon="-84.9519"><ele>293.5</ele><time>2026-07-30T22:08:43Z</time></trkpt>
<trkpt lat="34.99287" lon="-84.951864"><ele>292.0</ele><time>2026-07-30T22:08:45Z</time></trkpt>
<trkpt lat="34.992877" lon="-84.951824"><ele>291.7</ele><time>2026-07-30T22:08:47Z</time></trkpt>
<trkpt lat="34.992869" lon="-84.951792"><ele>293.2</ele><time>2026-07-30T22:08:49Z</time></trkpt>
<trkpt lat="34.992874" lon="-84.951746"><ele>293.8</ele><time>2026-07-30T22:08:52Z</time></trkpt>
<trkpt lat="34.992879" lon="-84.951707"><ele>292.9</ele><time>2026-07-30T22:08:54Z</time></trkpt>
<trkpt lat="34.992896" lon="-84.95167"><ele>291.4</ele><time>2026-07-30T22:08:56Z</time></trkpt>
<trkpt lat="34.992908" lon="-84.951638"><ele>291.1</ele><time>2026-07-30T22:08:58Z</time></trkpt>
<trkpt lat="34.992922" lon="-84.951607"><ele>290.5</ele><time>2026-07-30T22:09:00Z</time></trkpt>
<trkpt lat="34.992932" lon="-84.951571"><ele>291.1</ele><time>2026-07-30T22:09:02Z</time></trkpt>
<trkpt lat="34.992957" lon="-84.951544"><ele>289.9</ele><time>2026-07-30T22:09:04Z</time></trkpt>
<trkpt lat="34.992966" lon="-84.951507"><ele>289.6</ele><time>2026-07-30T22:09:06Z</time></trkpt>
<trkpt lat="34.99296" lon="-84.951471"><ele>290.2</ele><time>2026-07-30T22:09:08Z</time></trkpt>
<trkpt lat="34.992955" lon="-84.951437"><ele>290.2</ele><time>2026-07-30T22:09:10Z</time></trkpt>
<trkpt lat="34.992952" lon="-84.9514"><ele>290.5</ele><time>2026-07-30T22:09:12Z</time></trkpt>
<trkpt lat="34.992961" lon="-84.951355"><ele>290.2</ele><time>2026-07-30T22:09:15Z</time></trkpt>
<trkpt lat="34.992957" lon="-84.951318"><ele>290.8</ele><time>2026-07-30T22:09:18Z</time></trkpt>
<trkpt lat="34.992949" lon="-84.951285"><ele>291.1</ele><time>2026-07-30T22:09:21Z</time></trkpt>
<trkpt lat="34.992962" lon="-84.951255"><ele>289.9</ele><time>2026-07-30T22:09:23Z</time></trkpt>
<trkpt lat="34.992973" lon="-84.951222"><ele>289.0</ele><time>2026-07-30T22:09:26Z</time></trkpt>
<trkpt lat="34.992973" lon="-84.951175"><ele>286.2</ele><time>2026-07-30T22:09:30Z</time></trkpt>
<trkpt lat="34.992971" lon="-84.951125"><ele>287.7</ele><time>2026-07-30T22:09:33Z</time></trkpt>
<trkpt lat="34.992965" lon="-84.951079"><ele>288.3</ele><time>2026-07-30T22:09:36Z</time></trkpt>
<trkpt lat="34.992975" lon="-84.951046"><ele>287.1</ele><time>2026-07-30T22:09:38Z</time></trkpt>
<trkpt lat="34.992988" lon="-84.951006"><ele>287.4</ele><time>2026-07-30T22:09:41Z</time></trkpt>
<trkpt lat="34.992998" lon="-84.950962"><ele>286.5</ele><time>2026-07-30T22:09:44Z</time></trkpt>
<trkpt lat="34.993012" lon="-84.950933"><ele>286.2</ele><time>2026-07-30T22:09:46Z</time></trkpt>
<trkpt lat="34.993028" lon="-84.950904"><ele>285.9</ele><time>2026-07-30T22:09:48Z</time></trkpt>
<trkpt lat="34.993048" lon="-84.950863"><ele>285.6</ele><time>2026-07-30T22:09:51Z</time></trkpt>
<trkpt lat="34.99307" lon="-84.950839"><ele>282.9</ele><time>2026-07-30T22:09:53Z</time></trkpt>
<trkpt lat="34.993086" lon="-84.950811"><ele>281.6</ele><time>2026-07-30T22:09:55Z</time></trkpt>
<trkpt lat="34.993105" lon="-84.950784"><ele>281.0</ele><time>2026-07-30T22:09:57Z</time></trkpt>
<trkpt lat="34.993121" lon="-84.950754"><ele>281.6</ele><time>2026-07-30T22:09:59Z</time></trkpt>
<trkpt lat="34.993138" lon="-84.950726"><ele>282.5</ele><time>2026-07-30T22:10:01Z</time></trkpt>
<trkpt lat="34.993146" lon="-84.950692"><ele>284.7</ele><time>2026-07-30T22:10:03Z</time></trkpt>
<trkpt lat="34.993155" lon="-84.950658"><ele>285.0</ele><time>2026-07-30T22:10:05Z</time></trkpt>
<trkpt lat="34.993166" lon="-84.950627"><ele>284.7</ele><time>2026-07-30T22:10:07Z</time></trkpt>
<trkpt lat="34.993182" lon="-84.950586"><ele>284.4</ele><time>2026-07-30T22:10:10Z</time></trkpt>
<trkpt lat="34.993191" lon="-84.950546"><ele>285.9</ele><time>2026-07-30T22:10:13Z</time></trkpt>
<trkpt lat="34.993202" lon="-84.950504"><ele>286.8</ele><time>2026-07-30T22:10:16Z</time></trkpt>
<trkpt lat="34.993224" lon="-84.950479"><ele>285.3</ele><time>2026-07-30T22:10:18Z</time></trkpt>
<trkpt lat="34.993245" lon="-84.950455"><ele>285.6</ele><time>2026-07-30T22:10:20Z</time></trkpt>
<trkpt lat="34.993273" lon="-84.950437"><ele>284.4</ele><time>2026-07-30T22:10:22Z</time></trkpt>
<trkpt lat="34.993299" lon="-84.950415"><ele>284.1</ele><time>2026-07-30T22:10:24Z</time></trkpt>
<trkpt lat="34.993318" lon="-84.950386"><ele>284.1</ele><time>2026-07-30T22:10:26Z</time></trkpt>
<trkpt lat="34.993338" lon="-84.950357"><ele>282.9</ele><time>2026-07-30T22:10:28Z</time></trkpt>
<trkpt lat="34.993357" lon="-84.95033"><ele>282.5</ele><time>2026-07-30T22:10:30Z</time></trkpt>
<trkpt lat="34.993373" lon="-84.950298"><ele>281.0</ele><time>2026-07-30T22:10:32Z</time></trkpt>
<trkpt lat="34.99339" lon="-84.95027"><ele>281.3</ele><time>2026-07-30T22:10:34Z</time></trkpt>
<trkpt lat="34.993409" lon="-84.950243"><ele>281.9</ele><time>2026-07-30T22:10:36Z</time></trkpt>
<trkpt lat="34.993424" lon="-84.950214"><ele>283.2</ele><time>2026-07-30T22:10:38Z</time></trkpt>
<trkpt lat="34.993446" lon="-84.950176"><ele>283.5</ele><time>2026-07-30T22:10:41Z</time></trkpt>
<trkpt lat="34.993463" lon="-84.950135"><ele>285.9</ele><time>2026-07-30T22:10:44Z</time></trkpt>
<trkpt lat="34.993496" lon="-84.950106"><ele>281.3</ele><time>2026-07-30T22:10:47Z</time></trkpt>
<trkpt lat="34.993522" lon="-84.950075"><ele>281.6</ele><time>2026-07-30T22:10:50Z</time></trkpt>
<trkpt lat="34.99355" lon="-84.950046"><ele>280.7</ele><time>2026-07-30T22:10:53Z</time></trkpt>
<trkpt lat="34.993585" lon="-84.950031"><ele>281.3</ele><time>2026-07-30T22:10:56Z</time></trkpt>
<trkpt lat="34.99362" lon="-84.950006"><ele>280.7</ele><time>2026-07-30T22:10:59Z</time></trkpt>
<trkpt lat="34.993643" lon="-84.949971"><ele>282.2</ele><time>2026-07-30T22:11:02Z</time></trkpt>
<trkpt lat="34.993643" lon="-84.949931"><ele>279.8</ele><time>2026-07-30T22:11:05Z</time></trkpt>
<trkpt lat="34.993662" lon="-84.949894"><ele>276.1</ele><time>2026-07-30T22:11:08Z</time></trkpt>
<trkpt lat="34.993687" lon="-84.949857"><ele>275.8</ele><time>2026-07-30T22:11:11Z</time></trkpt>
<trkpt lat="34.993713" lon="-84.949818"><ele>275.2</ele><time>2026-07-30T22:11:14Z</time></trkpt>
<trkpt lat="34.993727" lon="-84.949786"><ele>274.9</ele><time>2026-07-30T22:11:16Z</time></trkpt>
<trkpt lat="34.993744" lon="-84.949758"><ele>275.5</ele><time>2026-07-30T22:11:18Z</time></trkpt>
<trkpt lat="34.993764" lon="-84.949716"><ele>274.3</ele><time>2026-07-30T22:11:21Z</time></trkpt>
<trkpt lat="34.993768" lon="-84.949672"><ele>274.6</ele><time>2026-07-30T22:11:24Z</time></trkpt>
<trkpt lat="34.993765" lon="-84.949625"><ele>274.9</ele><time>2026-07-30T22:11:27Z</time></trkpt>
<trkpt lat="34.99376" lon="-84.949584"><ele>275.2</ele><time>2026-07-30T22:11:30Z</time></trkpt>
<trkpt lat="34.993744" lon="-84.949556"><ele>275.5</ele><time>2026-07-30T22:11:32Z</time></trkpt>
<trkpt lat="34.993719" lon="-84.94952"><ele>275.2</ele><time>2026-07-30T22:11:35Z</time></trkpt>
<trkpt lat="34.993694" lon="-84.949485"><ele>279.2</ele><time>2026-07-30T22:11:38Z</time></trkpt>
<trkpt lat="34.993668" lon="-84.94945"><ele>277.4</ele><time>2026-07-30T22:11:41Z</time></trkpt>
<trkpt lat="34.993641" lon="-84.94943"><ele>277.1</ele><time>2026-07-30T22:11:43Z</time></trkpt>
<trkpt lat="34.993618" lon="-84.949408"><ele>277.1</ele><time>2026-07-30T22:11:45Z</time></trkpt>
<trkpt lat="34.993583" lon="-84.949388"><ele>278.0</ele><time>2026-07-30T22:11:48Z</time></trkpt>
<trkpt lat="34.993544" lon="-84.949377"><ele>279.2</ele><time>2026-07-30T22:11:51Z</time></trkpt>
<trkpt lat="34.993517" lon="-84.949369"><ele>279.8</ele><time>2026-07-30T22:11:53Z</time></trkpt>
<trkpt lat="34.993486" lon="-84.949367"><ele>279.8</ele><time>2026-07-30T22:11:55Z</time></trkpt>
<trkpt lat="34.993458" lon="-84.94936"><ele>279.2</ele><time>2026-07-30T22:11:57Z</time></trkpt>
<trkpt lat="34.993427" lon="-84.949355"><ele>278.0</ele><time>2026-07-30T22:11:59Z</time></trkpt>
<trkpt lat="34.993398" lon="-84.949351"><ele>278.0</ele><time>2026-07-30T22:12:01Z</time></trkpt>
<trkpt lat="34.993361" lon="-84.949335"><ele>278.0</ele><time>2026-07-30T22:12:04Z</time></trkpt>
<trkpt lat="34.993325" lon="-84.949321"><ele>277.4</ele><time>2026-07-30T22:12:07Z</time></trkpt>
<trkpt lat="34.993285" lon="-84.949313"><ele>275.8</ele><time>2026-07-30T22:12:10Z</time></trkpt>
<trkpt lat="34.993256" lon="-84.94931"><ele>274.9</ele><time>2026-07-30T22:12:12Z</time></trkpt>
<trkpt lat="34.99322" lon="-84.949304"><ele>274.0</ele><time>2026-07-30T22:12:15Z</time></trkpt>
<trkpt lat="34.993192" lon="-84.949303"><ele>273.4</ele><time>2026-07-30T22:12:17Z</time></trkpt>
<trkpt lat="34.993164" lon="-84.949302"><ele>272.8</ele><time>2026-07-30T22:12:19Z</time></trkpt>
<trkpt lat="34.993135" lon="-84.949296"><ele>271.9</ele><time>2026-07-30T22:12:21Z</time></trkpt>
<trkpt lat="34.993097" lon="-84.949286"><ele>273.7</ele><time>2026-07-30T22:12:24Z</time></trkpt>
<trkpt lat="34.99306" lon="-84.949264"><ele>272.8</ele><time>2026-07-30T22:12:27Z</time></trkpt>
<trkpt lat="34.993021" lon="-84.949255"><ele>274.3</ele><time>2026-07-30T22:12:30Z</time></trkpt>
<trkpt lat="34.99299" lon="-84.949256"><ele>274.9</ele><time>2026-07-30T22:12:32Z</time></trkpt>
<trkpt lat="34.99296" lon="-84.949249"><ele>275.5</ele><time>2026-07-30T22:12:34Z</time></trkpt>
<trkpt lat="34.992934" lon="-84.949237"><ele>276.5</ele><time>2026-07-30T22:12:36Z</time></trkpt>
<trkpt lat="34.99292" lon="-84.949205"><ele>275.8</ele><time>2026-07-30T22:12:38Z</time></trkpt>
<trkpt lat="34.992911" lon="-84.949169"><ele>276.8</ele><time>2026-07-30T22:12:40Z</time></trkpt>
<trkpt lat="34.992919" lon="-84.949131"><ele>277.4</ele><time>2026-07-30T22:12:42Z</time></trkpt>
<trkpt lat="34.992924" lon="-84.949097"><ele>275.5</ele><time>2026-07-30T22:12:44Z</time></trkpt>
<trkpt lat="34.992933" lon="-84.949063"><ele>274.3</ele><time>2026-07-30T22:12:46Z</time></trkpt>
<trkpt lat="34.992957" lon="-84.949034"><ele>276.5</ele><time>2026-07-30T22:12:48Z</time></trkpt>
<trkpt lat="34.992976" lon="-84.949005"><ele>275.8</ele><time>2026-07-30T22:12:50Z</time></trkpt>
<trkpt lat="34.992997" lon="-84.948981"><ele>276.5</ele><time>2026-07-30T22:12:52Z</time></trkpt>
<trkpt lat="34.993038" lon="-84.94896"><ele>276.5</ele><time>2026-07-30T22:12:55Z</time></trkpt>
<trkpt lat="34.993028" lon="-84.948917"><ele>276.5</ele><time>2026-07-30T22:12:59Z</time></trkpt>
<trkpt lat="34.993026" lon="-84.948877"><ele>275.8</ele><time>2026-07-30T22:13:02Z</time></trkpt>
<trkpt lat="34.993024" lon="-84.948835"><ele>276.8</ele><time>2026-07-30T22:13:05Z</time></trkpt>
<trkpt lat="34.993017" lon="-84.948788"><ele>277.4</ele><time>2026-07-30T22:13:08Z</time></trkpt>
<trkpt lat="34.993032" lon="-84.948753"><ele>275.8</ele><time>2026-07-30T22:13:10Z</time></trkpt>
<trkpt lat="34.993047" lon="-84.948725"><ele>274.9</ele><time>2026-07-30T22:13:12Z</time></trkpt>
<trkpt lat="34.993061" lon="-84.948679"><ele>277.7</ele><time>2026-07-30T22:13:15Z</time></trkpt>
<trkpt lat="34.993066" lon="-84.948641"><ele>276.5</ele><time>2026-07-30T22:13:17Z</time></trkpt>
<trkpt lat="34.993059" lon="-84.948601"><ele>278.3</ele><time>2026-07-30T22:13:19Z</time></trkpt>
<trkpt lat="34.993052" lon="-84.948569"><ele>278.6</ele><time>2026-07-30T22:13:21Z</time></trkpt>
<trkpt lat="34.993062" lon="-84.94852"><ele>277.7</ele><time>2026-07-30T22:13:24Z</time></trkpt>
<trkpt lat="34.993064" lon="-84.948481"><ele>274.9</ele><time>2026-07-30T22:13:27Z</time></trkpt>
<trkpt lat="34.993067" lon="-84.948439"><ele>275.5</ele><time>2026-07-30T22:13:31Z</time></trkpt>
<trkpt lat="34.993072" lon="-84.948441"><ele>275.2</ele><time>2026-07-30T22:13:32Z</time></trkpt>
<trkpt lat="34.993079" lon="-84.94845"><ele>276.5</ele><time>2026-07-30T22:13:33Z</time></trkpt>
<trkpt lat="34.993079" lon="-84.948453"><ele>277.1</ele><time>2026-07-30T22:13:34Z</time></trkpt>
<trkpt lat="34.99308" lon="-84.948455"><ele>276.8</ele><time>2026-07-30T22:13:35Z</time></trkpt>
<trkpt lat="34.993083" lon="-84.948455"><ele>277.1</ele><time>2026-07-30T22:13:36Z</time></trkpt>
<trkpt lat="34.993088" lon="-84.94846"><ele>277.4</ele><time>2026-07-30T22:13:39Z</time></trkpt>
<trkpt lat="34.993089" lon="-84.948457"><ele>277.7</ele><time>2026-07-30T22:13:40Z</time></trkpt>
<trkpt lat="34.993092" lon="-84.948418"><ele>275.8</ele><time>2026-07-30T22:13:43Z</time></trkpt>
<trkpt lat="34.993092" lon="-84.948376"><ele>273.7</ele><time>2026-07-30T22:13:46Z</time></trkpt>
<trkpt lat="34.993111" lon="-84.94835"><ele>273.7</ele><time>2026-07-30T22:13:48Z</time></trkpt>
<trkpt lat="34.993139" lon="-84.94832"><ele>274.0</ele><time>2026-07-30T22:13:51Z</time></trkpt>
<trkpt lat="34.993168" lon="-84.948333"><ele>272.8</ele><time>2026-07-30T22:13:54Z</time></trkpt>
<trkpt lat="34.993185" lon="-84.948365"><ele>273.1</ele><time>2026-07-30T22:13:56Z</time></trkpt>
<trkpt lat="34.99319" lon="-84.948401"><ele>273.4</ele><time>2026-07-30T22:13:58Z</time></trkpt>
<trkpt lat="34.993211" lon="-84.948441"><ele>274.3</ele><time>2026-07-30T22:14:01Z</time></trkpt>
<trkpt lat="34.993226" lon="-84.94847"><ele>274.0</ele><time>2026-07-30T22:14:03Z</time></trkpt>
<trkpt lat="34.993253" lon="-84.948495"><ele>274.9</ele><time>2026-07-30T22:14:06Z</time></trkpt>
<trkpt lat="34.99328" lon="-84.948512"><ele>274.0</ele><time>2026-07-30T22:14:09Z</time></trkpt>
<trkpt lat="34.993315" lon="-84.948525"><ele>273.1</ele><time>2026-07-30T22:14:12Z</time></trkpt>
<trkpt lat="34.993339" lon="-84.948504"><ele>272.8</ele><time>2026-07-30T22:14:14Z</time></trkpt>
<trkpt lat="34.993344" lon="-84.948465"><ele>272.5</ele><time>2026-07-30T22:14:16Z</time></trkpt>
<trkpt lat="34.993339" lon="-84.948431"><ele>272.5</ele><time>2026-07-30T22:14:18Z</time></trkpt>
<trkpt lat="34.993341" lon="-84.948396"><ele>271.0</ele><time>2026-07-30T22:14:20Z</time></trkpt>
<trkpt lat="34.993348" lon="-84.94836"><ele>269.4</ele><time>2026-07-30T22:14:22Z</time></trkpt>
<trkpt lat="34.993355" lon="-84.948325"><ele>267.9</ele><time>2026-07-30T22:14:24Z</time></trkpt>
<trkpt lat="34.993358" lon="-84.948276"><ele>268.8</ele><time>2026-07-30T22:14:27Z</time></trkpt>
<trkpt lat="34.99335" lon="-84.948243"><ele>267.9</ele><time>2026-07-30T22:14:29Z</time></trkpt>
<trkpt lat="34.993346" lon="-84.948208"><ele>266.4</ele><time>2026-07-30T22:14:31Z</time></trkpt>
<trkpt lat="34.993342" lon="-84.948173"><ele>267.0</ele><time>2026-07-30T22:14:33Z</time></trkpt>
</trkseg>
</trk></gpx>